<?xml version="1.0" encoding="UTF-8" standalone="no" ?>
<gpx xmlns="http://www.topografix.com/GPX/1/1" xmlns:xsi="http://www.w3.org/2001/XMLSchema-instance" xsi:schemaLocation="http://www.topografix.com/GPX/1/1 http://www.topografix.com/GPX/1/1/gpx.xsd" version="1.1" creator="VisuGPX - https://www.visugpx.com">
  <metadata>
    <name>Le Tuc du plan de la Serre</name>
    <desc><![CDATA[Sur la ligne frontière entre la France et l'Espagne, ce sommet débonnaire offre un panorama époustouflant sur les 3000 m environnants (La Maladeta et son glacier, le Maupas, Nouvelle, les Crabioules, le Queyrat, le Montlude à l'est…). Un rapport "effort/panorama" rare. Vous en aurez très largement pour votre petite fatigue !]]></desc>
  </metadata>
  <trk>
    <name><![CDATA[Le Tuc du plan de la Serre_1]]></name>
    <trkseg>
      <trkpt lat="42.72103" lon="0.65492">
        <ele>1397</ele>
        <time>2017-06-04T07:55:57.000Z</time>
      </trkpt>
      <trkpt lat="42.72105" lon="0.65496">
        <ele>1397</ele>
        <time>2017-06-04T07:56:36.000Z</time>
      </trkpt>
      <trkpt lat="42.72102" lon="0.65489">
        <ele>1397.1</ele>
        <time>2017-06-04T07:57:17.000Z</time>
      </trkpt>
      <trkpt lat="42.72105" lon="0.6549">
        <ele>1397.7</ele>
        <time>2017-06-04T07:57:23.000Z</time>
      </trkpt>
      <trkpt lat="42.72106" lon="0.65493">
        <ele>1397</ele>
        <time>2017-06-04T07:57:46.000Z</time>
      </trkpt>
      <trkpt lat="42.72105" lon="0.65491">
        <ele>1397.1</ele>
        <time>2017-06-04T07:57:49.000Z</time>
      </trkpt>
      <trkpt lat="42.72106" lon="0.65482">
        <ele>1397</ele>
        <time>2017-06-04T07:58:51.990Z</time>
      </trkpt>
      <trkpt lat="42.72108" lon="0.65484">
        <ele>1398</ele>
        <time>2017-06-04T07:59:09.990Z</time>
      </trkpt>
      <trkpt lat="42.72107" lon="0.65456">
        <ele>1395</ele>
        <time>2017-06-04T08:02:40.990Z</time>
      </trkpt>
      <trkpt lat="42.72111" lon="0.65449">
        <ele>1395</ele>
        <time>2017-06-04T08:02:46.990Z</time>
      </trkpt>
      <trkpt lat="42.72126" lon="0.65433">
        <ele>1392.3</ele>
        <time>2017-06-04T08:03:03.990Z</time>
      </trkpt>
      <trkpt lat="42.72134" lon="0.65426">
        <ele>1389.5</ele>
        <time>2017-06-04T08:03:11.990Z</time>
      </trkpt>
      <trkpt lat="42.72138" lon="0.65391">
        <ele>1386.4</ele>
        <time>2017-06-04T08:03:45.990Z</time>
      </trkpt>
      <trkpt lat="42.72142" lon="0.65379">
        <ele>1385.5</ele>
        <time>2017-06-04T08:03:54.990Z</time>
      </trkpt>
      <trkpt lat="42.72163" lon="0.65352">
        <ele>1383</ele>
        <time>2017-06-04T08:04:24.000Z</time>
      </trkpt>
      <trkpt lat="42.72169" lon="0.65342">
        <ele>1382.4</ele>
        <time>2017-06-04T08:04:35.000Z</time>
      </trkpt>
      <trkpt lat="42.72179" lon="0.65342">
        <ele>1382</ele>
        <time>2017-06-04T08:04:45.000Z</time>
      </trkpt>
      <trkpt lat="42.7218" lon="0.65342">
        <ele>1381</ele>
        <time>2017-06-04T08:04:57.990Z</time>
      </trkpt>
      <trkpt lat="42.72195" lon="0.65329">
        <ele>1379</ele>
        <time>2017-06-04T08:07:08.990Z</time>
      </trkpt>
      <trkpt lat="42.72196" lon="0.65329">
        <ele>1379</ele>
        <time>2017-06-04T08:07:09.990Z</time>
      </trkpt>
      <trkpt lat="42.72206" lon="0.65327">
        <ele>1378.8</ele>
        <time>2017-06-04T08:07:18.000Z</time>
      </trkpt>
      <trkpt lat="42.72225" lon="0.65326">
        <ele>1374.9</ele>
        <time>2017-06-04T08:07:37.990Z</time>
      </trkpt>
      <trkpt lat="42.72234" lon="0.65325">
        <ele>1374.2</ele>
        <time>2017-06-04T08:07:44.990Z</time>
      </trkpt>
      <trkpt lat="42.72242" lon="0.65326">
        <ele>1371.8</ele>
        <time>2017-06-04T08:07:53.000Z</time>
      </trkpt>
      <trkpt lat="42.7225" lon="0.65317">
        <ele>1369.7</ele>
        <time>2017-06-04T08:08:00.000Z</time>
      </trkpt>
      <trkpt lat="42.72259" lon="0.65311">
        <ele>1369.1</ele>
        <time>2017-06-04T08:08:05.990Z</time>
      </trkpt>
      <trkpt lat="42.72269" lon="0.6531">
        <ele>1368.2</ele>
        <time>2017-06-04T08:08:14.990Z</time>
      </trkpt>
      <trkpt lat="42.72276" lon="0.65303">
        <ele>1367.5</ele>
        <time>2017-06-04T08:08:22.000Z</time>
      </trkpt>
      <trkpt lat="42.72285" lon="0.65297">
        <ele>1366.6</ele>
        <time>2017-06-04T08:08:31.000Z</time>
      </trkpt>
      <trkpt lat="42.7229" lon="0.65283">
        <ele>1365.9</ele>
        <time>2017-06-04T08:08:38.000Z</time>
      </trkpt>
      <trkpt lat="42.723" lon="0.6528">
        <ele>1364.1</ele>
        <time>2017-06-04T08:08:47.000Z</time>
      </trkpt>
      <trkpt lat="42.72312" lon="0.65258">
        <ele>1360.9</ele>
        <time>2017-06-04T08:09:08.000Z</time>
      </trkpt>
      <trkpt lat="42.72318" lon="0.65249">
        <ele>1360</ele>
        <time>2017-06-04T08:09:16.990Z</time>
      </trkpt>
      <trkpt lat="42.72323" lon="0.65237">
        <ele>1358.3</ele>
        <time>2017-06-04T08:09:26.000Z</time>
      </trkpt>
      <trkpt lat="42.72332" lon="0.65232">
        <ele>1357.2</ele>
        <time>2017-06-04T08:09:34.990Z</time>
      </trkpt>
      <trkpt lat="42.7234" lon="0.65225">
        <ele>1355.2</ele>
        <time>2017-06-04T08:09:42.000Z</time>
      </trkpt>
      <trkpt lat="42.72342" lon="0.65214">
        <ele>1353</ele>
        <time>2017-06-04T08:09:51.000Z</time>
      </trkpt>
      <trkpt lat="42.72349" lon="0.65205">
        <ele>1352.2</ele>
        <time>2017-06-04T08:10:00.000Z</time>
      </trkpt>
      <trkpt lat="42.72353" lon="0.65194">
        <ele>1350</ele>
        <time>2017-06-04T08:10:08.000Z</time>
      </trkpt>
      <trkpt lat="42.72356" lon="0.65153">
        <ele>1348.8</ele>
        <time>2017-06-04T08:10:30.000Z</time>
      </trkpt>
      <trkpt lat="42.72364" lon="0.65117">
        <ele>1345.9</ele>
        <time>2017-06-04T08:10:52.990Z</time>
      </trkpt>
      <trkpt lat="42.72367" lon="0.65105">
        <ele>1344.3</ele>
        <time>2017-06-04T08:11:00.990Z</time>
      </trkpt>
      <trkpt lat="42.72373" lon="0.65069">
        <ele>1340.1</ele>
        <time>2017-06-04T08:11:26.990Z</time>
      </trkpt>
      <trkpt lat="42.72377" lon="0.65057">
        <ele>1339.3</ele>
        <time>2017-06-04T08:11:34.000Z</time>
      </trkpt>
      <trkpt lat="42.72389" lon="0.65035">
        <ele>1335</ele>
        <time>2017-06-04T08:11:51.000Z</time>
      </trkpt>
      <trkpt lat="42.7239" lon="0.65021">
        <ele>1335</ele>
        <time>2017-06-04T08:11:56.990Z</time>
      </trkpt>
      <trkpt lat="42.72399" lon="0.65">
        <ele>1332.7</ele>
        <time>2017-06-04T08:12:13.990Z</time>
      </trkpt>
      <trkpt lat="42.72398" lon="0.64987">
        <ele>1331.6</ele>
        <time>2017-06-04T08:12:20.990Z</time>
      </trkpt>
      <trkpt lat="42.72403" lon="0.64976">
        <ele>1330.6</ele>
        <time>2017-06-04T08:12:31.000Z</time>
      </trkpt>
      <trkpt lat="42.72409" lon="0.64966">
        <ele>1329.7</ele>
        <time>2017-06-04T08:12:38.990Z</time>
      </trkpt>
      <trkpt lat="42.72416" lon="0.64957">
        <ele>1328.3</ele>
        <time>2017-06-04T08:12:46.000Z</time>
      </trkpt>
      <trkpt lat="42.72423" lon="0.6495">
        <ele>1326.9</ele>
        <time>2017-06-04T08:12:52.990Z</time>
      </trkpt>
      <trkpt lat="42.72428" lon="0.64938">
        <ele>1324.6</ele>
        <time>2017-06-04T08:13:02.100Z</time>
      </trkpt>
      <trkpt lat="42.72426" lon="0.64925">
        <ele>1323.4</ele>
        <time>2017-06-04T08:13:05.990Z</time>
      </trkpt>
      <trkpt lat="42.72431" lon="0.64885">
        <ele>1320.7</ele>
        <time>2017-06-04T08:13:28.990Z</time>
      </trkpt>
      <trkpt lat="42.72436" lon="0.64873">
        <ele>1319.3</ele>
        <time>2017-06-04T08:13:36.000Z</time>
      </trkpt>
      <trkpt lat="42.72437" lon="0.6486">
        <ele>1319</ele>
        <time>2017-06-04T08:13:43.000Z</time>
      </trkpt>
      <trkpt lat="42.72443" lon="0.6485">
        <ele>1317.5</ele>
        <time>2017-06-04T08:13:55.000Z</time>
      </trkpt>
      <trkpt lat="42.7245" lon="0.64842">
        <ele>1315.6</ele>
        <time>2017-06-04T08:14:01.990Z</time>
      </trkpt>
      <trkpt lat="42.72456" lon="0.64831">
        <ele>1314</ele>
        <time>2017-06-04T08:14:10.990Z</time>
      </trkpt>
      <trkpt lat="42.72463" lon="0.64822">
        <ele>1313.7</ele>
        <time>2017-06-04T08:14:19.000Z</time>
      </trkpt>
      <trkpt lat="42.7249" lon="0.64813">
        <ele>1309.7</ele>
        <time>2017-06-04T08:14:40.000Z</time>
      </trkpt>
      <trkpt lat="42.725" lon="0.64812">
        <ele>1308.7</ele>
        <time>2017-06-04T08:14:49.980Z</time>
      </trkpt>
      <trkpt lat="42.725" lon="0.64797">
        <ele>1308</ele>
        <time>2017-06-04T08:14:57.000Z</time>
      </trkpt>
      <trkpt lat="42.72498" lon="0.64771">
        <ele>1304.1</ele>
        <time>2017-06-04T08:15:16.000Z</time>
      </trkpt>
      <trkpt lat="42.72499" lon="0.64758">
        <ele>1303.1</ele>
        <time>2017-06-04T08:15:25.990Z</time>
      </trkpt>
      <trkpt lat="42.72496" lon="0.64747">
        <ele>1303</ele>
        <time>2017-06-04T08:15:35.000Z</time>
      </trkpt>
      <trkpt lat="42.72498" lon="0.64735">
        <ele>1301.7</ele>
        <time>2017-06-04T08:15:43.990Z</time>
      </trkpt>
      <trkpt lat="42.72506" lon="0.64728">
        <ele>1300.7</ele>
        <time>2017-06-04T08:15:50.000Z</time>
      </trkpt>
      <trkpt lat="42.72507" lon="0.64715">
        <ele>1300.1</ele>
        <time>2017-06-04T08:15:56.000Z</time>
      </trkpt>
      <trkpt lat="42.72512" lon="0.64704">
        <ele>1300</ele>
        <time>2017-06-04T08:16:03.990Z</time>
      </trkpt>
      <trkpt lat="42.72515" lon="0.64679">
        <ele>1301.3</ele>
        <time>2017-06-04T08:16:23.990Z</time>
      </trkpt>
      <trkpt lat="42.72516" lon="0.64667">
        <ele>1302.7</ele>
        <time>2017-06-04T08:16:34.000Z</time>
      </trkpt>
      <trkpt lat="42.7252" lon="0.64653">
        <ele>1303</ele>
        <time>2017-06-04T08:16:43.000Z</time>
      </trkpt>
      <trkpt lat="42.72526" lon="0.64642">
        <ele>1303.2</ele>
        <time>2017-06-04T08:16:50.000Z</time>
      </trkpt>
      <trkpt lat="42.72535" lon="0.64637">
        <ele>1304.7</ele>
        <time>2017-06-04T08:17:00.020Z</time>
      </trkpt>
      <trkpt lat="42.72554" lon="0.64572">
        <ele>1311.3</ele>
        <time>2017-06-04T08:17:50.300Z</time>
      </trkpt>
      <trkpt lat="42.72559" lon="0.6456">
        <ele>1312.3</ele>
        <time>2017-06-04T08:17:59.000Z</time>
      </trkpt>
      <trkpt lat="42.72567" lon="0.64532">
        <ele>1315.3</ele>
        <time>2017-06-04T08:18:20.000Z</time>
      </trkpt>
      <trkpt lat="42.72569" lon="0.64519">
        <ele>1316</ele>
        <time>2017-06-04T08:18:27.000Z</time>
      </trkpt>
      <trkpt lat="42.72578" lon="0.6451">
        <ele>1317.3</ele>
        <time>2017-06-04T08:18:39.000Z</time>
      </trkpt>
      <trkpt lat="42.72587" lon="0.64504">
        <ele>1319</ele>
        <time>2017-06-04T08:18:48.000Z</time>
      </trkpt>
      <trkpt lat="42.72597" lon="0.64501">
        <ele>1319</ele>
        <time>2017-06-04T08:18:57.000Z</time>
      </trkpt>
      <trkpt lat="42.72606" lon="0.64498">
        <ele>1319.9</ele>
        <time>2017-06-04T08:19:06.000Z</time>
      </trkpt>
      <trkpt lat="42.72614" lon="0.64492">
        <ele>1321.9</ele>
        <time>2017-06-04T08:19:17.000Z</time>
      </trkpt>
      <trkpt lat="42.72623" lon="0.6449">
        <ele>1322.6</ele>
        <time>2017-06-04T08:19:23.000Z</time>
      </trkpt>
      <trkpt lat="42.72641" lon="0.64484">
        <ele>1325.6</ele>
        <time>2017-06-04T08:19:43.000Z</time>
      </trkpt>
      <trkpt lat="42.72651" lon="0.64484">
        <ele>1326.4</ele>
        <time>2017-06-04T08:19:50.990Z</time>
      </trkpt>
      <trkpt lat="42.72659" lon="0.64477">
        <ele>1327.9</ele>
        <time>2017-06-04T08:20:02.000Z</time>
      </trkpt>
      <trkpt lat="42.72677" lon="0.64471">
        <ele>1330.8</ele>
        <time>2017-06-04T08:20:25.100Z</time>
      </trkpt>
      <trkpt lat="42.72684" lon="0.64462">
        <ele>1331.9</ele>
        <time>2017-06-04T08:20:32.000Z</time>
      </trkpt>
      <trkpt lat="42.72693" lon="0.64462">
        <ele>1333.3</ele>
        <time>2017-06-04T08:20:39.990Z</time>
      </trkpt>
      <trkpt lat="42.727" lon="0.64453">
        <ele>1334</ele>
        <time>2017-06-04T08:20:48.990Z</time>
      </trkpt>
      <trkpt lat="42.72709" lon="0.64446">
        <ele>1334.1</ele>
        <time>2017-06-04T08:20:58.000Z</time>
      </trkpt>
      <trkpt lat="42.7272" lon="0.64426">
        <ele>1337</ele>
        <time>2017-06-04T08:21:16.990Z</time>
      </trkpt>
      <trkpt lat="42.7273" lon="0.6442">
        <ele>1339</ele>
        <time>2017-06-04T08:21:28.000Z</time>
      </trkpt>
      <trkpt lat="42.72739" lon="0.64403">
        <ele>1340.9</ele>
        <time>2017-06-04T08:21:42.000Z</time>
      </trkpt>
      <trkpt lat="42.72743" lon="0.64404">
        <ele>1341.7</ele>
        <time>2017-06-04T08:21:46.000Z</time>
      </trkpt>
      <trkpt lat="42.72745" lon="0.64403">
        <ele>1342</ele>
        <time>2017-06-04T08:21:48.000Z</time>
      </trkpt>
      <trkpt lat="42.72747" lon="0.64403">
        <ele>1342</ele>
        <time>2017-06-04T08:21:51.000Z</time>
      </trkpt>
      <trkpt lat="42.72749" lon="0.64401">
        <ele>1342</ele>
        <time>2017-06-04T08:21:53.000Z</time>
      </trkpt>
      <trkpt lat="42.7275" lon="0.64401">
        <ele>1342</ele>
        <time>2017-06-04T08:21:55.000Z</time>
      </trkpt>
      <trkpt lat="42.72752" lon="0.64399">
        <ele>1342</ele>
        <time>2017-06-04T08:21:57.000Z</time>
      </trkpt>
      <trkpt lat="42.72757" lon="0.64396">
        <ele>1342.9</ele>
        <time>2017-06-04T08:22:02.000Z</time>
      </trkpt>
      <trkpt lat="42.7276" lon="0.64395">
        <ele>1343.5</ele>
        <time>2017-06-04T08:22:05.000Z</time>
      </trkpt>
      <trkpt lat="42.72762" lon="0.64394">
        <ele>1343.9</ele>
        <time>2017-06-04T08:22:07.000Z</time>
      </trkpt>
      <trkpt lat="42.72766" lon="0.6439">
        <ele>1345.1</ele>
        <time>2017-06-04T08:22:13.000Z</time>
      </trkpt>
      <trkpt lat="42.72768" lon="0.64389">
        <ele>1345.5</ele>
        <time>2017-06-04T08:22:15.000Z</time>
      </trkpt>
      <trkpt lat="42.7277" lon="0.64388">
        <ele>1345.7</ele>
        <time>2017-06-04T08:22:16.000Z</time>
      </trkpt>
      <trkpt lat="42.72774" lon="0.64383">
        <ele>1346.2</ele>
        <time>2017-06-04T08:22:19.000Z</time>
      </trkpt>
      <trkpt lat="42.72776" lon="0.64381">
        <ele>1346.3</ele>
        <time>2017-06-04T08:22:21.000Z</time>
      </trkpt>
      <trkpt lat="42.7278" lon="0.64377">
        <ele>1346.8</ele>
        <time>2017-06-04T08:22:26.000Z</time>
      </trkpt>
      <trkpt lat="42.72782" lon="0.64377">
        <ele>1347</ele>
        <time>2017-06-04T08:22:28.000Z</time>
      </trkpt>
      <trkpt lat="42.72785" lon="0.64374">
        <ele>1347.4</ele>
        <time>2017-06-04T08:22:32.000Z</time>
      </trkpt>
      <trkpt lat="42.7279" lon="0.64373">
        <ele>1347.8</ele>
        <time>2017-06-04T08:22:36.000Z</time>
      </trkpt>
      <trkpt lat="42.72792" lon="0.64373">
        <ele>1348.1</ele>
        <time>2017-06-04T08:22:38.000Z</time>
      </trkpt>
      <trkpt lat="42.72794" lon="0.64372">
        <ele>1348.9</ele>
        <time>2017-06-04T08:22:42.000Z</time>
      </trkpt>
      <trkpt lat="42.72799" lon="0.64366">
        <ele>1350</ele>
        <time>2017-06-04T08:22:48.000Z</time>
      </trkpt>
      <trkpt lat="42.72805" lon="0.64361">
        <ele>1350</ele>
        <time>2017-06-04T08:22:54.000Z</time>
      </trkpt>
      <trkpt lat="42.72808" lon="0.64357">
        <ele>1350</ele>
        <time>2017-06-04T08:22:58.000Z</time>
      </trkpt>
      <trkpt lat="42.72811" lon="0.64354">
        <ele>1350.4</ele>
        <time>2017-06-04T08:23:02.000Z</time>
      </trkpt>
      <trkpt lat="42.72813" lon="0.64353">
        <ele>1350.6</ele>
        <time>2017-06-04T08:23:04.000Z</time>
      </trkpt>
      <trkpt lat="42.72814" lon="0.6435">
        <ele>1351</ele>
        <time>2017-06-04T08:23:07.000Z</time>
      </trkpt>
      <trkpt lat="42.72817" lon="0.64348">
        <ele>1351.2</ele>
        <time>2017-06-04T08:23:10.000Z</time>
      </trkpt>
      <trkpt lat="42.72816" lon="0.64345">
        <ele>1351.4</ele>
        <time>2017-06-04T08:23:12.000Z</time>
      </trkpt>
      <trkpt lat="42.72818" lon="0.64341">
        <ele>1351.7</ele>
        <time>2017-06-04T08:23:15.000Z</time>
      </trkpt>
      <trkpt lat="42.7282" lon="0.64339">
        <ele>1351.9</ele>
        <time>2017-06-04T08:23:17.000Z</time>
      </trkpt>
      <trkpt lat="42.72825" lon="0.64324">
        <ele>1354</ele>
        <time>2017-06-04T08:23:35.000Z</time>
      </trkpt>
      <trkpt lat="42.72827" lon="0.64321">
        <ele>1354.1</ele>
        <time>2017-06-04T08:23:38.000Z</time>
      </trkpt>
      <trkpt lat="42.72828" lon="0.64318">
        <ele>1354.5</ele>
        <time>2017-06-04T08:23:40.000Z</time>
      </trkpt>
      <trkpt lat="42.7283" lon="0.64316">
        <ele>1355.1</ele>
        <time>2017-06-04T08:23:43.000Z</time>
      </trkpt>
      <trkpt lat="42.72831" lon="0.64315">
        <ele>1355.5</ele>
        <time>2017-06-04T08:23:45.000Z</time>
      </trkpt>
      <trkpt lat="42.72834" lon="0.64311">
        <ele>1356.5</ele>
        <time>2017-06-04T08:23:50.000Z</time>
      </trkpt>
      <trkpt lat="42.72834" lon="0.64308">
        <ele>1357.1</ele>
        <time>2017-06-04T08:23:53.000Z</time>
      </trkpt>
      <trkpt lat="42.72834" lon="0.64304">
        <ele>1357.5</ele>
        <time>2017-06-04T08:23:55.000Z</time>
      </trkpt>
      <trkpt lat="42.72834" lon="0.64301">
        <ele>1357.9</ele>
        <time>2017-06-04T08:23:57.000Z</time>
      </trkpt>
      <trkpt lat="42.72836" lon="0.64295">
        <ele>1358.4</ele>
        <time>2017-06-04T08:24:01.000Z</time>
      </trkpt>
      <trkpt lat="42.72836" lon="0.6429">
        <ele>1358.8</ele>
        <time>2017-06-04T08:24:05.000Z</time>
      </trkpt>
      <trkpt lat="42.72837" lon="0.64286">
        <ele>1359.1</ele>
        <time>2017-06-04T08:24:08.000Z</time>
      </trkpt>
      <trkpt lat="42.72838" lon="0.64283">
        <ele>1359.7</ele>
        <time>2017-06-04T08:24:11.000Z</time>
      </trkpt>
      <trkpt lat="42.7284" lon="0.64279">
        <ele>1360.5</ele>
        <time>2017-06-04T08:24:15.000Z</time>
      </trkpt>
      <trkpt lat="42.72842" lon="0.64278">
        <ele>1361</ele>
        <time>2017-06-04T08:24:18.000Z</time>
      </trkpt>
      <trkpt lat="42.72843" lon="0.64275">
        <ele>1361.2</ele>
        <time>2017-06-04T08:24:20.000Z</time>
      </trkpt>
      <trkpt lat="42.72842" lon="0.64272">
        <ele>1361.7</ele>
        <time>2017-06-04T08:24:25.000Z</time>
      </trkpt>
      <trkpt lat="42.72842" lon="0.64264">
        <ele>1362.3</ele>
        <time>2017-06-04T08:24:29.000Z</time>
      </trkpt>
      <trkpt lat="42.72844" lon="0.64261">
        <ele>1362.7</ele>
        <time>2017-06-04T08:24:31.000Z</time>
      </trkpt>
      <trkpt lat="42.72847" lon="0.6425">
        <ele>1363.9</ele>
        <time>2017-06-04T08:24:37.000Z</time>
      </trkpt>
      <trkpt lat="42.72848" lon="0.64248">
        <ele>1364</ele>
        <time>2017-06-04T08:24:40.000Z</time>
      </trkpt>
      <trkpt lat="42.7285" lon="0.64243">
        <ele>1364</ele>
        <time>2017-06-04T08:24:44.000Z</time>
      </trkpt>
      <trkpt lat="42.72852" lon="0.64237">
        <ele>1364.5</ele>
        <time>2017-06-04T08:24:50.000Z</time>
      </trkpt>
      <trkpt lat="42.72853" lon="0.64234">
        <ele>1365.3</ele>
        <time>2017-06-04T08:24:54.000Z</time>
      </trkpt>
      <trkpt lat="42.72852" lon="0.64227">
        <ele>1366.3</ele>
        <time>2017-06-04T08:25:00.000Z</time>
      </trkpt>
      <trkpt lat="42.72851" lon="0.64225">
        <ele>1366.6</ele>
        <time>2017-06-04T08:25:04.000Z</time>
      </trkpt>
      <trkpt lat="42.72852" lon="0.64223">
        <ele>1367</ele>
        <time>2017-06-04T08:25:09.000Z</time>
      </trkpt>
      <trkpt lat="42.72851" lon="0.6422">
        <ele>1367</ele>
        <time>2017-06-04T08:25:12.000Z</time>
      </trkpt>
      <trkpt lat="42.7285" lon="0.64216">
        <ele>1367</ele>
        <time>2017-06-04T08:25:15.000Z</time>
      </trkpt>
      <trkpt lat="42.7285" lon="0.64213">
        <ele>1367</ele>
        <time>2017-06-04T08:25:17.000Z</time>
      </trkpt>
      <trkpt lat="42.72851" lon="0.64206">
        <ele>1367.4</ele>
        <time>2017-06-04T08:25:22.000Z</time>
      </trkpt>
      <trkpt lat="42.72848" lon="0.64199">
        <ele>1368.3</ele>
        <time>2017-06-04T08:25:29.000Z</time>
      </trkpt>
      <trkpt lat="42.72847" lon="0.64196">
        <ele>1368.7</ele>
        <time>2017-06-04T08:25:31.000Z</time>
      </trkpt>
      <trkpt lat="42.72845" lon="0.64189">
        <ele>1369.9</ele>
        <time>2017-06-04T08:25:37.000Z</time>
      </trkpt>
      <trkpt lat="42.72844" lon="0.64186">
        <ele>1370.1</ele>
        <time>2017-06-04T08:25:39.000Z</time>
      </trkpt>
      <trkpt lat="42.72844" lon="0.64184">
        <ele>1370.3</ele>
        <time>2017-06-04T08:25:41.000Z</time>
      </trkpt>
      <trkpt lat="42.72844" lon="0.64181">
        <ele>1370.5</ele>
        <time>2017-06-04T08:25:43.000Z</time>
      </trkpt>
      <trkpt lat="42.72843" lon="0.64178">
        <ele>1370.9</ele>
        <time>2017-06-04T08:25:46.000Z</time>
      </trkpt>
      <trkpt lat="42.72844" lon="0.64172">
        <ele>1371.5</ele>
        <time>2017-06-04T08:25:50.000Z</time>
      </trkpt>
      <trkpt lat="42.72846" lon="0.64167">
        <ele>1372.5</ele>
        <time>2017-06-04T08:25:55.000Z</time>
      </trkpt>
      <trkpt lat="42.72847" lon="0.64163">
        <ele>1373.1</ele>
        <time>2017-06-04T08:25:58.000Z</time>
      </trkpt>
      <trkpt lat="42.72849" lon="0.64161">
        <ele>1373.3</ele>
        <time>2017-06-04T08:26:00.000Z</time>
      </trkpt>
      <trkpt lat="42.72852" lon="0.64153">
        <ele>1373.9</ele>
        <time>2017-06-04T08:26:06.000Z</time>
      </trkpt>
      <trkpt lat="42.72853" lon="0.6415">
        <ele>1374</ele>
        <time>2017-06-04T08:26:08.000Z</time>
      </trkpt>
      <trkpt lat="42.72854" lon="0.64148">
        <ele>1374.3</ele>
        <time>2017-06-04T08:26:11.000Z</time>
      </trkpt>
      <trkpt lat="42.72855" lon="0.64146">
        <ele>1374.6</ele>
        <time>2017-06-04T08:26:14.000Z</time>
      </trkpt>
      <trkpt lat="42.72863" lon="0.64125">
        <ele>1376.2</ele>
        <time>2017-06-04T08:26:30.000Z</time>
      </trkpt>
      <trkpt lat="42.72864" lon="0.64124">
        <ele>1376.7</ele>
        <time>2017-06-04T08:26:35.000Z</time>
      </trkpt>
      <trkpt lat="42.72865" lon="0.64122">
        <ele>1377</ele>
        <time>2017-06-04T08:26:37.000Z</time>
      </trkpt>
      <trkpt lat="42.72867" lon="0.6412">
        <ele>1377.3</ele>
        <time>2017-06-04T08:26:39.000Z</time>
      </trkpt>
      <trkpt lat="42.72868" lon="0.64118">
        <ele>1377.7</ele>
        <time>2017-06-04T08:26:41.000Z</time>
      </trkpt>
      <trkpt lat="42.72871" lon="0.64113">
        <ele>1378.5</ele>
        <time>2017-06-04T08:26:45.000Z</time>
      </trkpt>
      <trkpt lat="42.72873" lon="0.64111">
        <ele>1379.1</ele>
        <time>2017-06-04T08:26:48.000Z</time>
      </trkpt>
      <trkpt lat="42.72874" lon="0.64108">
        <ele>1379.5</ele>
        <time>2017-06-04T08:26:50.000Z</time>
      </trkpt>
      <trkpt lat="42.72875" lon="0.64106">
        <ele>1379.9</ele>
        <time>2017-06-04T08:26:52.000Z</time>
      </trkpt>
      <trkpt lat="42.72878" lon="0.641">
        <ele>1380.9</ele>
        <time>2017-06-04T08:26:57.000Z</time>
      </trkpt>
      <trkpt lat="42.72879" lon="0.64099">
        <ele>1381</ele>
        <time>2017-06-04T08:26:59.000Z</time>
      </trkpt>
      <trkpt lat="42.72881" lon="0.64097">
        <ele>1381</ele>
        <time>2017-06-04T08:27:01.000Z</time>
      </trkpt>
      <trkpt lat="42.72882" lon="0.64096">
        <ele>1381</ele>
        <time>2017-06-04T08:27:03.000Z</time>
      </trkpt>
      <trkpt lat="42.72885" lon="0.64089">
        <ele>1381.2</ele>
        <time>2017-06-04T08:27:09.000Z</time>
      </trkpt>
      <trkpt lat="42.72887" lon="0.64085">
        <ele>1381.6</ele>
        <time>2017-06-04T08:27:13.000Z</time>
      </trkpt>
      <trkpt lat="42.7289" lon="0.64075">
        <ele>1382.4</ele>
        <time>2017-06-04T08:27:21.000Z</time>
      </trkpt>
      <trkpt lat="42.72894" lon="0.64065">
        <ele>1383.5</ele>
        <time>2017-06-04T08:27:30.000Z</time>
      </trkpt>
      <trkpt lat="42.72898" lon="0.64058">
        <ele>1384.9</ele>
        <time>2017-06-04T08:27:37.000Z</time>
      </trkpt>
      <trkpt lat="42.72899" lon="0.64056">
        <ele>1385.3</ele>
        <time>2017-06-04T08:27:39.000Z</time>
      </trkpt>
      <trkpt lat="42.729" lon="0.64053">
        <ele>1385.7</ele>
        <time>2017-06-04T08:27:41.000Z</time>
      </trkpt>
      <trkpt lat="42.72903" lon="0.64047">
        <ele>1386.9</ele>
        <time>2017-06-04T08:27:47.000Z</time>
      </trkpt>
      <trkpt lat="42.72911" lon="0.6403">
        <ele>1388.9</ele>
        <time>2017-06-04T08:28:02.000Z</time>
      </trkpt>
      <trkpt lat="42.72912" lon="0.64027">
        <ele>1389.3</ele>
        <time>2017-06-04T08:28:04.000Z</time>
      </trkpt>
      <trkpt lat="42.72912" lon="0.64024">
        <ele>1389.7</ele>
        <time>2017-06-04T08:28:06.000Z</time>
      </trkpt>
      <trkpt lat="42.72913" lon="0.64022">
        <ele>1390</ele>
        <time>2017-06-04T08:28:08.000Z</time>
      </trkpt>
      <trkpt lat="42.72914" lon="0.64019">
        <ele>1390</ele>
        <time>2017-06-04T08:28:10.000Z</time>
      </trkpt>
      <trkpt lat="42.72916" lon="0.64013">
        <ele>1390</ele>
        <time>2017-06-04T08:28:16.000Z</time>
      </trkpt>
      <trkpt lat="42.72918" lon="0.64009">
        <ele>1390</ele>
        <time>2017-06-04T08:28:19.000Z</time>
      </trkpt>
      <trkpt lat="42.72919" lon="0.64004">
        <ele>1390</ele>
        <time>2017-06-04T08:28:23.000Z</time>
      </trkpt>
      <trkpt lat="42.72922" lon="0.63999">
        <ele>1390</ele>
        <time>2017-06-04T08:28:28.000Z</time>
      </trkpt>
      <trkpt lat="42.72927" lon="0.63987">
        <ele>1390.1</ele>
        <time>2017-06-04T08:28:38.000Z</time>
      </trkpt>
      <trkpt lat="42.7293" lon="0.63974">
        <ele>1391.9</ele>
        <time>2017-06-04T08:28:47.000Z</time>
      </trkpt>
      <trkpt lat="42.72935" lon="0.63963">
        <ele>1393.9</ele>
        <time>2017-06-04T08:28:57.000Z</time>
      </trkpt>
      <trkpt lat="42.72936" lon="0.63961">
        <ele>1394.2</ele>
        <time>2017-06-04T08:28:59.000Z</time>
      </trkpt>
      <trkpt lat="42.72938" lon="0.63959">
        <ele>1394.8</ele>
        <time>2017-06-04T08:29:05.000Z</time>
      </trkpt>
      <trkpt lat="42.72939" lon="0.63956">
        <ele>1395.3</ele>
        <time>2017-06-04T08:29:10.000Z</time>
      </trkpt>
      <trkpt lat="42.72941" lon="0.63952">
        <ele>1395.7</ele>
        <time>2017-06-04T08:29:14.000Z</time>
      </trkpt>
      <trkpt lat="42.72942" lon="0.63951">
        <ele>1395.9</ele>
        <time>2017-06-04T08:29:16.000Z</time>
      </trkpt>
      <trkpt lat="42.72944" lon="0.63949">
        <ele>1396.1</ele>
        <time>2017-06-04T08:29:18.000Z</time>
      </trkpt>
      <trkpt lat="42.72945" lon="0.63947">
        <ele>1396.3</ele>
        <time>2017-06-04T08:29:20.000Z</time>
      </trkpt>
      <trkpt lat="42.72947" lon="0.63945">
        <ele>1396.6</ele>
        <time>2017-06-04T08:29:23.000Z</time>
      </trkpt>
      <trkpt lat="42.72951" lon="0.63939">
        <ele>1397.1</ele>
        <time>2017-06-04T08:29:29.000Z</time>
      </trkpt>
      <trkpt lat="42.72954" lon="0.63936">
        <ele>1397.5</ele>
        <time>2017-06-04T08:29:33.000Z</time>
      </trkpt>
      <trkpt lat="42.72961" lon="0.6393">
        <ele>1398.7</ele>
        <time>2017-06-04T08:29:41.000Z</time>
      </trkpt>
      <trkpt lat="42.72972" lon="0.63917">
        <ele>1400.7</ele>
        <time>2017-06-04T08:29:55.000Z</time>
      </trkpt>
      <trkpt lat="42.72977" lon="0.63908">
        <ele>1402.1</ele>
        <time>2017-06-04T08:30:03.000Z</time>
      </trkpt>
      <trkpt lat="42.72981" lon="0.639">
        <ele>1403</ele>
        <time>2017-06-04T08:30:10.000Z</time>
      </trkpt>
      <trkpt lat="42.72982" lon="0.63897">
        <ele>1403</ele>
        <time>2017-06-04T08:30:12.000Z</time>
      </trkpt>
      <trkpt lat="42.72985" lon="0.63887">
        <ele>1403.2</ele>
        <time>2017-06-04T08:30:20.000Z</time>
      </trkpt>
      <trkpt lat="42.72987" lon="0.63881">
        <ele>1403.6</ele>
        <time>2017-06-04T08:30:24.000Z</time>
      </trkpt>
      <trkpt lat="42.72988" lon="0.6387">
        <ele>1405.1</ele>
        <time>2017-06-04T08:30:33.000Z</time>
      </trkpt>
      <trkpt lat="42.72989" lon="0.63867">
        <ele>1406</ele>
        <time>2017-06-04T08:30:38.000Z</time>
      </trkpt>
      <trkpt lat="42.72997" lon="0.63853">
        <ele>1406.5</ele>
        <time>2017-06-04T08:30:50.000Z</time>
      </trkpt>
      <trkpt lat="42.72998" lon="0.63851">
        <ele>1406.9</ele>
        <time>2017-06-04T08:30:52.000Z</time>
      </trkpt>
      <trkpt lat="42.73002" lon="0.63846">
        <ele>1407.9</ele>
        <time>2017-06-04T08:30:57.000Z</time>
      </trkpt>
      <trkpt lat="42.73003" lon="0.63844">
        <ele>1408.2</ele>
        <time>2017-06-04T08:30:59.000Z</time>
      </trkpt>
      <trkpt lat="42.73005" lon="0.63842">
        <ele>1408.4</ele>
        <time>2017-06-04T08:31:01.000Z</time>
      </trkpt>
      <trkpt lat="42.7301" lon="0.63837">
        <ele>1409</ele>
        <time>2017-06-04T08:31:07.000Z</time>
      </trkpt>
      <trkpt lat="42.73012" lon="0.63835">
        <ele>1409</ele>
        <time>2017-06-04T08:31:09.000Z</time>
      </trkpt>
      <trkpt lat="42.73016" lon="0.63832">
        <ele>1409</ele>
        <time>2017-06-04T08:31:13.000Z</time>
      </trkpt>
      <trkpt lat="42.73017" lon="0.6383">
        <ele>1409</ele>
        <time>2017-06-04T08:31:15.000Z</time>
      </trkpt>
      <trkpt lat="42.73023" lon="0.63825">
        <ele>1409.7</ele>
        <time>2017-06-04T08:31:21.000Z</time>
      </trkpt>
      <trkpt lat="42.73024" lon="0.63824">
        <ele>1410.1</ele>
        <time>2017-06-04T08:31:23.000Z</time>
      </trkpt>
      <trkpt lat="42.73026" lon="0.63822">
        <ele>1410.5</ele>
        <time>2017-06-04T08:31:25.000Z</time>
      </trkpt>
      <trkpt lat="42.73028" lon="0.63821">
        <ele>1410.9</ele>
        <time>2017-06-04T08:31:27.000Z</time>
      </trkpt>
      <trkpt lat="42.7303" lon="0.63819">
        <ele>1411.1</ele>
        <time>2017-06-04T08:31:29.000Z</time>
      </trkpt>
      <trkpt lat="42.73039" lon="0.63817">
        <ele>1411.9</ele>
        <time>2017-06-04T08:31:37.000Z</time>
      </trkpt>
      <trkpt lat="42.73041" lon="0.63816">
        <ele>1412.3</ele>
        <time>2017-06-04T08:31:39.000Z</time>
      </trkpt>
      <trkpt lat="42.73043" lon="0.63814">
        <ele>1412.7</ele>
        <time>2017-06-04T08:31:41.000Z</time>
      </trkpt>
      <trkpt lat="42.73045" lon="0.63813">
        <ele>1413.1</ele>
        <time>2017-06-04T08:31:43.000Z</time>
      </trkpt>
      <trkpt lat="42.73047" lon="0.63811">
        <ele>1413.5</ele>
        <time>2017-06-04T08:31:45.000Z</time>
      </trkpt>
      <trkpt lat="42.73049" lon="0.6381">
        <ele>1413.9</ele>
        <time>2017-06-04T08:31:47.000Z</time>
      </trkpt>
      <trkpt lat="42.73053" lon="0.63803">
        <ele>1414.6</ele>
        <time>2017-06-04T08:31:53.000Z</time>
      </trkpt>
      <trkpt lat="42.73054" lon="0.63801">
        <ele>1414.8</ele>
        <time>2017-06-04T08:31:55.000Z</time>
      </trkpt>
      <trkpt lat="42.73061" lon="0.63793">
        <ele>1416.3</ele>
        <time>2017-06-04T08:32:04.000Z</time>
      </trkpt>
      <trkpt lat="42.73062" lon="0.63791">
        <ele>1416.7</ele>
        <time>2017-06-04T08:32:06.000Z</time>
      </trkpt>
      <trkpt lat="42.73065" lon="0.6379">
        <ele>1417</ele>
        <time>2017-06-04T08:32:08.000Z</time>
      </trkpt>
      <trkpt lat="42.73066" lon="0.63788">
        <ele>1417.2</ele>
        <time>2017-06-04T08:32:10.000Z</time>
      </trkpt>
      <trkpt lat="42.73068" lon="0.63787">
        <ele>1417.4</ele>
        <time>2017-06-04T08:32:12.000Z</time>
      </trkpt>
      <trkpt lat="42.7307" lon="0.63785">
        <ele>1417.6</ele>
        <time>2017-06-04T08:32:14.000Z</time>
      </trkpt>
      <trkpt lat="42.73071" lon="0.63784">
        <ele>1417.7</ele>
        <time>2017-06-04T08:32:15.000Z</time>
      </trkpt>
      <trkpt lat="42.73079" lon="0.63782">
        <ele>1418.5</ele>
        <time>2017-06-04T08:32:23.000Z</time>
      </trkpt>
      <trkpt lat="42.73083" lon="0.6378">
        <ele>1419</ele>
        <time>2017-06-04T08:32:27.000Z</time>
      </trkpt>
      <trkpt lat="42.73084" lon="0.63779">
        <ele>1419.2</ele>
        <time>2017-06-04T08:32:29.000Z</time>
      </trkpt>
      <trkpt lat="42.73086" lon="0.63778">
        <ele>1419.4</ele>
        <time>2017-06-04T08:32:31.000Z</time>
      </trkpt>
      <trkpt lat="42.73088" lon="0.63777">
        <ele>1419.6</ele>
        <time>2017-06-04T08:32:33.000Z</time>
      </trkpt>
      <trkpt lat="42.7309" lon="0.63776">
        <ele>1419.8</ele>
        <time>2017-06-04T08:32:35.000Z</time>
      </trkpt>
      <trkpt lat="42.73091" lon="0.63774">
        <ele>1420</ele>
        <time>2017-06-04T08:32:37.000Z</time>
      </trkpt>
      <trkpt lat="42.73093" lon="0.63773">
        <ele>1420.1</ele>
        <time>2017-06-04T08:32:39.000Z</time>
      </trkpt>
      <trkpt lat="42.73096" lon="0.63771">
        <ele>1420.4</ele>
        <time>2017-06-04T08:32:42.000Z</time>
      </trkpt>
      <trkpt lat="42.73098" lon="0.6377">
        <ele>1420.6</ele>
        <time>2017-06-04T08:32:44.000Z</time>
      </trkpt>
      <trkpt lat="42.73104" lon="0.63766">
        <ele>1421.7</ele>
        <time>2017-06-04T08:32:50.000Z</time>
      </trkpt>
      <trkpt lat="42.73106" lon="0.63765">
        <ele>1422.3</ele>
        <time>2017-06-04T08:32:52.000Z</time>
      </trkpt>
      <trkpt lat="42.73108" lon="0.63764">
        <ele>1422.9</ele>
        <time>2017-06-04T08:32:54.000Z</time>
      </trkpt>
      <trkpt lat="42.73116" lon="0.6376">
        <ele>1423.5</ele>
        <time>2017-06-04T08:33:02.000Z</time>
      </trkpt>
      <trkpt lat="42.73125" lon="0.63749">
        <ele>1424.5</ele>
        <time>2017-06-04T08:33:12.000Z</time>
      </trkpt>
      <trkpt lat="42.73129" lon="0.63747">
        <ele>1424.9</ele>
        <time>2017-06-04T08:33:16.000Z</time>
      </trkpt>
      <trkpt lat="42.73133" lon="0.63745">
        <ele>1425.5</ele>
        <time>2017-06-04T08:33:20.000Z</time>
      </trkpt>
      <trkpt lat="42.73135" lon="0.63745">
        <ele>1425.9</ele>
        <time>2017-06-04T08:33:22.000Z</time>
      </trkpt>
      <trkpt lat="42.73139" lon="0.63743">
        <ele>1426.7</ele>
        <time>2017-06-04T08:33:26.000Z</time>
      </trkpt>
      <trkpt lat="42.73141" lon="0.63742">
        <ele>1427</ele>
        <time>2017-06-04T08:33:28.000Z</time>
      </trkpt>
      <trkpt lat="42.73143" lon="0.63741">
        <ele>1427.2</ele>
        <time>2017-06-04T08:33:30.000Z</time>
      </trkpt>
      <trkpt lat="42.73148" lon="0.63742">
        <ele>1427.6</ele>
        <time>2017-06-04T08:33:34.000Z</time>
      </trkpt>
      <trkpt lat="42.7315" lon="0.63742">
        <ele>1427.8</ele>
        <time>2017-06-04T08:33:36.000Z</time>
      </trkpt>
      <trkpt lat="42.73152" lon="0.63742">
        <ele>1428.1</ele>
        <time>2017-06-04T08:33:38.000Z</time>
      </trkpt>
      <trkpt lat="42.73156" lon="0.63743">
        <ele>1428.9</ele>
        <time>2017-06-04T08:33:42.000Z</time>
      </trkpt>
      <trkpt lat="42.73159" lon="0.63743">
        <ele>1429.3</ele>
        <time>2017-06-04T08:33:44.000Z</time>
      </trkpt>
      <trkpt lat="42.73163" lon="0.63742">
        <ele>1430.1</ele>
        <time>2017-06-04T08:33:48.000Z</time>
      </trkpt>
      <trkpt lat="42.73165" lon="0.63743">
        <ele>1430.4</ele>
        <time>2017-06-04T08:33:51.000Z</time>
      </trkpt>
      <trkpt lat="42.73171" lon="0.63738">
        <ele>1431</ele>
        <time>2017-06-04T08:34:15.000Z</time>
      </trkpt>
      <trkpt lat="42.73174" lon="0.63738">
        <ele>1431.3</ele>
        <time>2017-06-04T08:34:17.000Z</time>
      </trkpt>
      <trkpt lat="42.73177" lon="0.63738">
        <ele>1431.5</ele>
        <time>2017-06-04T08:34:19.000Z</time>
      </trkpt>
      <trkpt lat="42.73179" lon="0.63738">
        <ele>1431.7</ele>
        <time>2017-06-04T08:34:21.000Z</time>
      </trkpt>
      <trkpt lat="42.73181" lon="0.63737">
        <ele>1431.9</ele>
        <time>2017-06-04T08:34:23.000Z</time>
      </trkpt>
      <trkpt lat="42.73183" lon="0.63737">
        <ele>1432</ele>
        <time>2017-06-04T08:34:25.000Z</time>
      </trkpt>
      <trkpt lat="42.73186" lon="0.63738">
        <ele>1432</ele>
        <time>2017-06-04T08:34:30.000Z</time>
      </trkpt>
      <trkpt lat="42.73188" lon="0.63738">
        <ele>1434</ele>
        <time>2017-06-04T08:34:45.000Z</time>
      </trkpt>
      <trkpt lat="42.73188" lon="0.6374">
        <ele>1434</ele>
        <time>2017-06-04T08:34:47.000Z</time>
      </trkpt>
      <trkpt lat="42.7319" lon="0.63738">
        <ele>1434</ele>
        <time>2017-06-04T08:34:50.000Z</time>
      </trkpt>
      <trkpt lat="42.73191" lon="0.63739">
        <ele>1434</ele>
        <time>2017-06-04T08:35:01.000Z</time>
      </trkpt>
      <trkpt lat="42.73192" lon="0.63746">
        <ele>1434</ele>
        <time>2017-06-04T08:35:35.000Z</time>
      </trkpt>
      <trkpt lat="42.73192" lon="0.63746">
        <ele>1434</ele>
        <time>2017-06-04T08:35:37.000Z</time>
      </trkpt>
      <trkpt lat="42.73194" lon="0.63741">
        <ele>1434</ele>
        <time>2017-06-04T08:35:57.000Z</time>
      </trkpt>
      <trkpt lat="42.73195" lon="0.63737">
        <ele>1434</ele>
        <time>2017-06-04T08:36:00.000Z</time>
      </trkpt>
      <trkpt lat="42.73196" lon="0.63735">
        <ele>1434</ele>
        <time>2017-06-04T08:36:02.000Z</time>
      </trkpt>
      <trkpt lat="42.73198" lon="0.63733">
        <ele>1434</ele>
        <time>2017-06-04T08:36:04.000Z</time>
      </trkpt>
      <trkpt lat="42.73199" lon="0.63732">
        <ele>1434.1</ele>
        <time>2017-06-04T08:36:06.000Z</time>
      </trkpt>
      <trkpt lat="42.73202" lon="0.63728">
        <ele>1434.4</ele>
        <time>2017-06-04T08:36:10.000Z</time>
      </trkpt>
      <trkpt lat="42.73204" lon="0.63726">
        <ele>1434.6</ele>
        <time>2017-06-04T08:36:12.000Z</time>
      </trkpt>
      <trkpt lat="42.73208" lon="0.6372">
        <ele>1435.5</ele>
        <time>2017-06-04T08:36:18.000Z</time>
      </trkpt>
      <trkpt lat="42.73213" lon="0.63715">
        <ele>1436.7</ele>
        <time>2017-06-04T08:36:24.000Z</time>
      </trkpt>
      <trkpt lat="42.7322" lon="0.63706">
        <ele>1437.8</ele>
        <time>2017-06-04T08:36:34.000Z</time>
      </trkpt>
      <trkpt lat="42.73227" lon="0.63691">
        <ele>1439.9</ele>
        <time>2017-06-04T08:36:45.000Z</time>
      </trkpt>
      <trkpt lat="42.73238" lon="0.63674">
        <ele>1442.5</ele>
        <time>2017-06-04T08:37:01.000Z</time>
      </trkpt>
      <trkpt lat="42.73241" lon="0.6367">
        <ele>1442.9</ele>
        <time>2017-06-04T08:37:05.000Z</time>
      </trkpt>
      <trkpt lat="42.73243" lon="0.63669">
        <ele>1443.3</ele>
        <time>2017-06-04T08:37:07.000Z</time>
      </trkpt>
      <trkpt lat="42.73244" lon="0.63667">
        <ele>1443.7</ele>
        <time>2017-06-04T08:37:09.000Z</time>
      </trkpt>
      <trkpt lat="42.73246" lon="0.63665">
        <ele>1444.1</ele>
        <time>2017-06-04T08:37:11.000Z</time>
      </trkpt>
      <trkpt lat="42.73247" lon="0.63663">
        <ele>1444.5</ele>
        <time>2017-06-04T08:37:13.000Z</time>
      </trkpt>
      <trkpt lat="42.73249" lon="0.63661">
        <ele>1444.9</ele>
        <time>2017-06-04T08:37:15.000Z</time>
      </trkpt>
      <trkpt lat="42.73251" lon="0.6366">
        <ele>1445.1</ele>
        <time>2017-06-04T08:37:17.000Z</time>
      </trkpt>
      <trkpt lat="42.73262" lon="0.63649">
        <ele>1446.3</ele>
        <time>2017-06-04T08:37:29.000Z</time>
      </trkpt>
      <trkpt lat="42.73264" lon="0.63647">
        <ele>1446.5</ele>
        <time>2017-06-04T08:37:31.000Z</time>
      </trkpt>
      <trkpt lat="42.73268" lon="0.63643">
        <ele>1447</ele>
        <time>2017-06-04T08:37:35.000Z</time>
      </trkpt>
      <trkpt lat="42.73275" lon="0.63637">
        <ele>1447.8</ele>
        <time>2017-06-04T08:37:43.000Z</time>
      </trkpt>
      <trkpt lat="42.73282" lon="0.6363">
        <ele>1449.1</ele>
        <time>2017-06-04T08:37:51.000Z</time>
      </trkpt>
      <trkpt lat="42.73285" lon="0.63627">
        <ele>1449.9</ele>
        <time>2017-06-04T08:37:55.000Z</time>
      </trkpt>
      <trkpt lat="42.73286" lon="0.63626">
        <ele>1450</ele>
        <time>2017-06-04T08:37:56.000Z</time>
      </trkpt>
      <trkpt lat="42.73292" lon="0.63622">
        <ele>1450</ele>
        <time>2017-06-04T08:38:02.000Z</time>
      </trkpt>
      <trkpt lat="42.73293" lon="0.63621">
        <ele>1450</ele>
        <time>2017-06-04T08:38:04.000Z</time>
      </trkpt>
      <trkpt lat="42.73299" lon="0.63615">
        <ele>1450.9</ele>
        <time>2017-06-04T08:38:10.000Z</time>
      </trkpt>
      <trkpt lat="42.73301" lon="0.63614">
        <ele>1451.3</ele>
        <time>2017-06-04T08:38:12.000Z</time>
      </trkpt>
      <trkpt lat="42.73304" lon="0.63611">
        <ele>1451.9</ele>
        <time>2017-06-04T08:38:15.000Z</time>
      </trkpt>
      <trkpt lat="42.73308" lon="0.63608">
        <ele>1452.4</ele>
        <time>2017-06-04T08:38:19.000Z</time>
      </trkpt>
      <trkpt lat="42.73312" lon="0.63605">
        <ele>1452.7</ele>
        <time>2017-06-04T08:38:23.000Z</time>
      </trkpt>
      <trkpt lat="42.73316" lon="0.63603">
        <ele>1453.1</ele>
        <time>2017-06-04T08:38:27.000Z</time>
      </trkpt>
      <trkpt lat="42.73317" lon="0.63602">
        <ele>1453.3</ele>
        <time>2017-06-04T08:38:29.000Z</time>
      </trkpt>
      <trkpt lat="42.73319" lon="0.63601">
        <ele>1453.5</ele>
        <time>2017-06-04T08:38:31.000Z</time>
      </trkpt>
      <trkpt lat="42.73323" lon="0.63598">
        <ele>1453.9</ele>
        <time>2017-06-04T08:38:35.000Z</time>
      </trkpt>
      <trkpt lat="42.73326" lon="0.63598">
        <ele>1454.3</ele>
        <time>2017-06-04T08:38:37.000Z</time>
      </trkpt>
      <trkpt lat="42.73328" lon="0.63597">
        <ele>1454.7</ele>
        <time>2017-06-04T08:38:39.000Z</time>
      </trkpt>
      <trkpt lat="42.7333" lon="0.63596">
        <ele>1455.1</ele>
        <time>2017-06-04T08:38:41.000Z</time>
      </trkpt>
      <trkpt lat="42.73333" lon="0.63594">
        <ele>1455.7</ele>
        <time>2017-06-04T08:38:44.000Z</time>
      </trkpt>
      <trkpt lat="42.73335" lon="0.63593">
        <ele>1456.1</ele>
        <time>2017-06-04T08:38:46.000Z</time>
      </trkpt>
      <trkpt lat="42.73337" lon="0.63593">
        <ele>1456.3</ele>
        <time>2017-06-04T08:38:48.000Z</time>
      </trkpt>
      <trkpt lat="42.73339" lon="0.63592">
        <ele>1456.5</ele>
        <time>2017-06-04T08:38:50.000Z</time>
      </trkpt>
      <trkpt lat="42.73341" lon="0.6359">
        <ele>1456.7</ele>
        <time>2017-06-04T08:38:52.000Z</time>
      </trkpt>
      <trkpt lat="42.73345" lon="0.63589">
        <ele>1457.1</ele>
        <time>2017-06-04T08:38:56.000Z</time>
      </trkpt>
      <trkpt lat="42.73347" lon="0.63588">
        <ele>1457.5</ele>
        <time>2017-06-04T08:38:58.000Z</time>
      </trkpt>
      <trkpt lat="42.73349" lon="0.63587">
        <ele>1457.9</ele>
        <time>2017-06-04T08:39:00.000Z</time>
      </trkpt>
      <trkpt lat="42.73351" lon="0.63587">
        <ele>1458.3</ele>
        <time>2017-06-04T08:39:02.000Z</time>
      </trkpt>
      <trkpt lat="42.73353" lon="0.63586">
        <ele>1458.7</ele>
        <time>2017-06-04T08:39:04.000Z</time>
      </trkpt>
      <trkpt lat="42.73355" lon="0.63585">
        <ele>1459</ele>
        <time>2017-06-04T08:39:06.000Z</time>
      </trkpt>
      <trkpt lat="42.73357" lon="0.63583">
        <ele>1459.2</ele>
        <time>2017-06-04T08:39:08.000Z</time>
      </trkpt>
      <trkpt lat="42.73359" lon="0.63583">
        <ele>1459.4</ele>
        <time>2017-06-04T08:39:10.000Z</time>
      </trkpt>
      <trkpt lat="42.73361" lon="0.63582">
        <ele>1459.6</ele>
        <time>2017-06-04T08:39:12.000Z</time>
      </trkpt>
      <trkpt lat="42.7337" lon="0.63579">
        <ele>1460.4</ele>
        <time>2017-06-04T08:39:20.000Z</time>
      </trkpt>
      <trkpt lat="42.7338" lon="0.63577">
        <ele>1461.4</ele>
        <time>2017-06-04T08:39:30.000Z</time>
      </trkpt>
      <trkpt lat="42.73382" lon="0.63576">
        <ele>1461.6</ele>
        <time>2017-06-04T08:39:32.000Z</time>
      </trkpt>
      <trkpt lat="42.73386" lon="0.63573">
        <ele>1462.1</ele>
        <time>2017-06-04T08:39:36.000Z</time>
      </trkpt>
      <trkpt lat="42.73388" lon="0.63573">
        <ele>1462.5</ele>
        <time>2017-06-04T08:39:38.000Z</time>
      </trkpt>
      <trkpt lat="42.73397" lon="0.63575">
        <ele>1464.1</ele>
        <time>2017-06-04T08:39:46.000Z</time>
      </trkpt>
      <trkpt lat="42.73399" lon="0.63575">
        <ele>1464.3</ele>
        <time>2017-06-04T08:39:48.000Z</time>
      </trkpt>
      <trkpt lat="42.73405" lon="0.6358">
        <ele>1464.9</ele>
        <time>2017-06-04T08:39:54.000Z</time>
      </trkpt>
      <trkpt lat="42.73418" lon="0.63597">
        <ele>1466.2</ele>
        <time>2017-06-04T08:40:08.000Z</time>
      </trkpt>
      <trkpt lat="42.73419" lon="0.636">
        <ele>1466.4</ele>
        <time>2017-06-04T08:40:10.000Z</time>
      </trkpt>
      <trkpt lat="42.73421" lon="0.63604">
        <ele>1466.9</ele>
        <time>2017-06-04T08:40:14.000Z</time>
      </trkpt>
      <trkpt lat="42.73423" lon="0.6361">
        <ele>1467.5</ele>
        <time>2017-06-04T08:40:18.000Z</time>
      </trkpt>
      <trkpt lat="42.73424" lon="0.63613">
        <ele>1468.1</ele>
        <time>2017-06-04T08:40:21.000Z</time>
      </trkpt>
      <trkpt lat="42.73432" lon="0.63623">
        <ele>1470.5</ele>
        <time>2017-06-04T08:40:33.000Z</time>
      </trkpt>
      <trkpt lat="42.73434" lon="0.63624">
        <ele>1470.9</ele>
        <time>2017-06-04T08:40:35.000Z</time>
      </trkpt>
      <trkpt lat="42.73437" lon="0.63627">
        <ele>1471.3</ele>
        <time>2017-06-04T08:40:39.000Z</time>
      </trkpt>
      <trkpt lat="42.73439" lon="0.63628">
        <ele>1471.7</ele>
        <time>2017-06-04T08:40:42.000Z</time>
      </trkpt>
      <trkpt lat="42.73442" lon="0.63628">
        <ele>1472</ele>
        <time>2017-06-04T08:40:45.000Z</time>
      </trkpt>
      <trkpt lat="42.73443" lon="0.63629">
        <ele>1472.3</ele>
        <time>2017-06-04T08:40:47.000Z</time>
      </trkpt>
      <trkpt lat="42.73448" lon="0.63629">
        <ele>1473.5</ele>
        <time>2017-06-04T08:40:53.000Z</time>
      </trkpt>
      <trkpt lat="42.7345" lon="0.63629">
        <ele>1473.9</ele>
        <time>2017-06-04T08:40:55.000Z</time>
      </trkpt>
      <trkpt lat="42.73452" lon="0.63629">
        <ele>1474.2</ele>
        <time>2017-06-04T08:40:57.000Z</time>
      </trkpt>
      <trkpt lat="42.73454" lon="0.63629">
        <ele>1474.4</ele>
        <time>2017-06-04T08:40:59.000Z</time>
      </trkpt>
      <trkpt lat="42.73456" lon="0.63629">
        <ele>1474.6</ele>
        <time>2017-06-04T08:41:01.000Z</time>
      </trkpt>
      <trkpt lat="42.73458" lon="0.63629">
        <ele>1474.8</ele>
        <time>2017-06-04T08:41:03.000Z</time>
      </trkpt>
      <trkpt lat="42.7346" lon="0.6363">
        <ele>1475</ele>
        <time>2017-06-04T08:41:05.000Z</time>
      </trkpt>
      <trkpt lat="42.73462" lon="0.63631">
        <ele>1475.3</ele>
        <time>2017-06-04T08:41:07.000Z</time>
      </trkpt>
      <trkpt lat="42.73464" lon="0.63632">
        <ele>1475.7</ele>
        <time>2017-06-04T08:41:09.000Z</time>
      </trkpt>
      <trkpt lat="42.73466" lon="0.63633">
        <ele>1476.1</ele>
        <time>2017-06-04T08:41:11.000Z</time>
      </trkpt>
      <trkpt lat="42.73471" lon="0.63636">
        <ele>1476.9</ele>
        <time>2017-06-04T08:41:15.000Z</time>
      </trkpt>
      <trkpt lat="42.73475" lon="0.63641">
        <ele>1477.3</ele>
        <time>2017-06-04T08:41:19.000Z</time>
      </trkpt>
      <trkpt lat="42.73479" lon="0.63645">
        <ele>1477.7</ele>
        <time>2017-06-04T08:41:23.000Z</time>
      </trkpt>
      <trkpt lat="42.73481" lon="0.63647">
        <ele>1477.9</ele>
        <time>2017-06-04T08:41:25.000Z</time>
      </trkpt>
      <trkpt lat="42.73483" lon="0.63648">
        <ele>1478.1</ele>
        <time>2017-06-04T08:41:27.000Z</time>
      </trkpt>
      <trkpt lat="42.73497" lon="0.63668">
        <ele>1480.9</ele>
        <time>2017-06-04T08:41:45.000Z</time>
      </trkpt>
      <trkpt lat="42.73509" lon="0.63689">
        <ele>1482.5</ele>
        <time>2017-06-04T08:42:03.000Z</time>
      </trkpt>
      <trkpt lat="42.73515" lon="0.63702">
        <ele>1484.7</ele>
        <time>2017-06-04T08:42:14.000Z</time>
      </trkpt>
      <trkpt lat="42.73519" lon="0.63716">
        <ele>1485</ele>
        <time>2017-06-04T08:42:25.000Z</time>
      </trkpt>
      <trkpt lat="42.7352" lon="0.63718">
        <ele>1485.3</ele>
        <time>2017-06-04T08:42:27.000Z</time>
      </trkpt>
      <trkpt lat="42.73524" lon="0.63745">
        <ele>1489.1</ele>
        <time>2017-06-04T08:42:47.000Z</time>
      </trkpt>
      <trkpt lat="42.73529" lon="0.63756">
        <ele>1490.1</ele>
        <time>2017-06-04T08:42:57.000Z</time>
      </trkpt>
      <trkpt lat="42.73532" lon="0.63759">
        <ele>1490.5</ele>
        <time>2017-06-04T08:43:01.000Z</time>
      </trkpt>
      <trkpt lat="42.73535" lon="0.63761">
        <ele>1490.8</ele>
        <time>2017-06-04T08:43:04.000Z</time>
      </trkpt>
      <trkpt lat="42.73539" lon="0.63763">
        <ele>1491.5</ele>
        <time>2017-06-04T08:43:08.000Z</time>
      </trkpt>
      <trkpt lat="42.73541" lon="0.63764">
        <ele>1491.9</ele>
        <time>2017-06-04T08:43:10.000Z</time>
      </trkpt>
      <trkpt lat="42.73542" lon="0.63765">
        <ele>1492.3</ele>
        <time>2017-06-04T08:43:12.000Z</time>
      </trkpt>
      <trkpt lat="42.73544" lon="0.63766">
        <ele>1492.7</ele>
        <time>2017-06-04T08:43:14.000Z</time>
      </trkpt>
      <trkpt lat="42.73545" lon="0.63767">
        <ele>1492.9</ele>
        <time>2017-06-04T08:43:15.000Z</time>
      </trkpt>
      <trkpt lat="42.73549" lon="0.63769">
        <ele>1493.4</ele>
        <time>2017-06-04T08:43:19.000Z</time>
      </trkpt>
      <trkpt lat="42.7355" lon="0.6377">
        <ele>1493.5</ele>
        <time>2017-06-04T08:43:21.000Z</time>
      </trkpt>
      <trkpt lat="42.73553" lon="0.63771">
        <ele>1493.8</ele>
        <time>2017-06-04T08:43:24.000Z</time>
      </trkpt>
      <trkpt lat="42.73555" lon="0.63772">
        <ele>1494.1</ele>
        <time>2017-06-04T08:43:27.000Z</time>
      </trkpt>
      <trkpt lat="42.73557" lon="0.63773">
        <ele>1494.3</ele>
        <time>2017-06-04T08:43:29.000Z</time>
      </trkpt>
      <trkpt lat="42.73559" lon="0.63774">
        <ele>1494.5</ele>
        <time>2017-06-04T08:43:31.000Z</time>
      </trkpt>
      <trkpt lat="42.73562" lon="0.63778">
        <ele>1495</ele>
        <time>2017-06-04T08:43:35.000Z</time>
      </trkpt>
      <trkpt lat="42.73564" lon="0.6378">
        <ele>1495.3</ele>
        <time>2017-06-04T08:43:37.000Z</time>
      </trkpt>
      <trkpt lat="42.73566" lon="0.63781">
        <ele>1495.7</ele>
        <time>2017-06-04T08:43:39.000Z</time>
      </trkpt>
      <trkpt lat="42.73588" lon="0.63806">
        <ele>1498.9</ele>
        <time>2017-06-04T08:44:05.000Z</time>
      </trkpt>
      <trkpt lat="42.73589" lon="0.63808">
        <ele>1499.3</ele>
        <time>2017-06-04T08:44:07.000Z</time>
      </trkpt>
      <trkpt lat="42.73591" lon="0.6381">
        <ele>1499.7</ele>
        <time>2017-06-04T08:44:09.000Z</time>
      </trkpt>
      <trkpt lat="42.73604" lon="0.63829">
        <ele>1502.5</ele>
        <time>2017-06-04T08:44:28.000Z</time>
      </trkpt>
      <trkpt lat="42.73606" lon="0.63835">
        <ele>1503.3</ele>
        <time>2017-06-04T08:44:32.000Z</time>
      </trkpt>
      <trkpt lat="42.73607" lon="0.63837">
        <ele>1503.7</ele>
        <time>2017-06-04T08:44:34.000Z</time>
      </trkpt>
      <trkpt lat="42.73611" lon="0.63846">
        <ele>1504.5</ele>
        <time>2017-06-04T08:44:41.000Z</time>
      </trkpt>
      <trkpt lat="42.73612" lon="0.63848">
        <ele>1504.7</ele>
        <time>2017-06-04T08:44:43.000Z</time>
      </trkpt>
      <trkpt lat="42.73616" lon="0.63858">
        <ele>1505.6</ele>
        <time>2017-06-04T08:44:52.000Z</time>
      </trkpt>
      <trkpt lat="42.73617" lon="0.6387">
        <ele>1506.4</ele>
        <time>2017-06-04T08:45:00.000Z</time>
      </trkpt>
      <trkpt lat="42.73618" lon="0.63874">
        <ele>1506.7</ele>
        <time>2017-06-04T08:45:02.000Z</time>
      </trkpt>
      <trkpt lat="42.73618" lon="0.63877">
        <ele>1506.9</ele>
        <time>2017-06-04T08:45:04.000Z</time>
      </trkpt>
      <trkpt lat="42.73619" lon="0.6388">
        <ele>1507.1</ele>
        <time>2017-06-04T08:45:06.000Z</time>
      </trkpt>
      <trkpt lat="42.73619" lon="0.63886">
        <ele>1507.9</ele>
        <time>2017-06-04T08:45:10.000Z</time>
      </trkpt>
      <trkpt lat="42.73619" lon="0.63888">
        <ele>1508.3</ele>
        <time>2017-06-04T08:45:12.000Z</time>
      </trkpt>
      <trkpt lat="42.73619" lon="0.63891">
        <ele>1508.9</ele>
        <time>2017-06-04T08:45:15.000Z</time>
      </trkpt>
      <trkpt lat="42.73619" lon="0.63898">
        <ele>1509.4</ele>
        <time>2017-06-04T08:45:20.000Z</time>
      </trkpt>
      <trkpt lat="42.73622" lon="0.63905">
        <ele>1510.1</ele>
        <time>2017-06-04T08:45:26.000Z</time>
      </trkpt>
      <trkpt lat="42.73625" lon="0.63913">
        <ele>1510.7</ele>
        <time>2017-06-04T08:45:32.000Z</time>
      </trkpt>
      <trkpt lat="42.73626" lon="0.63918">
        <ele>1511.1</ele>
        <time>2017-06-04T08:45:36.000Z</time>
      </trkpt>
      <trkpt lat="42.73626" lon="0.63921">
        <ele>1511.5</ele>
        <time>2017-06-04T08:45:38.000Z</time>
      </trkpt>
      <trkpt lat="42.73628" lon="0.63926">
        <ele>1512.3</ele>
        <time>2017-06-04T08:45:42.000Z</time>
      </trkpt>
      <trkpt lat="42.73629" lon="0.63929">
        <ele>1512.6</ele>
        <time>2017-06-04T08:45:44.000Z</time>
      </trkpt>
      <trkpt lat="42.73634" lon="0.63944">
        <ele>1514.9</ele>
        <time>2017-06-04T08:45:55.000Z</time>
      </trkpt>
      <trkpt lat="42.73636" lon="0.63955">
        <ele>1516.5</ele>
        <time>2017-06-04T08:46:03.000Z</time>
      </trkpt>
      <trkpt lat="42.73638" lon="0.6398">
        <ele>1518.9</ele>
        <time>2017-06-04T08:46:20.000Z</time>
      </trkpt>
      <trkpt lat="42.73637" lon="0.63995">
        <ele>1520.5</ele>
        <time>2017-06-04T08:46:30.000Z</time>
      </trkpt>
      <trkpt lat="42.73636" lon="0.63998">
        <ele>1520.7</ele>
        <time>2017-06-04T08:46:32.000Z</time>
      </trkpt>
      <trkpt lat="42.73635" lon="0.64001">
        <ele>1520.9</ele>
        <time>2017-06-04T08:46:34.000Z</time>
      </trkpt>
      <trkpt lat="42.73636" lon="0.6401">
        <ele>1521.5</ele>
        <time>2017-06-04T08:46:40.000Z</time>
      </trkpt>
      <trkpt lat="42.73638" lon="0.64017">
        <ele>1521.9</ele>
        <time>2017-06-04T08:46:45.000Z</time>
      </trkpt>
      <trkpt lat="42.73641" lon="0.64025">
        <ele>1522.5</ele>
        <time>2017-06-04T08:46:51.000Z</time>
      </trkpt>
      <trkpt lat="42.73642" lon="0.64027">
        <ele>1522.7</ele>
        <time>2017-06-04T08:46:53.000Z</time>
      </trkpt>
      <trkpt lat="42.73648" lon="0.64059">
        <ele>1524.9</ele>
        <time>2017-06-04T08:47:15.000Z</time>
      </trkpt>
      <trkpt lat="42.7365" lon="0.64064">
        <ele>1525.3</ele>
        <time>2017-06-04T08:47:19.000Z</time>
      </trkpt>
      <trkpt lat="42.73652" lon="0.64076">
        <ele>1526.3</ele>
        <time>2017-06-04T08:47:27.000Z</time>
      </trkpt>
      <trkpt lat="42.73653" lon="0.64079">
        <ele>1526.7</ele>
        <time>2017-06-04T08:47:29.000Z</time>
      </trkpt>
      <trkpt lat="42.73653" lon="0.64082">
        <ele>1527.3</ele>
        <time>2017-06-04T08:47:32.000Z</time>
      </trkpt>
      <trkpt lat="42.73655" lon="0.64092">
        <ele>1528.7</ele>
        <time>2017-06-04T08:47:39.000Z</time>
      </trkpt>
      <trkpt lat="42.73655" lon="0.64095">
        <ele>1529.1</ele>
        <time>2017-06-04T08:47:41.000Z</time>
      </trkpt>
      <trkpt lat="42.73656" lon="0.64102">
        <ele>1529.9</ele>
        <time>2017-06-04T08:47:45.000Z</time>
      </trkpt>
      <trkpt lat="42.73656" lon="0.64106">
        <ele>1530.1</ele>
        <time>2017-06-04T08:47:47.000Z</time>
      </trkpt>
      <trkpt lat="42.73657" lon="0.64116">
        <ele>1530.9</ele>
        <time>2017-06-04T08:47:55.000Z</time>
      </trkpt>
      <trkpt lat="42.73655" lon="0.64143">
        <ele>1532</ele>
        <time>2017-06-04T08:48:13.000Z</time>
      </trkpt>
      <trkpt lat="42.73652" lon="0.64156">
        <ele>1534.5</ele>
        <time>2017-06-04T08:48:21.000Z</time>
      </trkpt>
      <trkpt lat="42.73651" lon="0.6417">
        <ele>1536.1</ele>
        <time>2017-06-04T08:48:31.000Z</time>
      </trkpt>
      <trkpt lat="42.73652" lon="0.64173">
        <ele>1536.5</ele>
        <time>2017-06-04T08:48:33.000Z</time>
      </trkpt>
      <trkpt lat="42.73651" lon="0.64194">
        <ele>1538.1</ele>
        <time>2017-06-04T08:48:47.000Z</time>
      </trkpt>
      <trkpt lat="42.73651" lon="0.64197">
        <ele>1538.3</ele>
        <time>2017-06-04T08:48:49.000Z</time>
      </trkpt>
      <trkpt lat="42.73651" lon="0.64205">
        <ele>1538.9</ele>
        <time>2017-06-04T08:48:55.000Z</time>
      </trkpt>
      <trkpt lat="42.73651" lon="0.64207">
        <ele>1539.2</ele>
        <time>2017-06-04T08:48:57.000Z</time>
      </trkpt>
      <trkpt lat="42.73651" lon="0.6421">
        <ele>1539.7</ele>
        <time>2017-06-04T08:48:59.000Z</time>
      </trkpt>
      <trkpt lat="42.73649" lon="0.64217">
        <ele>1540.7</ele>
        <time>2017-06-04T08:49:04.000Z</time>
      </trkpt>
      <trkpt lat="42.73649" lon="0.64223">
        <ele>1541</ele>
        <time>2017-06-04T08:49:08.000Z</time>
      </trkpt>
      <trkpt lat="42.73648" lon="0.64226">
        <ele>1541</ele>
        <time>2017-06-04T08:49:10.000Z</time>
      </trkpt>
      <trkpt lat="42.73645" lon="0.64238">
        <ele>1541.5</ele>
        <time>2017-06-04T08:49:18.000Z</time>
      </trkpt>
      <trkpt lat="42.73644" lon="0.64241">
        <ele>1541.9</ele>
        <time>2017-06-04T08:49:20.000Z</time>
      </trkpt>
      <trkpt lat="42.73645" lon="0.64246">
        <ele>1542.7</ele>
        <time>2017-06-04T08:49:24.000Z</time>
      </trkpt>
      <trkpt lat="42.73644" lon="0.64269">
        <ele>1545.3</ele>
        <time>2017-06-04T08:49:39.000Z</time>
      </trkpt>
      <trkpt lat="42.73643" lon="0.64304">
        <ele>1548.5</ele>
        <time>2017-06-04T08:50:03.000Z</time>
      </trkpt>
      <trkpt lat="42.73643" lon="0.64311">
        <ele>1549.2</ele>
        <time>2017-06-04T08:50:08.000Z</time>
      </trkpt>
      <trkpt lat="42.73644" lon="0.64317">
        <ele>1549.7</ele>
        <time>2017-06-04T08:50:12.000Z</time>
      </trkpt>
      <trkpt lat="42.73646" lon="0.64328">
        <ele>1550.9</ele>
        <time>2017-06-04T08:50:20.000Z</time>
      </trkpt>
      <trkpt lat="42.7365" lon="0.64345">
        <ele>1552.6</ele>
        <time>2017-06-04T08:50:32.000Z</time>
      </trkpt>
      <trkpt lat="42.73651" lon="0.64348">
        <ele>1552.8</ele>
        <time>2017-06-04T08:50:34.000Z</time>
      </trkpt>
      <trkpt lat="42.73655" lon="0.64371">
        <ele>1554.9</ele>
        <time>2017-06-04T08:50:50.000Z</time>
      </trkpt>
      <trkpt lat="42.73656" lon="0.64373">
        <ele>1555.3</ele>
        <time>2017-06-04T08:50:52.000Z</time>
      </trkpt>
      <trkpt lat="42.73657" lon="0.6438">
        <ele>1556.2</ele>
        <time>2017-06-04T08:50:57.000Z</time>
      </trkpt>
      <trkpt lat="42.73658" lon="0.64383">
        <ele>1556.4</ele>
        <time>2017-06-04T08:50:59.000Z</time>
      </trkpt>
      <trkpt lat="42.7366" lon="0.6439">
        <ele>1557</ele>
        <time>2017-06-04T08:51:05.000Z</time>
      </trkpt>
      <trkpt lat="42.7366" lon="0.64393">
        <ele>1557</ele>
        <time>2017-06-04T08:51:07.000Z</time>
      </trkpt>
      <trkpt lat="42.73661" lon="0.64396">
        <ele>1557</ele>
        <time>2017-06-04T08:51:09.000Z</time>
      </trkpt>
      <trkpt lat="42.73662" lon="0.64416">
        <ele>1558.5</ele>
        <time>2017-06-04T08:51:23.000Z</time>
      </trkpt>
      <trkpt lat="42.73663" lon="0.64419">
        <ele>1558.9</ele>
        <time>2017-06-04T08:51:25.000Z</time>
      </trkpt>
      <trkpt lat="42.73665" lon="0.64435">
        <ele>1560.3</ele>
        <time>2017-06-04T08:51:37.000Z</time>
      </trkpt>
      <trkpt lat="42.73668" lon="0.64449">
        <ele>1562.2</ele>
        <time>2017-06-04T08:51:48.000Z</time>
      </trkpt>
      <trkpt lat="42.7367" lon="0.64457">
        <ele>1562.9</ele>
        <time>2017-06-04T08:51:54.000Z</time>
      </trkpt>
      <trkpt lat="42.73671" lon="0.6446">
        <ele>1563.3</ele>
        <time>2017-06-04T08:51:57.000Z</time>
      </trkpt>
      <trkpt lat="42.73672" lon="0.64463">
        <ele>1563.9</ele>
        <time>2017-06-04T08:52:00.000Z</time>
      </trkpt>
      <trkpt lat="42.73674" lon="0.64474">
        <ele>1565.2</ele>
        <time>2017-06-04T08:52:08.000Z</time>
      </trkpt>
      <trkpt lat="42.73675" lon="0.64477">
        <ele>1565.4</ele>
        <time>2017-06-04T08:52:10.000Z</time>
      </trkpt>
      <trkpt lat="42.73675" lon="0.64483">
        <ele>1565.8</ele>
        <time>2017-06-04T08:52:14.000Z</time>
      </trkpt>
      <trkpt lat="42.73675" lon="0.64486">
        <ele>1566.1</ele>
        <time>2017-06-04T08:52:16.000Z</time>
      </trkpt>
      <trkpt lat="42.73675" lon="0.64489">
        <ele>1566.5</ele>
        <time>2017-06-04T08:52:18.000Z</time>
      </trkpt>
      <trkpt lat="42.73675" lon="0.64495">
        <ele>1567.3</ele>
        <time>2017-06-04T08:52:22.000Z</time>
      </trkpt>
      <trkpt lat="42.73677" lon="0.64504">
        <ele>1568.2</ele>
        <time>2017-06-04T08:52:28.000Z</time>
      </trkpt>
      <trkpt lat="42.73679" lon="0.6451">
        <ele>1568.6</ele>
        <time>2017-06-04T08:52:32.000Z</time>
      </trkpt>
      <trkpt lat="42.73681" lon="0.64518">
        <ele>1569</ele>
        <time>2017-06-04T08:52:38.000Z</time>
      </trkpt>
      <trkpt lat="42.73682" lon="0.64521">
        <ele>1569</ele>
        <time>2017-06-04T08:52:40.000Z</time>
      </trkpt>
      <trkpt lat="42.73685" lon="0.64529">
        <ele>1569.3</ele>
        <time>2017-06-04T08:52:47.000Z</time>
      </trkpt>
      <trkpt lat="42.73686" lon="0.64531">
        <ele>1569.7</ele>
        <time>2017-06-04T08:52:49.000Z</time>
      </trkpt>
      <trkpt lat="42.73686" lon="0.64533">
        <ele>1569.9</ele>
        <time>2017-06-04T08:52:50.000Z</time>
      </trkpt>
      <trkpt lat="42.73688" lon="0.64535">
        <ele>1570.3</ele>
        <time>2017-06-04T08:52:52.000Z</time>
      </trkpt>
      <trkpt lat="42.73689" lon="0.6454">
        <ele>1571.3</ele>
        <time>2017-06-04T08:52:57.000Z</time>
      </trkpt>
      <trkpt lat="42.7369" lon="0.64542">
        <ele>1571.9</ele>
        <time>2017-06-04T08:53:00.000Z</time>
      </trkpt>
      <trkpt lat="42.73692" lon="0.64544">
        <ele>1572.3</ele>
        <time>2017-06-04T08:53:02.000Z</time>
      </trkpt>
      <trkpt lat="42.73699" lon="0.64552">
        <ele>1573.6</ele>
        <time>2017-06-04T08:53:12.000Z</time>
      </trkpt>
      <trkpt lat="42.73701" lon="0.64555">
        <ele>1573.8</ele>
        <time>2017-06-04T08:53:14.000Z</time>
      </trkpt>
      <trkpt lat="42.73709" lon="0.64564">
        <ele>1575.3</ele>
        <time>2017-06-04T08:53:22.000Z</time>
      </trkpt>
      <trkpt lat="42.73711" lon="0.64567">
        <ele>1575.7</ele>
        <time>2017-06-04T08:53:24.000Z</time>
      </trkpt>
      <trkpt lat="42.73713" lon="0.6457">
        <ele>1576.1</ele>
        <time>2017-06-04T08:53:27.000Z</time>
      </trkpt>
      <trkpt lat="42.73717" lon="0.64574">
        <ele>1576.5</ele>
        <time>2017-06-04T08:53:31.000Z</time>
      </trkpt>
      <trkpt lat="42.73719" lon="0.64575">
        <ele>1576.8</ele>
        <time>2017-06-04T08:53:34.000Z</time>
      </trkpt>
      <trkpt lat="42.7372" lon="0.64575">
        <ele>1577.1</ele>
        <time>2017-06-04T08:53:36.000Z</time>
      </trkpt>
      <trkpt lat="42.73723" lon="0.64576">
        <ele>1577.7</ele>
        <time>2017-06-04T08:53:39.000Z</time>
      </trkpt>
      <trkpt lat="42.73729" lon="0.64575">
        <ele>1579</ele>
        <time>2017-06-04T08:53:46.000Z</time>
      </trkpt>
      <trkpt lat="42.73731" lon="0.64574">
        <ele>1579</ele>
        <time>2017-06-04T08:53:49.000Z</time>
      </trkpt>
      <trkpt lat="42.73734" lon="0.64572">
        <ele>1579</ele>
        <time>2017-06-04T08:53:52.000Z</time>
      </trkpt>
      <trkpt lat="42.7374" lon="0.64573">
        <ele>1579.3</ele>
        <time>2017-06-04T08:53:59.000Z</time>
      </trkpt>
      <trkpt lat="42.73742" lon="0.64573">
        <ele>1579.5</ele>
        <time>2017-06-04T08:54:01.000Z</time>
      </trkpt>
      <trkpt lat="42.73745" lon="0.64573">
        <ele>1579.8</ele>
        <time>2017-06-04T08:54:03.000Z</time>
      </trkpt>
      <trkpt lat="42.73749" lon="0.64574">
        <ele>1580.3</ele>
        <time>2017-06-04T08:54:08.000Z</time>
      </trkpt>
      <trkpt lat="42.73751" lon="0.64575">
        <ele>1580.4</ele>
        <time>2017-06-04T08:54:10.000Z</time>
      </trkpt>
      <trkpt lat="42.73753" lon="0.64575">
        <ele>1580.6</ele>
        <time>2017-06-04T08:54:12.000Z</time>
      </trkpt>
      <trkpt lat="42.73757" lon="0.64575">
        <ele>1581.1</ele>
        <time>2017-06-04T08:54:16.000Z</time>
      </trkpt>
      <trkpt lat="42.7376" lon="0.64575">
        <ele>1581.5</ele>
        <time>2017-06-04T08:54:18.000Z</time>
      </trkpt>
      <trkpt lat="42.73762" lon="0.64576">
        <ele>1582.1</ele>
        <time>2017-06-04T08:54:21.000Z</time>
      </trkpt>
      <trkpt lat="42.73765" lon="0.64576">
        <ele>1582.5</ele>
        <time>2017-06-04T08:54:23.000Z</time>
      </trkpt>
      <trkpt lat="42.73767" lon="0.64577">
        <ele>1582.9</ele>
        <time>2017-06-04T08:54:25.000Z</time>
      </trkpt>
      <trkpt lat="42.73769" lon="0.64578">
        <ele>1583.2</ele>
        <time>2017-06-04T08:54:27.000Z</time>
      </trkpt>
      <trkpt lat="42.73771" lon="0.64579">
        <ele>1583.4</ele>
        <time>2017-06-04T08:54:29.000Z</time>
      </trkpt>
      <trkpt lat="42.73777" lon="0.6458">
        <ele>1584</ele>
        <time>2017-06-04T08:54:35.000Z</time>
      </trkpt>
      <trkpt lat="42.73781" lon="0.64583">
        <ele>1584.4</ele>
        <time>2017-06-04T08:54:40.000Z</time>
      </trkpt>
      <trkpt lat="42.73784" lon="0.64584">
        <ele>1584.6</ele>
        <time>2017-06-04T08:54:42.000Z</time>
      </trkpt>
      <trkpt lat="42.73792" lon="0.6459">
        <ele>1585.9</ele>
        <time>2017-06-04T08:54:50.000Z</time>
      </trkpt>
      <trkpt lat="42.73794" lon="0.64591">
        <ele>1586.3</ele>
        <time>2017-06-04T08:54:52.000Z</time>
      </trkpt>
      <trkpt lat="42.738" lon="0.646">
        <ele>1587.7</ele>
        <time>2017-06-04T08:54:59.000Z</time>
      </trkpt>
      <trkpt lat="42.73802" lon="0.64602">
        <ele>1588.3</ele>
        <time>2017-06-04T08:55:02.000Z</time>
      </trkpt>
      <trkpt lat="42.73805" lon="0.64606">
        <ele>1589</ele>
        <time>2017-06-04T08:55:06.000Z</time>
      </trkpt>
      <trkpt lat="42.73813" lon="0.64611">
        <ele>1589.8</ele>
        <time>2017-06-04T08:55:14.000Z</time>
      </trkpt>
      <trkpt lat="42.7382" lon="0.64619">
        <ele>1590</ele>
        <time>2017-06-04T08:55:22.000Z</time>
      </trkpt>
      <trkpt lat="42.73822" lon="0.64621">
        <ele>1590</ele>
        <time>2017-06-04T08:55:24.000Z</time>
      </trkpt>
      <trkpt lat="42.73824" lon="0.64623">
        <ele>1590</ele>
        <time>2017-06-04T08:55:26.000Z</time>
      </trkpt>
      <trkpt lat="42.73826" lon="0.64626">
        <ele>1590.2</ele>
        <time>2017-06-04T08:55:28.000Z</time>
      </trkpt>
      <trkpt lat="42.73831" lon="0.64633">
        <ele>1591.1</ele>
        <time>2017-06-04T08:55:36.000Z</time>
      </trkpt>
      <trkpt lat="42.73832" lon="0.64636">
        <ele>1591.5</ele>
        <time>2017-06-04T08:55:38.000Z</time>
      </trkpt>
      <trkpt lat="42.73835" lon="0.6464">
        <ele>1592.3</ele>
        <time>2017-06-04T08:55:42.000Z</time>
      </trkpt>
      <trkpt lat="42.73838" lon="0.64643">
        <ele>1592.9</ele>
        <time>2017-06-04T08:55:45.000Z</time>
      </trkpt>
      <trkpt lat="42.73858" lon="0.64668">
        <ele>1594</ele>
        <time>2017-06-04T08:56:07.000Z</time>
      </trkpt>
      <trkpt lat="42.73866" lon="0.64685">
        <ele>1594.9</ele>
        <time>2017-06-04T08:56:20.000Z</time>
      </trkpt>
      <trkpt lat="42.73866" lon="0.64688">
        <ele>1596</ele>
        <time>2017-06-04T08:56:32.000Z</time>
      </trkpt>
      <trkpt lat="42.73867" lon="0.64691">
        <ele>1596</ele>
        <time>2017-06-04T08:56:35.000Z</time>
      </trkpt>
      <trkpt lat="42.73867" lon="0.647">
        <ele>1596</ele>
        <time>2017-06-04T08:56:42.000Z</time>
      </trkpt>
      <trkpt lat="42.73865" lon="0.64717">
        <ele>1596</ele>
        <time>2017-06-04T08:56:55.000Z</time>
      </trkpt>
      <trkpt lat="42.73865" lon="0.64719">
        <ele>1596.4</ele>
        <time>2017-06-04T08:56:59.000Z</time>
      </trkpt>
      <trkpt lat="42.73867" lon="0.6472">
        <ele>1596.9</ele>
        <time>2017-06-04T08:57:07.000Z</time>
      </trkpt>
      <trkpt lat="42.73867" lon="0.64723">
        <ele>1596.6</ele>
        <time>2017-06-04T08:57:10.000Z</time>
      </trkpt>
      <trkpt lat="42.73868" lon="0.64724">
        <ele>1594</ele>
        <time>2017-06-04T08:57:37.000Z</time>
      </trkpt>
      <trkpt lat="42.73868" lon="0.64723">
        <ele>1594</ele>
        <time>2017-06-04T08:57:42.000Z</time>
      </trkpt>
      <trkpt lat="42.73864" lon="0.64727">
        <ele>1594</ele>
        <time>2017-06-04T08:59:47.000Z</time>
      </trkpt>
      <trkpt lat="42.73863" lon="0.64727">
        <ele>1594</ele>
        <time>2017-06-04T08:59:52.000Z</time>
      </trkpt>
      <trkpt lat="42.73861" lon="0.64719">
        <ele>1598</ele>
        <time>2017-06-04T09:03:07.000Z</time>
      </trkpt>
      <trkpt lat="42.73861" lon="0.6472">
        <ele>1598</ele>
        <time>2017-06-04T09:03:47.000Z</time>
      </trkpt>
      <trkpt lat="42.73865" lon="0.64727">
        <ele>1596</ele>
        <time>2017-06-04T09:05:17.000Z</time>
      </trkpt>
      <trkpt lat="42.73865" lon="0.64728">
        <ele>1595.7</ele>
        <time>2017-06-04T09:05:19.000Z</time>
      </trkpt>
      <trkpt lat="42.73866" lon="0.64731">
        <ele>1595.5</ele>
        <time>2017-06-04T09:05:21.000Z</time>
      </trkpt>
      <trkpt lat="42.73865" lon="0.64739">
        <ele>1594.7</ele>
        <time>2017-06-04T09:05:29.000Z</time>
      </trkpt>
      <trkpt lat="42.73864" lon="0.64741">
        <ele>1594.4</ele>
        <time>2017-06-04T09:05:32.000Z</time>
      </trkpt>
      <trkpt lat="42.73863" lon="0.64743">
        <ele>1594.2</ele>
        <time>2017-06-04T09:05:34.000Z</time>
      </trkpt>
      <trkpt lat="42.73862" lon="0.64745">
        <ele>1593.7</ele>
        <time>2017-06-04T09:05:39.000Z</time>
      </trkpt>
      <trkpt lat="42.73861" lon="0.64748">
        <ele>1593.5</ele>
        <time>2017-06-04T09:05:41.000Z</time>
      </trkpt>
      <trkpt lat="42.73859" lon="0.64751">
        <ele>1593.3</ele>
        <time>2017-06-04T09:05:43.000Z</time>
      </trkpt>
      <trkpt lat="42.7385" lon="0.64762">
        <ele>1593.5</ele>
        <time>2017-06-04T09:05:51.000Z</time>
      </trkpt>
      <trkpt lat="42.73848" lon="0.64764">
        <ele>1593.8</ele>
        <time>2017-06-04T09:05:54.000Z</time>
      </trkpt>
      <trkpt lat="42.73848" lon="0.6477">
        <ele>1593.7</ele>
        <time>2017-06-04T09:05:59.000Z</time>
      </trkpt>
      <trkpt lat="42.73847" lon="0.64772">
        <ele>1593.5</ele>
        <time>2017-06-04T09:06:01.000Z</time>
      </trkpt>
      <trkpt lat="42.73842" lon="0.64777">
        <ele>1593.1</ele>
        <time>2017-06-04T09:06:05.000Z</time>
      </trkpt>
      <trkpt lat="42.7384" lon="0.64779">
        <ele>1593.1</ele>
        <time>2017-06-04T09:06:07.000Z</time>
      </trkpt>
      <trkpt lat="42.73839" lon="0.64781">
        <ele>1593.3</ele>
        <time>2017-06-04T09:06:09.000Z</time>
      </trkpt>
      <trkpt lat="42.73838" lon="0.64786">
        <ele>1593.7</ele>
        <time>2017-06-04T09:06:13.000Z</time>
      </trkpt>
      <trkpt lat="42.73836" lon="0.64789">
        <ele>1593.9</ele>
        <time>2017-06-04T09:06:15.000Z</time>
      </trkpt>
      <trkpt lat="42.73835" lon="0.6479">
        <ele>1594</ele>
        <time>2017-06-04T09:06:17.000Z</time>
      </trkpt>
      <trkpt lat="42.73833" lon="0.64793">
        <ele>1594</ele>
        <time>2017-06-04T09:06:20.000Z</time>
      </trkpt>
      <trkpt lat="42.73832" lon="0.64801">
        <ele>1593.9</ele>
        <time>2017-06-04T09:06:27.000Z</time>
      </trkpt>
      <trkpt lat="42.73831" lon="0.64805">
        <ele>1593.6</ele>
        <time>2017-06-04T09:06:30.000Z</time>
      </trkpt>
      <trkpt lat="42.73829" lon="0.64812">
        <ele>1593</ele>
        <time>2017-06-04T09:06:36.000Z</time>
      </trkpt>
      <trkpt lat="42.73828" lon="0.64815">
        <ele>1593</ele>
        <time>2017-06-04T09:06:38.000Z</time>
      </trkpt>
      <trkpt lat="42.73827" lon="0.64818">
        <ele>1593</ele>
        <time>2017-06-04T09:06:41.000Z</time>
      </trkpt>
      <trkpt lat="42.73826" lon="0.64821">
        <ele>1593</ele>
        <time>2017-06-04T09:06:44.000Z</time>
      </trkpt>
      <trkpt lat="42.73825" lon="0.64824">
        <ele>1593.1</ele>
        <time>2017-06-04T09:06:47.000Z</time>
      </trkpt>
      <trkpt lat="42.73824" lon="0.64828">
        <ele>1593.5</ele>
        <time>2017-06-04T09:06:50.000Z</time>
      </trkpt>
      <trkpt lat="42.73823" lon="0.64834">
        <ele>1593.9</ele>
        <time>2017-06-04T09:06:54.000Z</time>
      </trkpt>
      <trkpt lat="42.73824" lon="0.64852">
        <ele>1594</ele>
        <time>2017-06-04T09:07:08.000Z</time>
      </trkpt>
      <trkpt lat="42.73824" lon="0.64855">
        <ele>1594</ele>
        <time>2017-06-04T09:07:10.000Z</time>
      </trkpt>
      <trkpt lat="42.7382" lon="0.64861">
        <ele>1593.9</ele>
        <time>2017-06-04T09:07:16.000Z</time>
      </trkpt>
      <trkpt lat="42.73817" lon="0.64863">
        <ele>1593.7</ele>
        <time>2017-06-04T09:07:18.000Z</time>
      </trkpt>
      <trkpt lat="42.73816" lon="0.64868">
        <ele>1593.4</ele>
        <time>2017-06-04T09:07:22.000Z</time>
      </trkpt>
      <trkpt lat="42.73815" lon="0.64871">
        <ele>1593.2</ele>
        <time>2017-06-04T09:07:24.000Z</time>
      </trkpt>
      <trkpt lat="42.73814" lon="0.64874">
        <ele>1593</ele>
        <time>2017-06-04T09:07:26.000Z</time>
      </trkpt>
      <trkpt lat="42.73812" lon="0.64879">
        <ele>1593</ele>
        <time>2017-06-04T09:07:30.000Z</time>
      </trkpt>
      <trkpt lat="42.73811" lon="0.64882">
        <ele>1593</ele>
        <time>2017-06-04T09:07:32.000Z</time>
      </trkpt>
      <trkpt lat="42.7381" lon="0.64884">
        <ele>1593</ele>
        <time>2017-06-04T09:07:34.000Z</time>
      </trkpt>
      <trkpt lat="42.7381" lon="0.64887">
        <ele>1593</ele>
        <time>2017-06-04T09:07:37.000Z</time>
      </trkpt>
      <trkpt lat="42.73809" lon="0.6489">
        <ele>1593</ele>
        <time>2017-06-04T09:07:39.000Z</time>
      </trkpt>
      <trkpt lat="42.73807" lon="0.64896">
        <ele>1593</ele>
        <time>2017-06-04T09:07:43.000Z</time>
      </trkpt>
      <trkpt lat="42.73803" lon="0.64904">
        <ele>1593.4</ele>
        <time>2017-06-04T09:07:49.000Z</time>
      </trkpt>
      <trkpt lat="42.73802" lon="0.64907">
        <ele>1593.5</ele>
        <time>2017-06-04T09:07:51.000Z</time>
      </trkpt>
      <trkpt lat="42.738" lon="0.64919">
        <ele>1594</ele>
        <time>2017-06-04T09:08:00.000Z</time>
      </trkpt>
      <trkpt lat="42.73798" lon="0.64922">
        <ele>1594</ele>
        <time>2017-06-04T09:08:02.000Z</time>
      </trkpt>
      <trkpt lat="42.73794" lon="0.64935">
        <ele>1593.3</ele>
        <time>2017-06-04T09:08:12.000Z</time>
      </trkpt>
      <trkpt lat="42.73793" lon="0.64938">
        <ele>1593.1</ele>
        <time>2017-06-04T09:08:14.000Z</time>
      </trkpt>
      <trkpt lat="42.73792" lon="0.64941">
        <ele>1593.1</ele>
        <time>2017-06-04T09:08:16.000Z</time>
      </trkpt>
      <trkpt lat="42.73787" lon="0.64962">
        <ele>1594</ele>
        <time>2017-06-04T09:08:30.000Z</time>
      </trkpt>
      <trkpt lat="42.73786" lon="0.64964">
        <ele>1594</ele>
        <time>2017-06-04T09:08:32.000Z</time>
      </trkpt>
      <trkpt lat="42.73785" lon="0.64971">
        <ele>1594</ele>
        <time>2017-06-04T09:08:36.000Z</time>
      </trkpt>
      <trkpt lat="42.73783" lon="0.64977">
        <ele>1594</ele>
        <time>2017-06-04T09:08:40.000Z</time>
      </trkpt>
      <trkpt lat="42.73781" lon="0.64979">
        <ele>1594</ele>
        <time>2017-06-04T09:08:42.000Z</time>
      </trkpt>
      <trkpt lat="42.7378" lon="0.64985">
        <ele>1594</ele>
        <time>2017-06-04T09:08:46.000Z</time>
      </trkpt>
      <trkpt lat="42.7378" lon="0.64988">
        <ele>1594</ele>
        <time>2017-06-04T09:08:48.000Z</time>
      </trkpt>
      <trkpt lat="42.73779" lon="0.64991">
        <ele>1594</ele>
        <time>2017-06-04T09:08:50.000Z</time>
      </trkpt>
      <trkpt lat="42.73778" lon="0.64995">
        <ele>1594</ele>
        <time>2017-06-04T09:08:52.000Z</time>
      </trkpt>
      <trkpt lat="42.73773" lon="0.64999">
        <ele>1594</ele>
        <time>2017-06-04T09:08:55.000Z</time>
      </trkpt>
      <trkpt lat="42.73772" lon="0.65002">
        <ele>1594</ele>
        <time>2017-06-04T09:08:57.000Z</time>
      </trkpt>
      <trkpt lat="42.73771" lon="0.65005">
        <ele>1594</ele>
        <time>2017-06-04T09:09:00.000Z</time>
      </trkpt>
      <trkpt lat="42.73768" lon="0.65007">
        <ele>1594</ele>
        <time>2017-06-04T09:09:02.000Z</time>
      </trkpt>
      <trkpt lat="42.73766" lon="0.65009">
        <ele>1594</ele>
        <time>2017-06-04T09:09:04.000Z</time>
      </trkpt>
      <trkpt lat="42.73764" lon="0.65014">
        <ele>1594</ele>
        <time>2017-06-04T09:09:08.000Z</time>
      </trkpt>
      <trkpt lat="42.73764" lon="0.65017">
        <ele>1594</ele>
        <time>2017-06-04T09:09:10.000Z</time>
      </trkpt>
      <trkpt lat="42.73763" lon="0.65019">
        <ele>1594</ele>
        <time>2017-06-04T09:09:14.000Z</time>
      </trkpt>
      <trkpt lat="42.73761" lon="0.65022">
        <ele>1594</ele>
        <time>2017-06-04T09:09:18.000Z</time>
      </trkpt>
      <trkpt lat="42.73754" lon="0.65031">
        <ele>1594</ele>
        <time>2017-06-04T09:09:25.000Z</time>
      </trkpt>
      <trkpt lat="42.73746" lon="0.65036">
        <ele>1594</ele>
        <time>2017-06-04T09:09:38.000Z</time>
      </trkpt>
      <trkpt lat="42.73749" lon="0.65038">
        <ele>1594</ele>
        <time>2017-06-04T09:09:45.000Z</time>
      </trkpt>
      <trkpt lat="42.73749" lon="0.65043">
        <ele>1594.5</ele>
        <time>2017-06-04T09:09:51.000Z</time>
      </trkpt>
      <trkpt lat="42.73748" lon="0.65046">
        <ele>1594.8</ele>
        <time>2017-06-04T09:09:54.000Z</time>
      </trkpt>
      <trkpt lat="42.73749" lon="0.65049">
        <ele>1595.2</ele>
        <time>2017-06-04T09:09:58.000Z</time>
      </trkpt>
      <trkpt lat="42.73752" lon="0.6505">
        <ele>1595.5</ele>
        <time>2017-06-04T09:10:01.000Z</time>
      </trkpt>
      <trkpt lat="42.73757" lon="0.65051">
        <ele>1596.2</ele>
        <time>2017-06-04T09:10:08.000Z</time>
      </trkpt>
      <trkpt lat="42.73759" lon="0.65051">
        <ele>1596.4</ele>
        <time>2017-06-04T09:10:10.000Z</time>
      </trkpt>
      <trkpt lat="42.73761" lon="0.65053">
        <ele>1596.7</ele>
        <time>2017-06-04T09:10:13.000Z</time>
      </trkpt>
      <trkpt lat="42.73764" lon="0.65055">
        <ele>1597.1</ele>
        <time>2017-06-04T09:10:16.000Z</time>
      </trkpt>
      <trkpt lat="42.73767" lon="0.65057">
        <ele>1597.5</ele>
        <time>2017-06-04T09:10:20.000Z</time>
      </trkpt>
      <trkpt lat="42.73768" lon="0.65059">
        <ele>1597.6</ele>
        <time>2017-06-04T09:10:22.000Z</time>
      </trkpt>
      <trkpt lat="42.73771" lon="0.65064">
        <ele>1598.1</ele>
        <time>2017-06-04T09:10:27.000Z</time>
      </trkpt>
      <trkpt lat="42.73773" lon="0.65067">
        <ele>1598.5</ele>
        <time>2017-06-04T09:10:30.000Z</time>
      </trkpt>
      <trkpt lat="42.73775" lon="0.65068">
        <ele>1598.7</ele>
        <time>2017-06-04T09:10:32.000Z</time>
      </trkpt>
      <trkpt lat="42.73776" lon="0.65071">
        <ele>1599</ele>
        <time>2017-06-04T09:10:35.000Z</time>
      </trkpt>
      <trkpt lat="42.73778" lon="0.65071">
        <ele>1599.5</ele>
        <time>2017-06-04T09:10:38.000Z</time>
      </trkpt>
      <trkpt lat="42.7378" lon="0.65073">
        <ele>1600.1</ele>
        <time>2017-06-04T09:10:41.000Z</time>
      </trkpt>
      <trkpt lat="42.73783" lon="0.65076">
        <ele>1600.9</ele>
        <time>2017-06-04T09:10:45.000Z</time>
      </trkpt>
      <trkpt lat="42.73785" lon="0.65077">
        <ele>1601</ele>
        <time>2017-06-04T09:10:47.000Z</time>
      </trkpt>
      <trkpt lat="42.73787" lon="0.65078">
        <ele>1601</ele>
        <time>2017-06-04T09:10:49.000Z</time>
      </trkpt>
      <trkpt lat="42.73809" lon="0.65091">
        <ele>1603.5</ele>
        <time>2017-06-04T09:11:13.000Z</time>
      </trkpt>
      <trkpt lat="42.73811" lon="0.65092">
        <ele>1603.9</ele>
        <time>2017-06-04T09:11:15.000Z</time>
      </trkpt>
      <trkpt lat="42.73824" lon="0.65094">
        <ele>1604.1</ele>
        <time>2017-06-04T09:11:27.000Z</time>
      </trkpt>
      <trkpt lat="42.73838" lon="0.65103">
        <ele>1605.5</ele>
        <time>2017-06-04T09:11:41.000Z</time>
      </trkpt>
      <trkpt lat="42.7384" lon="0.65104">
        <ele>1605.7</ele>
        <time>2017-06-04T09:11:43.000Z</time>
      </trkpt>
      <trkpt lat="42.73843" lon="0.65104">
        <ele>1605.9</ele>
        <time>2017-06-04T09:11:45.000Z</time>
      </trkpt>
      <trkpt lat="42.73848" lon="0.65106">
        <ele>1606</ele>
        <time>2017-06-04T09:11:49.000Z</time>
      </trkpt>
      <trkpt lat="42.7385" lon="0.65107">
        <ele>1606</ele>
        <time>2017-06-04T09:11:51.000Z</time>
      </trkpt>
      <trkpt lat="42.73854" lon="0.6511">
        <ele>1606</ele>
        <time>2017-06-04T09:11:55.000Z</time>
      </trkpt>
      <trkpt lat="42.73856" lon="0.65112">
        <ele>1605.9</ele>
        <time>2017-06-04T09:11:57.000Z</time>
      </trkpt>
      <trkpt lat="42.73859" lon="0.65114">
        <ele>1605.5</ele>
        <time>2017-06-04T09:12:01.000Z</time>
      </trkpt>
      <trkpt lat="42.73862" lon="0.65115">
        <ele>1605.3</ele>
        <time>2017-06-04T09:12:03.000Z</time>
      </trkpt>
      <trkpt lat="42.73863" lon="0.65116">
        <ele>1605</ele>
        <time>2017-06-04T09:12:05.000Z</time>
      </trkpt>
      <trkpt lat="42.73865" lon="0.65115">
        <ele>1605.2</ele>
        <time>2017-06-04T09:12:07.000Z</time>
      </trkpt>
      <trkpt lat="42.73867" lon="0.65115">
        <ele>1605.3</ele>
        <time>2017-06-04T09:12:09.000Z</time>
      </trkpt>
      <trkpt lat="42.73871" lon="0.65113">
        <ele>1605.7</ele>
        <time>2017-06-04T09:12:13.000Z</time>
      </trkpt>
      <trkpt lat="42.73875" lon="0.65111">
        <ele>1606.1</ele>
        <time>2017-06-04T09:12:17.000Z</time>
      </trkpt>
      <trkpt lat="42.73877" lon="0.6511">
        <ele>1606.3</ele>
        <time>2017-06-04T09:12:19.000Z</time>
      </trkpt>
      <trkpt lat="42.7388" lon="0.65107">
        <ele>1606.8</ele>
        <time>2017-06-04T09:12:24.000Z</time>
      </trkpt>
      <trkpt lat="42.73882" lon="0.65106">
        <ele>1607.1</ele>
        <time>2017-06-04T09:12:26.000Z</time>
      </trkpt>
      <trkpt lat="42.73884" lon="0.65105">
        <ele>1607.5</ele>
        <time>2017-06-04T09:12:28.000Z</time>
      </trkpt>
      <trkpt lat="42.73886" lon="0.65104">
        <ele>1607.9</ele>
        <time>2017-06-04T09:12:30.000Z</time>
      </trkpt>
      <trkpt lat="42.73888" lon="0.65103">
        <ele>1608.3</ele>
        <time>2017-06-04T09:12:32.000Z</time>
      </trkpt>
      <trkpt lat="42.73891" lon="0.65104">
        <ele>1608.7</ele>
        <time>2017-06-04T09:12:34.000Z</time>
      </trkpt>
      <trkpt lat="42.73894" lon="0.65103">
        <ele>1609</ele>
        <time>2017-06-04T09:12:37.000Z</time>
      </trkpt>
      <trkpt lat="42.73896" lon="0.65102">
        <ele>1609</ele>
        <time>2017-06-04T09:12:39.000Z</time>
      </trkpt>
      <trkpt lat="42.73907" lon="0.65101">
        <ele>1609</ele>
        <time>2017-06-04T09:12:49.000Z</time>
      </trkpt>
      <trkpt lat="42.73912" lon="0.65102">
        <ele>1609</ele>
        <time>2017-06-04T09:12:53.000Z</time>
      </trkpt>
      <trkpt lat="42.73914" lon="0.65102">
        <ele>1609</ele>
        <time>2017-06-04T09:12:55.000Z</time>
      </trkpt>
      <trkpt lat="42.73921" lon="0.65102">
        <ele>1608.5</ele>
        <time>2017-06-04T09:13:01.000Z</time>
      </trkpt>
      <trkpt lat="42.73924" lon="0.65102">
        <ele>1608.3</ele>
        <time>2017-06-04T09:13:03.000Z</time>
      </trkpt>
      <trkpt lat="42.73926" lon="0.65101">
        <ele>1608.1</ele>
        <time>2017-06-04T09:13:05.000Z</time>
      </trkpt>
      <trkpt lat="42.73928" lon="0.65102">
        <ele>1608</ele>
        <time>2017-06-04T09:13:07.000Z</time>
      </trkpt>
      <trkpt lat="42.73931" lon="0.65101">
        <ele>1608</ele>
        <time>2017-06-04T09:13:09.000Z</time>
      </trkpt>
      <trkpt lat="42.73935" lon="0.65102">
        <ele>1608</ele>
        <time>2017-06-04T09:13:13.000Z</time>
      </trkpt>
      <trkpt lat="42.73938" lon="0.65101">
        <ele>1608</ele>
        <time>2017-06-04T09:13:15.000Z</time>
      </trkpt>
      <trkpt lat="42.7394" lon="0.65102">
        <ele>1608.1</ele>
        <time>2017-06-04T09:13:17.000Z</time>
      </trkpt>
      <trkpt lat="42.73942" lon="0.65103">
        <ele>1608.3</ele>
        <time>2017-06-04T09:13:19.000Z</time>
      </trkpt>
      <trkpt lat="42.73953" lon="0.65104">
        <ele>1609</ele>
        <time>2017-06-04T09:13:29.000Z</time>
      </trkpt>
      <trkpt lat="42.73955" lon="0.65104">
        <ele>1609</ele>
        <time>2017-06-04T09:13:31.000Z</time>
      </trkpt>
      <trkpt lat="42.73958" lon="0.65104">
        <ele>1609</ele>
        <time>2017-06-04T09:13:34.000Z</time>
      </trkpt>
      <trkpt lat="42.7396" lon="0.65103">
        <ele>1608.9</ele>
        <time>2017-06-04T09:13:37.000Z</time>
      </trkpt>
      <trkpt lat="42.73962" lon="0.65103">
        <ele>1608.6</ele>
        <time>2017-06-04T09:13:40.000Z</time>
      </trkpt>
      <trkpt lat="42.73965" lon="0.65102">
        <ele>1608.3</ele>
        <time>2017-06-04T09:13:43.000Z</time>
      </trkpt>
      <trkpt lat="42.73967" lon="0.65103">
        <ele>1608.1</ele>
        <time>2017-06-04T09:13:45.000Z</time>
      </trkpt>
      <trkpt lat="42.73969" lon="0.65103">
        <ele>1608.1</ele>
        <time>2017-06-04T09:13:47.000Z</time>
      </trkpt>
      <trkpt lat="42.73976" lon="0.65105">
        <ele>1608.8</ele>
        <time>2017-06-04T09:13:53.000Z</time>
      </trkpt>
      <trkpt lat="42.73978" lon="0.65105">
        <ele>1609</ele>
        <time>2017-06-04T09:13:55.000Z</time>
      </trkpt>
      <trkpt lat="42.73981" lon="0.65106">
        <ele>1609</ele>
        <time>2017-06-04T09:13:57.000Z</time>
      </trkpt>
      <trkpt lat="42.73982" lon="0.65105">
        <ele>1609</ele>
        <time>2017-06-04T09:14:02.000Z</time>
      </trkpt>
      <trkpt lat="42.73985" lon="0.65104">
        <ele>1609</ele>
        <time>2017-06-04T09:14:05.000Z</time>
      </trkpt>
      <trkpt lat="42.73987" lon="0.65104">
        <ele>1609</ele>
        <time>2017-06-04T09:14:07.000Z</time>
      </trkpt>
      <trkpt lat="42.74003" lon="0.65107">
        <ele>1610</ele>
        <time>2017-06-04T09:14:26.000Z</time>
      </trkpt>
      <trkpt lat="42.74007" lon="0.65109">
        <ele>1610</ele>
        <time>2017-06-04T09:14:30.000Z</time>
      </trkpt>
      <trkpt lat="42.74013" lon="0.65109">
        <ele>1610</ele>
        <time>2017-06-04T09:14:36.000Z</time>
      </trkpt>
      <trkpt lat="42.74015" lon="0.65108">
        <ele>1610</ele>
        <time>2017-06-04T09:14:38.000Z</time>
      </trkpt>
      <trkpt lat="42.74018" lon="0.65108">
        <ele>1610</ele>
        <time>2017-06-04T09:14:40.000Z</time>
      </trkpt>
      <trkpt lat="42.7402" lon="0.65108">
        <ele>1610</ele>
        <time>2017-06-04T09:14:42.000Z</time>
      </trkpt>
      <trkpt lat="42.74022" lon="0.65108">
        <ele>1610</ele>
        <time>2017-06-04T09:14:44.000Z</time>
      </trkpt>
      <trkpt lat="42.74024" lon="0.65109">
        <ele>1610</ele>
        <time>2017-06-04T09:14:46.000Z</time>
      </trkpt>
      <trkpt lat="42.74029" lon="0.65109">
        <ele>1610.4</ele>
        <time>2017-06-04T09:14:50.000Z</time>
      </trkpt>
      <trkpt lat="42.74033" lon="0.65109">
        <ele>1610.8</ele>
        <time>2017-06-04T09:14:54.000Z</time>
      </trkpt>
      <trkpt lat="42.74035" lon="0.65109">
        <ele>1611</ele>
        <time>2017-06-04T09:14:56.000Z</time>
      </trkpt>
      <trkpt lat="42.74038" lon="0.65108">
        <ele>1611</ele>
        <time>2017-06-04T09:14:58.000Z</time>
      </trkpt>
      <trkpt lat="42.7404" lon="0.65109">
        <ele>1611</ele>
        <time>2017-06-04T09:15:00.000Z</time>
      </trkpt>
      <trkpt lat="42.74051" lon="0.65107">
        <ele>1611</ele>
        <time>2017-06-04T09:15:10.000Z</time>
      </trkpt>
      <trkpt lat="42.74058" lon="0.65105">
        <ele>1611</ele>
        <time>2017-06-04T09:15:16.000Z</time>
      </trkpt>
      <trkpt lat="42.7406" lon="0.65105">
        <ele>1611</ele>
        <time>2017-06-04T09:15:18.000Z</time>
      </trkpt>
      <trkpt lat="42.74062" lon="0.65104">
        <ele>1611</ele>
        <time>2017-06-04T09:15:20.000Z</time>
      </trkpt>
      <trkpt lat="42.74065" lon="0.65103">
        <ele>1611</ele>
        <time>2017-06-04T09:15:22.000Z</time>
      </trkpt>
      <trkpt lat="42.74067" lon="0.65103">
        <ele>1611</ele>
        <time>2017-06-04T09:15:24.000Z</time>
      </trkpt>
      <trkpt lat="42.74069" lon="0.65103">
        <ele>1611</ele>
        <time>2017-06-04T09:15:26.000Z</time>
      </trkpt>
      <trkpt lat="42.74071" lon="0.65104">
        <ele>1611.2</ele>
        <time>2017-06-04T09:15:28.000Z</time>
      </trkpt>
      <trkpt lat="42.74073" lon="0.65103">
        <ele>1611.5</ele>
        <time>2017-06-04T09:15:30.000Z</time>
      </trkpt>
      <trkpt lat="42.74075" lon="0.65102">
        <ele>1611.7</ele>
        <time>2017-06-04T09:15:32.000Z</time>
      </trkpt>
      <trkpt lat="42.74077" lon="0.65101">
        <ele>1611.9</ele>
        <time>2017-06-04T09:15:34.000Z</time>
      </trkpt>
      <trkpt lat="42.74088" lon="0.65097">
        <ele>1612</ele>
        <time>2017-06-04T09:15:44.000Z</time>
      </trkpt>
      <trkpt lat="42.74094" lon="0.65098">
        <ele>1612.9</ele>
        <time>2017-06-04T09:15:50.000Z</time>
      </trkpt>
      <trkpt lat="42.74098" lon="0.651">
        <ele>1613.9</ele>
        <time>2017-06-04T09:15:55.000Z</time>
      </trkpt>
      <trkpt lat="42.74101" lon="0.651">
        <ele>1614.5</ele>
        <time>2017-06-04T09:15:58.000Z</time>
      </trkpt>
      <trkpt lat="42.74103" lon="0.651">
        <ele>1615.1</ele>
        <time>2017-06-04T09:16:01.000Z</time>
      </trkpt>
      <trkpt lat="42.74106" lon="0.65099">
        <ele>1615.7</ele>
        <time>2017-06-04T09:16:04.000Z</time>
      </trkpt>
      <trkpt lat="42.74111" lon="0.65098">
        <ele>1616</ele>
        <time>2017-06-04T09:16:08.000Z</time>
      </trkpt>
      <trkpt lat="42.74113" lon="0.65097">
        <ele>1616</ele>
        <time>2017-06-04T09:16:10.000Z</time>
      </trkpt>
      <trkpt lat="42.74115" lon="0.65097">
        <ele>1616</ele>
        <time>2017-06-04T09:16:12.000Z</time>
      </trkpt>
      <trkpt lat="42.74118" lon="0.65096">
        <ele>1616</ele>
        <time>2017-06-04T09:16:14.000Z</time>
      </trkpt>
      <trkpt lat="42.7412" lon="0.65096">
        <ele>1616</ele>
        <time>2017-06-04T09:16:16.000Z</time>
      </trkpt>
      <trkpt lat="42.74122" lon="0.65096">
        <ele>1616</ele>
        <time>2017-06-04T09:16:18.000Z</time>
      </trkpt>
      <trkpt lat="42.74126" lon="0.65094">
        <ele>1616</ele>
        <time>2017-06-04T09:16:22.000Z</time>
      </trkpt>
      <trkpt lat="42.74128" lon="0.65093">
        <ele>1616</ele>
        <time>2017-06-04T09:16:24.000Z</time>
      </trkpt>
      <trkpt lat="42.7413" lon="0.65093">
        <ele>1616</ele>
        <time>2017-06-04T09:16:26.000Z</time>
      </trkpt>
      <trkpt lat="42.74132" lon="0.65093">
        <ele>1616</ele>
        <time>2017-06-04T09:16:28.000Z</time>
      </trkpt>
      <trkpt lat="42.74137" lon="0.65091">
        <ele>1616</ele>
        <time>2017-06-04T09:16:32.000Z</time>
      </trkpt>
      <trkpt lat="42.74139" lon="0.65091">
        <ele>1616</ele>
        <time>2017-06-04T09:16:34.000Z</time>
      </trkpt>
      <trkpt lat="42.74141" lon="0.65092">
        <ele>1616</ele>
        <time>2017-06-04T09:16:36.000Z</time>
      </trkpt>
      <trkpt lat="42.74145" lon="0.65091">
        <ele>1616.4</ele>
        <time>2017-06-04T09:16:40.000Z</time>
      </trkpt>
      <trkpt lat="42.74147" lon="0.6509">
        <ele>1616.6</ele>
        <time>2017-06-04T09:16:42.000Z</time>
      </trkpt>
      <trkpt lat="42.74149" lon="0.65089">
        <ele>1616.9</ele>
        <time>2017-06-04T09:16:44.000Z</time>
      </trkpt>
      <trkpt lat="42.74151" lon="0.65088">
        <ele>1617</ele>
        <time>2017-06-04T09:16:46.000Z</time>
      </trkpt>
      <trkpt lat="42.74154" lon="0.65088">
        <ele>1617</ele>
        <time>2017-06-04T09:16:48.000Z</time>
      </trkpt>
      <trkpt lat="42.74161" lon="0.65087">
        <ele>1617</ele>
        <time>2017-06-04T09:16:54.000Z</time>
      </trkpt>
      <trkpt lat="42.74163" lon="0.65088">
        <ele>1617</ele>
        <time>2017-06-04T09:16:56.000Z</time>
      </trkpt>
      <trkpt lat="42.74168" lon="0.65087">
        <ele>1617.4</ele>
        <time>2017-06-04T09:17:00.000Z</time>
      </trkpt>
      <trkpt lat="42.74169" lon="0.65087">
        <ele>1617.6</ele>
        <time>2017-06-04T09:17:02.000Z</time>
      </trkpt>
      <trkpt lat="42.74175" lon="0.65083">
        <ele>1618.2</ele>
        <time>2017-06-04T09:17:08.000Z</time>
      </trkpt>
      <trkpt lat="42.74176" lon="0.6508">
        <ele>1618.6</ele>
        <time>2017-06-04T09:17:11.000Z</time>
      </trkpt>
      <trkpt lat="42.74178" lon="0.65077">
        <ele>1618.8</ele>
        <time>2017-06-04T09:17:13.000Z</time>
      </trkpt>
      <trkpt lat="42.74184" lon="0.65071">
        <ele>1618.7</ele>
        <time>2017-06-04T09:17:19.000Z</time>
      </trkpt>
      <trkpt lat="42.74186" lon="0.6507">
        <ele>1618.5</ele>
        <time>2017-06-04T09:17:21.000Z</time>
      </trkpt>
      <trkpt lat="42.74188" lon="0.65069">
        <ele>1618.3</ele>
        <time>2017-06-04T09:17:23.000Z</time>
      </trkpt>
      <trkpt lat="42.7419" lon="0.65069">
        <ele>1618.1</ele>
        <time>2017-06-04T09:17:25.000Z</time>
      </trkpt>
      <trkpt lat="42.74191" lon="0.65067">
        <ele>1618.1</ele>
        <time>2017-06-04T09:17:27.000Z</time>
      </trkpt>
      <trkpt lat="42.74205" lon="0.65058">
        <ele>1619.3</ele>
        <time>2017-06-04T09:17:39.000Z</time>
      </trkpt>
      <trkpt lat="42.74207" lon="0.65056">
        <ele>1619.6</ele>
        <time>2017-06-04T09:17:41.000Z</time>
      </trkpt>
      <trkpt lat="42.74211" lon="0.65053">
        <ele>1620</ele>
        <time>2017-06-04T09:17:45.000Z</time>
      </trkpt>
      <trkpt lat="42.74212" lon="0.65052">
        <ele>1620.1</ele>
        <time>2017-06-04T09:17:47.000Z</time>
      </trkpt>
      <trkpt lat="42.74214" lon="0.65051">
        <ele>1620.3</ele>
        <time>2017-06-04T09:17:49.000Z</time>
      </trkpt>
      <trkpt lat="42.74216" lon="0.65049">
        <ele>1620.5</ele>
        <time>2017-06-04T09:17:51.000Z</time>
      </trkpt>
      <trkpt lat="42.74218" lon="0.65047">
        <ele>1620.8</ele>
        <time>2017-06-04T09:17:54.000Z</time>
      </trkpt>
      <trkpt lat="42.74222" lon="0.65042">
        <ele>1621.9</ele>
        <time>2017-06-04T09:18:00.000Z</time>
      </trkpt>
      <trkpt lat="42.74224" lon="0.65041">
        <ele>1622.5</ele>
        <time>2017-06-04T09:18:03.000Z</time>
      </trkpt>
      <trkpt lat="42.74225" lon="0.6504">
        <ele>1622.7</ele>
        <time>2017-06-04T09:18:04.000Z</time>
      </trkpt>
      <trkpt lat="42.74226" lon="0.65039">
        <ele>1623.1</ele>
        <time>2017-06-04T09:18:06.000Z</time>
      </trkpt>
      <trkpt lat="42.74228" lon="0.65038">
        <ele>1623.7</ele>
        <time>2017-06-04T09:18:09.000Z</time>
      </trkpt>
      <trkpt lat="42.7423" lon="0.65036">
        <ele>1624.3</ele>
        <time>2017-06-04T09:18:12.000Z</time>
      </trkpt>
      <trkpt lat="42.74232" lon="0.6503">
        <ele>1624.9</ele>
        <time>2017-06-04T09:18:17.000Z</time>
      </trkpt>
      <trkpt lat="42.74234" lon="0.65027">
        <ele>1624.7</ele>
        <time>2017-06-04T09:18:19.000Z</time>
      </trkpt>
      <trkpt lat="42.74235" lon="0.65024">
        <ele>1624.5</ele>
        <time>2017-06-04T09:18:21.000Z</time>
      </trkpt>
      <trkpt lat="42.74237" lon="0.65022">
        <ele>1624.3</ele>
        <time>2017-06-04T09:18:23.000Z</time>
      </trkpt>
      <trkpt lat="42.74239" lon="0.6502">
        <ele>1624.1</ele>
        <time>2017-06-04T09:18:25.000Z</time>
      </trkpt>
      <trkpt lat="42.7424" lon="0.65018">
        <ele>1624</ele>
        <time>2017-06-04T09:18:27.000Z</time>
      </trkpt>
      <trkpt lat="42.74242" lon="0.65016">
        <ele>1624</ele>
        <time>2017-06-04T09:18:29.000Z</time>
      </trkpt>
      <trkpt lat="42.74245" lon="0.65012">
        <ele>1624</ele>
        <time>2017-06-04T09:18:33.000Z</time>
      </trkpt>
      <trkpt lat="42.74248" lon="0.6501">
        <ele>1624</ele>
        <time>2017-06-04T09:18:35.000Z</time>
      </trkpt>
      <trkpt lat="42.7425" lon="0.6501">
        <ele>1624.3</ele>
        <time>2017-06-04T09:18:37.000Z</time>
      </trkpt>
      <trkpt lat="42.74258" lon="0.65007">
        <ele>1625.9</ele>
        <time>2017-06-04T09:18:45.000Z</time>
      </trkpt>
      <trkpt lat="42.7426" lon="0.65004">
        <ele>1626.5</ele>
        <time>2017-06-04T09:18:48.000Z</time>
      </trkpt>
      <trkpt lat="42.74262" lon="0.65004">
        <ele>1627.1</ele>
        <time>2017-06-04T09:18:51.000Z</time>
      </trkpt>
      <trkpt lat="42.74265" lon="0.65003">
        <ele>1627.7</ele>
        <time>2017-06-04T09:18:54.000Z</time>
      </trkpt>
      <trkpt lat="42.74268" lon="0.65004">
        <ele>1628.2</ele>
        <time>2017-06-04T09:18:57.000Z</time>
      </trkpt>
      <trkpt lat="42.74271" lon="0.65005">
        <ele>1628.3</ele>
        <time>2017-06-04T09:18:59.000Z</time>
      </trkpt>
      <trkpt lat="42.74273" lon="0.65006">
        <ele>1628.5</ele>
        <time>2017-06-04T09:19:01.000Z</time>
      </trkpt>
      <trkpt lat="42.74274" lon="0.65007">
        <ele>1628.7</ele>
        <time>2017-06-04T09:19:03.000Z</time>
      </trkpt>
      <trkpt lat="42.74276" lon="0.65008">
        <ele>1628.9</ele>
        <time>2017-06-04T09:19:05.000Z</time>
      </trkpt>
      <trkpt lat="42.74279" lon="0.65009">
        <ele>1629.2</ele>
        <time>2017-06-04T09:19:08.000Z</time>
      </trkpt>
      <trkpt lat="42.74283" lon="0.65012">
        <ele>1629.7</ele>
        <time>2017-06-04T09:19:13.000Z</time>
      </trkpt>
      <trkpt lat="42.74285" lon="0.65012">
        <ele>1629.9</ele>
        <time>2017-06-04T09:19:15.000Z</time>
      </trkpt>
      <trkpt lat="42.74287" lon="0.65013">
        <ele>1630.1</ele>
        <time>2017-06-04T09:19:17.000Z</time>
      </trkpt>
      <trkpt lat="42.74291" lon="0.65016">
        <ele>1630.6</ele>
        <time>2017-06-04T09:19:21.000Z</time>
      </trkpt>
      <trkpt lat="42.74293" lon="0.65017">
        <ele>1630.8</ele>
        <time>2017-06-04T09:19:23.000Z</time>
      </trkpt>
      <trkpt lat="42.74294" lon="0.65018">
        <ele>1631</ele>
        <time>2017-06-04T09:19:25.000Z</time>
      </trkpt>
      <trkpt lat="42.74296" lon="0.65019">
        <ele>1631.3</ele>
        <time>2017-06-04T09:19:27.000Z</time>
      </trkpt>
      <trkpt lat="42.74298" lon="0.6502">
        <ele>1631.9</ele>
        <time>2017-06-04T09:19:30.000Z</time>
      </trkpt>
      <trkpt lat="42.743" lon="0.65021">
        <ele>1632.5</ele>
        <time>2017-06-04T09:19:33.000Z</time>
      </trkpt>
      <trkpt lat="42.74302" lon="0.65022">
        <ele>1633.1</ele>
        <time>2017-06-04T09:19:36.000Z</time>
      </trkpt>
      <trkpt lat="42.74304" lon="0.65024">
        <ele>1633.7</ele>
        <time>2017-06-04T09:19:39.000Z</time>
      </trkpt>
      <trkpt lat="42.74306" lon="0.65025">
        <ele>1634.3</ele>
        <time>2017-06-04T09:19:42.000Z</time>
      </trkpt>
      <trkpt lat="42.74308" lon="0.65024">
        <ele>1634.9</ele>
        <time>2017-06-04T09:19:45.000Z</time>
      </trkpt>
      <trkpt lat="42.7431" lon="0.65025">
        <ele>1635.5</ele>
        <time>2017-06-04T09:19:48.000Z</time>
      </trkpt>
      <trkpt lat="42.74312" lon="0.65024">
        <ele>1635.9</ele>
        <time>2017-06-04T09:19:50.000Z</time>
      </trkpt>
      <trkpt lat="42.74314" lon="0.65024">
        <ele>1636.3</ele>
        <time>2017-06-04T09:19:52.000Z</time>
      </trkpt>
      <trkpt lat="42.74317" lon="0.65024">
        <ele>1636.9</ele>
        <time>2017-06-04T09:19:55.000Z</time>
      </trkpt>
      <trkpt lat="42.74318" lon="0.65025">
        <ele>1637.1</ele>
        <time>2017-06-04T09:19:56.000Z</time>
      </trkpt>
      <trkpt lat="42.7432" lon="0.65025">
        <ele>1637.7</ele>
        <time>2017-06-04T09:19:59.000Z</time>
      </trkpt>
      <trkpt lat="42.74323" lon="0.65026">
        <ele>1638.7</ele>
        <time>2017-06-04T09:20:04.000Z</time>
      </trkpt>
      <trkpt lat="42.74325" lon="0.65027">
        <ele>1639.1</ele>
        <time>2017-06-04T09:20:07.000Z</time>
      </trkpt>
      <trkpt lat="42.74328" lon="0.65027">
        <ele>1639.5</ele>
        <time>2017-06-04T09:20:10.000Z</time>
      </trkpt>
      <trkpt lat="42.7433" lon="0.65027">
        <ele>1639.7</ele>
        <time>2017-06-04T09:20:12.000Z</time>
      </trkpt>
      <trkpt lat="42.74334" lon="0.65027">
        <ele>1640.2</ele>
        <time>2017-06-04T09:20:17.000Z</time>
      </trkpt>
      <trkpt lat="42.74338" lon="0.65025">
        <ele>1640.7</ele>
        <time>2017-06-04T09:20:23.000Z</time>
      </trkpt>
      <trkpt lat="42.74343" lon="0.65023">
        <ele>1641.7</ele>
        <time>2017-06-04T09:20:29.000Z</time>
      </trkpt>
      <trkpt lat="42.74344" lon="0.65023">
        <ele>1641.9</ele>
        <time>2017-06-04T09:20:30.000Z</time>
      </trkpt>
      <trkpt lat="42.74346" lon="0.6502">
        <ele>1642.5</ele>
        <time>2017-06-04T09:20:33.000Z</time>
      </trkpt>
      <trkpt lat="42.74348" lon="0.65019">
        <ele>1643</ele>
        <time>2017-06-04T09:20:36.000Z</time>
      </trkpt>
      <trkpt lat="42.74351" lon="0.65018">
        <ele>1643.4</ele>
        <time>2017-06-04T09:20:39.000Z</time>
      </trkpt>
      <trkpt lat="42.74354" lon="0.65015">
        <ele>1643.9</ele>
        <time>2017-06-04T09:20:44.000Z</time>
      </trkpt>
      <trkpt lat="42.74357" lon="0.65014">
        <ele>1644.3</ele>
        <time>2017-06-04T09:20:47.000Z</time>
      </trkpt>
      <trkpt lat="42.74361" lon="0.65009">
        <ele>1645.7</ele>
        <time>2017-06-04T09:20:54.000Z</time>
      </trkpt>
      <trkpt lat="42.74364" lon="0.65004">
        <ele>1646.9</ele>
        <time>2017-06-04T09:21:00.000Z</time>
      </trkpt>
      <trkpt lat="42.74365" lon="0.65002">
        <ele>1647.3</ele>
        <time>2017-06-04T09:21:02.000Z</time>
      </trkpt>
      <trkpt lat="42.74367" lon="0.64999">
        <ele>1647.9</ele>
        <time>2017-06-04T09:21:05.000Z</time>
      </trkpt>
      <trkpt lat="42.74368" lon="0.64996">
        <ele>1648</ele>
        <time>2017-06-04T09:21:08.000Z</time>
      </trkpt>
      <trkpt lat="42.74369" lon="0.64995">
        <ele>1648</ele>
        <time>2017-06-04T09:21:10.000Z</time>
      </trkpt>
      <trkpt lat="42.74371" lon="0.64993">
        <ele>1648</ele>
        <time>2017-06-04T09:21:13.000Z</time>
      </trkpt>
      <trkpt lat="42.74373" lon="0.64989">
        <ele>1648.2</ele>
        <time>2017-06-04T09:21:18.000Z</time>
      </trkpt>
      <trkpt lat="42.74375" lon="0.64988">
        <ele>1648.5</ele>
        <time>2017-06-04T09:21:21.000Z</time>
      </trkpt>
      <trkpt lat="42.74376" lon="0.64986">
        <ele>1648.8</ele>
        <time>2017-06-04T09:21:24.000Z</time>
      </trkpt>
      <trkpt lat="42.74379" lon="0.64981">
        <ele>1650.3</ele>
        <time>2017-06-04T09:21:30.000Z</time>
      </trkpt>
      <trkpt lat="42.74381" lon="0.64977">
        <ele>1651.8</ele>
        <time>2017-06-04T09:21:35.000Z</time>
      </trkpt>
      <trkpt lat="42.74382" lon="0.64975">
        <ele>1652.1</ele>
        <time>2017-06-04T09:21:37.000Z</time>
      </trkpt>
      <trkpt lat="42.74383" lon="0.64972">
        <ele>1652.4</ele>
        <time>2017-06-04T09:21:40.000Z</time>
      </trkpt>
      <trkpt lat="42.74384" lon="0.6497">
        <ele>1652.7</ele>
        <time>2017-06-04T09:21:43.000Z</time>
      </trkpt>
      <trkpt lat="42.74385" lon="0.64967">
        <ele>1653</ele>
        <time>2017-06-04T09:21:46.000Z</time>
      </trkpt>
      <trkpt lat="42.74387" lon="0.6496">
        <ele>1653.6</ele>
        <time>2017-06-04T09:21:52.000Z</time>
      </trkpt>
      <trkpt lat="42.74389" lon="0.64957">
        <ele>1653.9</ele>
        <time>2017-06-04T09:21:55.000Z</time>
      </trkpt>
      <trkpt lat="42.74391" lon="0.64955">
        <ele>1654.2</ele>
        <time>2017-06-04T09:21:58.000Z</time>
      </trkpt>
      <trkpt lat="42.74395" lon="0.64953">
        <ele>1654.8</ele>
        <time>2017-06-04T09:22:04.000Z</time>
      </trkpt>
      <trkpt lat="42.74401" lon="0.64952">
        <ele>1656.1</ele>
        <time>2017-06-04T09:22:11.000Z</time>
      </trkpt>
      <trkpt lat="42.74403" lon="0.64952">
        <ele>1656.7</ele>
        <time>2017-06-04T09:22:14.000Z</time>
      </trkpt>
      <trkpt lat="42.74405" lon="0.64952">
        <ele>1657</ele>
        <time>2017-06-04T09:22:16.000Z</time>
      </trkpt>
      <trkpt lat="42.74413" lon="0.64949">
        <ele>1657</ele>
        <time>2017-06-04T09:22:24.000Z</time>
      </trkpt>
      <trkpt lat="42.74415" lon="0.64949">
        <ele>1657</ele>
        <time>2017-06-04T09:22:26.000Z</time>
      </trkpt>
      <trkpt lat="42.74417" lon="0.64949">
        <ele>1657.2</ele>
        <time>2017-06-04T09:22:28.000Z</time>
      </trkpt>
      <trkpt lat="42.74419" lon="0.64948">
        <ele>1657.4</ele>
        <time>2017-06-04T09:22:30.000Z</time>
      </trkpt>
      <trkpt lat="42.74421" lon="0.64947">
        <ele>1657.6</ele>
        <time>2017-06-04T09:22:32.000Z</time>
      </trkpt>
      <trkpt lat="42.74423" lon="0.64945">
        <ele>1657.8</ele>
        <time>2017-06-04T09:22:34.000Z</time>
      </trkpt>
      <trkpt lat="42.74425" lon="0.64945">
        <ele>1658.1</ele>
        <time>2017-06-04T09:22:36.000Z</time>
      </trkpt>
      <trkpt lat="42.74428" lon="0.64943">
        <ele>1658.9</ele>
        <time>2017-06-04T09:22:40.000Z</time>
      </trkpt>
      <trkpt lat="42.74431" lon="0.6494">
        <ele>1659.7</ele>
        <time>2017-06-04T09:22:44.000Z</time>
      </trkpt>
      <trkpt lat="42.74433" lon="0.64938">
        <ele>1659.9</ele>
        <time>2017-06-04T09:22:46.000Z</time>
      </trkpt>
      <trkpt lat="42.74435" lon="0.64937">
        <ele>1659.7</ele>
        <time>2017-06-04T09:22:48.000Z</time>
      </trkpt>
      <trkpt lat="42.74438" lon="0.64936">
        <ele>1659.6</ele>
        <time>2017-06-04T09:22:50.000Z</time>
      </trkpt>
      <trkpt lat="42.74439" lon="0.64935">
        <ele>1659.4</ele>
        <time>2017-06-04T09:22:52.000Z</time>
      </trkpt>
      <trkpt lat="42.74442" lon="0.64934">
        <ele>1659.2</ele>
        <time>2017-06-04T09:22:54.000Z</time>
      </trkpt>
      <trkpt lat="42.74444" lon="0.64933">
        <ele>1659</ele>
        <time>2017-06-04T09:22:56.000Z</time>
      </trkpt>
      <trkpt lat="42.74445" lon="0.64932">
        <ele>1659</ele>
        <time>2017-06-04T09:22:58.000Z</time>
      </trkpt>
      <trkpt lat="42.74447" lon="0.64931">
        <ele>1659</ele>
        <time>2017-06-04T09:23:00.000Z</time>
      </trkpt>
      <trkpt lat="42.74451" lon="0.6493">
        <ele>1659</ele>
        <time>2017-06-04T09:23:04.000Z</time>
      </trkpt>
      <trkpt lat="42.74454" lon="0.6493">
        <ele>1659.3</ele>
        <time>2017-06-04T09:23:07.000Z</time>
      </trkpt>
      <trkpt lat="42.74455" lon="0.64929">
        <ele>1659.7</ele>
        <time>2017-06-04T09:23:09.000Z</time>
      </trkpt>
      <trkpt lat="42.74457" lon="0.64928">
        <ele>1660.1</ele>
        <time>2017-06-04T09:23:11.000Z</time>
      </trkpt>
      <trkpt lat="42.74459" lon="0.64928">
        <ele>1660.4</ele>
        <time>2017-06-04T09:23:13.000Z</time>
      </trkpt>
      <trkpt lat="42.74461" lon="0.64927">
        <ele>1661</ele>
        <time>2017-06-04T09:23:16.000Z</time>
      </trkpt>
      <trkpt lat="42.74463" lon="0.64924">
        <ele>1661.9</ele>
        <time>2017-06-04T09:23:25.000Z</time>
      </trkpt>
      <trkpt lat="42.74465" lon="0.64923">
        <ele>1662</ele>
        <time>2017-06-04T09:23:27.000Z</time>
      </trkpt>
      <trkpt lat="42.74464" lon="0.64923">
        <ele>1662</ele>
        <time>2017-06-04T09:23:35.000Z</time>
      </trkpt>
      <trkpt lat="42.74468" lon="0.6492">
        <ele>1662</ele>
        <time>2017-06-04T09:23:41.000Z</time>
      </trkpt>
      <trkpt lat="42.74475" lon="0.64914">
        <ele>1662</ele>
        <time>2017-06-04T09:23:49.000Z</time>
      </trkpt>
      <trkpt lat="42.74479" lon="0.6491">
        <ele>1662.2</ele>
        <time>2017-06-04T09:23:53.000Z</time>
      </trkpt>
      <trkpt lat="42.74481" lon="0.64908">
        <ele>1662.4</ele>
        <time>2017-06-04T09:23:55.000Z</time>
      </trkpt>
      <trkpt lat="42.74483" lon="0.64907">
        <ele>1662.6</ele>
        <time>2017-06-04T09:23:57.000Z</time>
      </trkpt>
      <trkpt lat="42.74485" lon="0.64906">
        <ele>1662.8</ele>
        <time>2017-06-04T09:23:59.000Z</time>
      </trkpt>
      <trkpt lat="42.74487" lon="0.64905">
        <ele>1663.1</ele>
        <time>2017-06-04T09:24:02.000Z</time>
      </trkpt>
      <trkpt lat="42.74491" lon="0.64902">
        <ele>1663.5</ele>
        <time>2017-06-04T09:24:06.000Z</time>
      </trkpt>
      <trkpt lat="42.74496" lon="0.64899">
        <ele>1664.1</ele>
        <time>2017-06-04T09:24:12.000Z</time>
      </trkpt>
      <trkpt lat="42.74498" lon="0.64898">
        <ele>1664.3</ele>
        <time>2017-06-04T09:24:14.000Z</time>
      </trkpt>
      <trkpt lat="42.74499" lon="0.64896">
        <ele>1664.5</ele>
        <time>2017-06-04T09:24:16.000Z</time>
      </trkpt>
      <trkpt lat="42.74499" lon="0.64896">
        <ele>1665</ele>
        <time>2017-06-04T09:24:24.000Z</time>
      </trkpt>
      <trkpt lat="42.74503" lon="0.64892">
        <ele>1665</ele>
        <time>2017-06-04T09:24:31.000Z</time>
      </trkpt>
      <trkpt lat="42.74521" lon="0.64882">
        <ele>1668</ele>
        <time>2017-06-04T09:29:19.000Z</time>
      </trkpt>
      <trkpt lat="42.74526" lon="0.6488">
        <ele>1668</ele>
        <time>2017-06-04T09:29:23.000Z</time>
      </trkpt>
      <trkpt lat="42.74535" lon="0.64878">
        <ele>1668</ele>
        <time>2017-06-04T09:29:31.000Z</time>
      </trkpt>
      <trkpt lat="42.74538" lon="0.64878">
        <ele>1668</ele>
        <time>2017-06-04T09:29:33.000Z</time>
      </trkpt>
      <trkpt lat="42.74539" lon="0.64877">
        <ele>1668</ele>
        <time>2017-06-04T09:29:35.000Z</time>
      </trkpt>
      <trkpt lat="42.74541" lon="0.64876">
        <ele>1668</ele>
        <time>2017-06-04T09:29:37.000Z</time>
      </trkpt>
      <trkpt lat="42.74543" lon="0.64875">
        <ele>1668</ele>
        <time>2017-06-04T09:29:39.000Z</time>
      </trkpt>
      <trkpt lat="42.74545" lon="0.64874">
        <ele>1668</ele>
        <time>2017-06-04T09:29:41.000Z</time>
      </trkpt>
      <trkpt lat="42.74547" lon="0.64873">
        <ele>1668</ele>
        <time>2017-06-04T09:29:48.000Z</time>
      </trkpt>
      <trkpt lat="42.74551" lon="0.64871">
        <ele>1668</ele>
        <time>2017-06-04T09:29:52.000Z</time>
      </trkpt>
      <trkpt lat="42.74553" lon="0.64869">
        <ele>1668</ele>
        <time>2017-06-04T09:29:54.000Z</time>
      </trkpt>
      <trkpt lat="42.74555" lon="0.64868">
        <ele>1668</ele>
        <time>2017-06-04T09:29:56.000Z</time>
      </trkpt>
      <trkpt lat="42.74559" lon="0.64868">
        <ele>1668.4</ele>
        <time>2017-06-04T09:30:01.000Z</time>
      </trkpt>
      <trkpt lat="42.74561" lon="0.6487">
        <ele>1668.6</ele>
        <time>2017-06-04T09:30:04.000Z</time>
      </trkpt>
      <trkpt lat="42.74559" lon="0.64869">
        <ele>1670</ele>
        <time>2017-06-04T09:30:18.000Z</time>
      </trkpt>
      <trkpt lat="42.74563" lon="0.64866">
        <ele>1669</ele>
        <time>2017-06-04T09:31:25.000Z</time>
      </trkpt>
      <trkpt lat="42.74563" lon="0.64866">
        <ele>1669.2</ele>
        <time>2017-06-04T09:31:26.000Z</time>
      </trkpt>
      <trkpt lat="42.74576" lon="0.64868">
        <ele>1671</ele>
        <time>2017-06-04T09:32:59.000Z</time>
      </trkpt>
      <trkpt lat="42.74579" lon="0.64868">
        <ele>1671</ele>
        <time>2017-06-04T09:33:01.000Z</time>
      </trkpt>
      <trkpt lat="42.74589" lon="0.64867">
        <ele>1671</ele>
        <time>2017-06-04T09:33:09.000Z</time>
      </trkpt>
      <trkpt lat="42.7461" lon="0.64866">
        <ele>1672.5</ele>
        <time>2017-06-04T09:33:25.000Z</time>
      </trkpt>
      <trkpt lat="42.74612" lon="0.64866">
        <ele>1672.9</ele>
        <time>2017-06-04T09:33:27.000Z</time>
      </trkpt>
      <trkpt lat="42.74617" lon="0.64863">
        <ele>1673.3</ele>
        <time>2017-06-04T09:33:31.000Z</time>
      </trkpt>
      <trkpt lat="42.74619" lon="0.64862">
        <ele>1673.5</ele>
        <time>2017-06-04T09:33:33.000Z</time>
      </trkpt>
      <trkpt lat="42.74625" lon="0.64857">
        <ele>1674</ele>
        <time>2017-06-04T09:33:39.000Z</time>
      </trkpt>
      <trkpt lat="42.74633" lon="0.64845">
        <ele>1676.2</ele>
        <time>2017-06-04T09:33:48.990Z</time>
      </trkpt>
      <trkpt lat="42.74641" lon="0.64826">
        <ele>1677.7</ele>
        <time>2017-06-04T09:34:05.000Z</time>
      </trkpt>
      <trkpt lat="42.74645" lon="0.64822">
        <ele>1678</ele>
        <time>2017-06-04T09:34:09.000Z</time>
      </trkpt>
      <trkpt lat="42.74646" lon="0.6482">
        <ele>1678</ele>
        <time>2017-06-04T09:34:11.000Z</time>
      </trkpt>
      <trkpt lat="42.74648" lon="0.64817">
        <ele>1678</ele>
        <time>2017-06-04T09:34:13.000Z</time>
      </trkpt>
      <trkpt lat="42.7465" lon="0.64816">
        <ele>1678</ele>
        <time>2017-06-04T09:34:15.000Z</time>
      </trkpt>
      <trkpt lat="42.74652" lon="0.64815">
        <ele>1678</ele>
        <time>2017-06-04T09:34:17.000Z</time>
      </trkpt>
      <trkpt lat="42.74658" lon="0.64812">
        <ele>1678.5</ele>
        <time>2017-06-04T09:34:23.000Z</time>
      </trkpt>
      <trkpt lat="42.74663" lon="0.64811">
        <ele>1678.9</ele>
        <time>2017-06-04T09:34:27.000Z</time>
      </trkpt>
      <trkpt lat="42.74667" lon="0.64811">
        <ele>1679.7</ele>
        <time>2017-06-04T09:34:31.000Z</time>
      </trkpt>
      <trkpt lat="42.7467" lon="0.64811">
        <ele>1680.1</ele>
        <time>2017-06-04T09:34:33.000Z</time>
      </trkpt>
      <trkpt lat="42.74673" lon="0.6481">
        <ele>1680.5</ele>
        <time>2017-06-04T09:34:35.000Z</time>
      </trkpt>
      <trkpt lat="42.74676" lon="0.64811">
        <ele>1680.9</ele>
        <time>2017-06-04T09:34:37.000Z</time>
      </trkpt>
      <trkpt lat="42.74678" lon="0.64811">
        <ele>1681</ele>
        <time>2017-06-04T09:34:39.000Z</time>
      </trkpt>
      <trkpt lat="42.74681" lon="0.64812">
        <ele>1681</ele>
        <time>2017-06-04T09:34:41.000Z</time>
      </trkpt>
      <trkpt lat="42.74683" lon="0.64814">
        <ele>1681</ele>
        <time>2017-06-04T09:34:43.000Z</time>
      </trkpt>
      <trkpt lat="42.74684" lon="0.64815">
        <ele>1681</ele>
        <time>2017-06-04T09:34:46.000Z</time>
      </trkpt>
      <trkpt lat="42.74685" lon="0.64817">
        <ele>1681.6</ele>
        <time>2017-06-04T09:34:54.000Z</time>
      </trkpt>
      <trkpt lat="42.74685" lon="0.64816">
        <ele>1681.9</ele>
        <time>2017-06-04T09:35:04.000Z</time>
      </trkpt>
      <trkpt lat="42.74694" lon="0.64818">
        <ele>1681.2</ele>
        <time>2017-06-04T09:35:21.000Z</time>
      </trkpt>
      <trkpt lat="42.74696" lon="0.64817">
        <ele>1681.4</ele>
        <time>2017-06-04T09:35:23.000Z</time>
      </trkpt>
      <trkpt lat="42.74698" lon="0.64816">
        <ele>1681.6</ele>
        <time>2017-06-04T09:35:25.000Z</time>
      </trkpt>
      <trkpt lat="42.747" lon="0.64815">
        <ele>1681.8</ele>
        <time>2017-06-04T09:35:27.000Z</time>
      </trkpt>
      <trkpt lat="42.74702" lon="0.64814">
        <ele>1682</ele>
        <time>2017-06-04T09:35:29.000Z</time>
      </trkpt>
      <trkpt lat="42.74709" lon="0.64812">
        <ele>1682</ele>
        <time>2017-06-04T09:35:35.000Z</time>
      </trkpt>
      <trkpt lat="42.74711" lon="0.64811">
        <ele>1682</ele>
        <time>2017-06-04T09:35:37.000Z</time>
      </trkpt>
      <trkpt lat="42.74713" lon="0.6481">
        <ele>1682</ele>
        <time>2017-06-04T09:35:39.000Z</time>
      </trkpt>
      <trkpt lat="42.74716" lon="0.64809">
        <ele>1682.2</ele>
        <time>2017-06-04T09:35:41.000Z</time>
      </trkpt>
      <trkpt lat="42.74718" lon="0.64809">
        <ele>1682.4</ele>
        <time>2017-06-04T09:35:43.000Z</time>
      </trkpt>
      <trkpt lat="42.7472" lon="0.64808">
        <ele>1682.6</ele>
        <time>2017-06-04T09:35:45.000Z</time>
      </trkpt>
      <trkpt lat="42.74726" lon="0.64806">
        <ele>1683.2</ele>
        <time>2017-06-04T09:35:51.000Z</time>
      </trkpt>
      <trkpt lat="42.74738" lon="0.64805">
        <ele>1684.4</ele>
        <time>2017-06-04T09:36:03.000Z</time>
      </trkpt>
      <trkpt lat="42.7474" lon="0.64804">
        <ele>1684.6</ele>
        <time>2017-06-04T09:36:05.000Z</time>
      </trkpt>
      <trkpt lat="42.74751" lon="0.64798">
        <ele>1685.6</ele>
        <time>2017-06-04T09:36:15.000Z</time>
      </trkpt>
      <trkpt lat="42.7476" lon="0.64795">
        <ele>1686.4</ele>
        <time>2017-06-04T09:36:23.000Z</time>
      </trkpt>
      <trkpt lat="42.74762" lon="0.64794">
        <ele>1686.6</ele>
        <time>2017-06-04T09:36:25.000Z</time>
      </trkpt>
      <trkpt lat="42.74765" lon="0.64793">
        <ele>1686.9</ele>
        <time>2017-06-04T09:36:27.000Z</time>
      </trkpt>
      <trkpt lat="42.74767" lon="0.64792">
        <ele>1687.1</ele>
        <time>2017-06-04T09:36:29.000Z</time>
      </trkpt>
      <trkpt lat="42.74769" lon="0.64792">
        <ele>1687.5</ele>
        <time>2017-06-04T09:36:31.000Z</time>
      </trkpt>
      <trkpt lat="42.74775" lon="0.64789">
        <ele>1688.7</ele>
        <time>2017-06-04T09:36:37.000Z</time>
      </trkpt>
      <trkpt lat="42.74781" lon="0.64789">
        <ele>1689</ele>
        <time>2017-06-04T09:36:43.000Z</time>
      </trkpt>
      <trkpt lat="42.74783" lon="0.64789">
        <ele>1689</ele>
        <time>2017-06-04T09:36:45.000Z</time>
      </trkpt>
      <trkpt lat="42.74788" lon="0.64789">
        <ele>1689.1</ele>
        <time>2017-06-04T09:36:49.000Z</time>
      </trkpt>
      <trkpt lat="42.74792" lon="0.64791">
        <ele>1689.9</ele>
        <time>2017-06-04T09:36:53.000Z</time>
      </trkpt>
      <trkpt lat="42.74796" lon="0.64794">
        <ele>1690.7</ele>
        <time>2017-06-04T09:36:57.000Z</time>
      </trkpt>
      <trkpt lat="42.74808" lon="0.64807">
        <ele>1692</ele>
        <time>2017-06-04T09:37:11.000Z</time>
      </trkpt>
      <trkpt lat="42.74809" lon="0.64809">
        <ele>1692</ele>
        <time>2017-06-04T09:37:13.000Z</time>
      </trkpt>
      <trkpt lat="42.74811" lon="0.64811">
        <ele>1692</ele>
        <time>2017-06-04T09:37:15.000Z</time>
      </trkpt>
      <trkpt lat="42.74815" lon="0.64813">
        <ele>1692.1</ele>
        <time>2017-06-04T09:37:19.000Z</time>
      </trkpt>
      <trkpt lat="42.74817" lon="0.64814">
        <ele>1692.2</ele>
        <time>2017-06-04T09:37:21.000Z</time>
      </trkpt>
      <trkpt lat="42.74821" lon="0.64817">
        <ele>1692.6</ele>
        <time>2017-06-04T09:37:25.000Z</time>
      </trkpt>
      <trkpt lat="42.74824" lon="0.64819">
        <ele>1693.1</ele>
        <time>2017-06-04T09:37:29.000Z</time>
      </trkpt>
      <trkpt lat="42.74826" lon="0.64821">
        <ele>1693.5</ele>
        <time>2017-06-04T09:37:31.000Z</time>
      </trkpt>
      <trkpt lat="42.74828" lon="0.64822">
        <ele>1694.1</ele>
        <time>2017-06-04T09:37:34.000Z</time>
      </trkpt>
      <trkpt lat="42.74829" lon="0.64822">
        <ele>1694.3</ele>
        <time>2017-06-04T09:37:35.000Z</time>
      </trkpt>
      <trkpt lat="42.74831" lon="0.64823">
        <ele>1694.7</ele>
        <time>2017-06-04T09:37:37.000Z</time>
      </trkpt>
      <trkpt lat="42.74835" lon="0.64826">
        <ele>1695</ele>
        <time>2017-06-04T09:37:41.000Z</time>
      </trkpt>
      <trkpt lat="42.74837" lon="0.64828">
        <ele>1695</ele>
        <time>2017-06-04T09:37:43.000Z</time>
      </trkpt>
      <trkpt lat="42.74841" lon="0.64835">
        <ele>1695.1</ele>
        <time>2017-06-04T09:37:49.000Z</time>
      </trkpt>
      <trkpt lat="42.74842" lon="0.64837">
        <ele>1695.3</ele>
        <time>2017-06-04T09:37:51.000Z</time>
      </trkpt>
      <trkpt lat="42.74843" lon="0.64839">
        <ele>1695.4</ele>
        <time>2017-06-04T09:37:53.000Z</time>
      </trkpt>
      <trkpt lat="42.74845" lon="0.64841">
        <ele>1695.7</ele>
        <time>2017-06-04T09:37:56.000Z</time>
      </trkpt>
      <trkpt lat="42.74847" lon="0.64844">
        <ele>1696</ele>
        <time>2017-06-04T09:37:59.000Z</time>
      </trkpt>
      <trkpt lat="42.74847" lon="0.64853">
        <ele>1696</ele>
        <time>2017-06-04T09:38:05.000Z</time>
      </trkpt>
      <trkpt lat="42.74849" lon="0.64855">
        <ele>1696</ele>
        <time>2017-06-04T09:38:07.000Z</time>
      </trkpt>
      <trkpt lat="42.74851" lon="0.64855">
        <ele>1696</ele>
        <time>2017-06-04T09:38:10.000Z</time>
      </trkpt>
      <trkpt lat="42.74853" lon="0.64852">
        <ele>1696</ele>
        <time>2017-06-04T09:38:13.000Z</time>
      </trkpt>
      <trkpt lat="42.74855" lon="0.64851">
        <ele>1696</ele>
        <time>2017-06-04T09:38:15.000Z</time>
      </trkpt>
      <trkpt lat="42.7486" lon="0.64848">
        <ele>1696.3</ele>
        <time>2017-06-04T09:38:22.000Z</time>
      </trkpt>
      <trkpt lat="42.74871" lon="0.64839">
        <ele>1697.5</ele>
        <time>2017-06-04T09:38:34.000Z</time>
      </trkpt>
      <trkpt lat="42.74872" lon="0.64838">
        <ele>1697.7</ele>
        <time>2017-06-04T09:38:36.000Z</time>
      </trkpt>
      <trkpt lat="42.74874" lon="0.64836">
        <ele>1697.9</ele>
        <time>2017-06-04T09:38:38.000Z</time>
      </trkpt>
      <trkpt lat="42.74875" lon="0.64834">
        <ele>1698.1</ele>
        <time>2017-06-04T09:38:40.000Z</time>
      </trkpt>
      <trkpt lat="42.74877" lon="0.64833">
        <ele>1698.3</ele>
        <time>2017-06-04T09:38:42.000Z</time>
      </trkpt>
      <trkpt lat="42.74882" lon="0.64828">
        <ele>1699</ele>
        <time>2017-06-04T09:38:49.000Z</time>
      </trkpt>
      <trkpt lat="42.74884" lon="0.64827">
        <ele>1699.4</ele>
        <time>2017-06-04T09:38:51.000Z</time>
      </trkpt>
      <trkpt lat="42.74887" lon="0.6482">
        <ele>1700.7</ele>
        <time>2017-06-04T09:38:57.000Z</time>
      </trkpt>
      <trkpt lat="42.74888" lon="0.64818">
        <ele>1701</ele>
        <time>2017-06-04T09:38:59.000Z</time>
      </trkpt>
      <trkpt lat="42.74892" lon="0.64815">
        <ele>1701</ele>
        <time>2017-06-04T09:39:03.000Z</time>
      </trkpt>
      <trkpt lat="42.74895" lon="0.6481">
        <ele>1701.1</ele>
        <time>2017-06-04T09:39:09.000Z</time>
      </trkpt>
      <trkpt lat="42.74897" lon="0.64808">
        <ele>1701.7</ele>
        <time>2017-06-04T09:39:12.000Z</time>
      </trkpt>
      <trkpt lat="42.74899" lon="0.64805">
        <ele>1702.3</ele>
        <time>2017-06-04T09:39:15.000Z</time>
      </trkpt>
      <trkpt lat="42.74901" lon="0.64803">
        <ele>1702.7</ele>
        <time>2017-06-04T09:39:17.000Z</time>
      </trkpt>
      <trkpt lat="42.74902" lon="0.64801">
        <ele>1703</ele>
        <time>2017-06-04T09:39:19.000Z</time>
      </trkpt>
      <trkpt lat="42.74904" lon="0.648">
        <ele>1703.2</ele>
        <time>2017-06-04T09:39:21.000Z</time>
      </trkpt>
      <trkpt lat="42.74905" lon="0.64798">
        <ele>1703.5</ele>
        <time>2017-06-04T09:39:23.000Z</time>
      </trkpt>
      <trkpt lat="42.74907" lon="0.64796">
        <ele>1703.7</ele>
        <time>2017-06-04T09:39:25.000Z</time>
      </trkpt>
      <trkpt lat="42.74909" lon="0.64795">
        <ele>1703.9</ele>
        <time>2017-06-04T09:39:27.000Z</time>
      </trkpt>
      <trkpt lat="42.74911" lon="0.64794">
        <ele>1704.1</ele>
        <time>2017-06-04T09:39:29.000Z</time>
      </trkpt>
      <trkpt lat="42.74913" lon="0.64794">
        <ele>1704.5</ele>
        <time>2017-06-04T09:39:31.000Z</time>
      </trkpt>
      <trkpt lat="42.74915" lon="0.64793">
        <ele>1704.9</ele>
        <time>2017-06-04T09:39:33.000Z</time>
      </trkpt>
      <trkpt lat="42.74917" lon="0.64792">
        <ele>1705.3</ele>
        <time>2017-06-04T09:39:35.000Z</time>
      </trkpt>
      <trkpt lat="42.74918" lon="0.64791">
        <ele>1705.7</ele>
        <time>2017-06-04T09:39:37.000Z</time>
      </trkpt>
      <trkpt lat="42.74921" lon="0.64791">
        <ele>1706</ele>
        <time>2017-06-04T09:39:39.000Z</time>
      </trkpt>
      <trkpt lat="42.74923" lon="0.6479">
        <ele>1706.2</ele>
        <time>2017-06-04T09:39:41.000Z</time>
      </trkpt>
      <trkpt lat="42.74943" lon="0.6477">
        <ele>1709</ele>
        <time>2017-06-04T09:40:36.000Z</time>
      </trkpt>
      <trkpt lat="42.74952" lon="0.64765">
        <ele>1711</ele>
        <time>2017-06-04T09:41:01.000Z</time>
      </trkpt>
      <trkpt lat="42.74971" lon="0.6475">
        <ele>1714</ele>
        <time>2017-06-04T09:42:24.960Z</time>
      </trkpt>
      <trkpt lat="42.74997" lon="0.64738">
        <ele>1716</ele>
        <time>2017-06-04T09:42:51.990Z</time>
      </trkpt>
      <trkpt lat="42.75006" lon="0.64733">
        <ele>1716</ele>
        <time>2017-06-04T09:42:59.990Z</time>
      </trkpt>
      <trkpt lat="42.75034" lon="0.64724">
        <ele>1718</ele>
        <time>2017-06-04T09:43:31.000Z</time>
      </trkpt>
      <trkpt lat="42.7505" lon="0.64712">
        <ele>1720.7</ele>
        <time>2017-06-04T09:43:47.990Z</time>
      </trkpt>
      <trkpt lat="42.75059" lon="0.64707">
        <ele>1722.1</ele>
        <time>2017-06-04T09:43:56.990Z</time>
      </trkpt>
      <trkpt lat="42.75078" lon="0.64703">
        <ele>1724.1</ele>
        <time>2017-06-04T09:44:16.990Z</time>
      </trkpt>
      <trkpt lat="42.75087" lon="0.64705">
        <ele>1725.9</ele>
        <time>2017-06-04T09:44:26.000Z</time>
      </trkpt>
      <trkpt lat="42.75087" lon="0.64704">
        <ele>1727</ele>
        <time>2017-06-04T09:44:41.000Z</time>
      </trkpt>
      <trkpt lat="42.75107" lon="0.64725">
        <ele>1734</ele>
        <time>2017-06-04T09:45:43.990Z</time>
      </trkpt>
      <trkpt lat="42.75108" lon="0.64726">
        <ele>1734.2</ele>
        <time>2017-06-04T09:45:44.990Z</time>
      </trkpt>
      <trkpt lat="42.75121" lon="0.64743">
        <ele>1738.1</ele>
        <time>2017-06-04T09:46:04.990Z</time>
      </trkpt>
      <trkpt lat="42.75136" lon="0.6476">
        <ele>1741.1</ele>
        <time>2017-06-04T09:46:23.990Z</time>
      </trkpt>
      <trkpt lat="42.75143" lon="0.64768">
        <ele>1743.3</ele>
        <time>2017-06-04T09:46:34.990Z</time>
      </trkpt>
      <trkpt lat="42.75158" lon="0.64784">
        <ele>1746.3</ele>
        <time>2017-06-04T09:46:56.000Z</time>
      </trkpt>
      <trkpt lat="42.75167" lon="0.64789">
        <ele>1747.5</ele>
        <time>2017-06-04T09:47:06.000Z</time>
      </trkpt>
      <trkpt lat="42.75174" lon="0.64795">
        <ele>1749.3</ele>
        <time>2017-06-04T09:47:16.000Z</time>
      </trkpt>
      <trkpt lat="42.75192" lon="0.64806">
        <ele>1750</ele>
        <time>2017-06-04T09:47:36.000Z</time>
      </trkpt>
      <trkpt lat="42.752" lon="0.64813">
        <ele>1750</ele>
        <time>2017-06-04T09:47:44.990Z</time>
      </trkpt>
      <trkpt lat="42.75209" lon="0.64818">
        <ele>1750.1</ele>
        <time>2017-06-04T09:47:53.990Z</time>
      </trkpt>
      <trkpt lat="42.75226" lon="0.64822">
        <ele>1752</ele>
        <time>2017-06-04T09:48:10.000Z</time>
      </trkpt>
      <trkpt lat="42.75229" lon="0.64822">
        <ele>1752</ele>
        <time>2017-06-04T09:48:12.000Z</time>
      </trkpt>
      <trkpt lat="42.7523" lon="0.64823">
        <ele>1752.1</ele>
        <time>2017-06-04T09:48:14.000Z</time>
      </trkpt>
      <trkpt lat="42.75232" lon="0.64824">
        <ele>1752.3</ele>
        <time>2017-06-04T09:48:16.000Z</time>
      </trkpt>
      <trkpt lat="42.75236" lon="0.64824">
        <ele>1752.7</ele>
        <time>2017-06-04T09:48:20.000Z</time>
      </trkpt>
      <trkpt lat="42.75239" lon="0.64823">
        <ele>1752.9</ele>
        <time>2017-06-04T09:48:22.000Z</time>
      </trkpt>
      <trkpt lat="42.75241" lon="0.64822">
        <ele>1753.1</ele>
        <time>2017-06-04T09:48:24.000Z</time>
      </trkpt>
      <trkpt lat="42.75245" lon="0.64821">
        <ele>1753.9</ele>
        <time>2017-06-04T09:48:28.000Z</time>
      </trkpt>
      <trkpt lat="42.75247" lon="0.6482">
        <ele>1754.3</ele>
        <time>2017-06-04T09:48:30.000Z</time>
      </trkpt>
      <trkpt lat="42.75252" lon="0.64819">
        <ele>1755</ele>
        <time>2017-06-04T09:48:35.000Z</time>
      </trkpt>
      <trkpt lat="42.75254" lon="0.64819">
        <ele>1755</ele>
        <time>2017-06-04T09:48:37.000Z</time>
      </trkpt>
      <trkpt lat="42.75261" lon="0.64818">
        <ele>1755</ele>
        <time>2017-06-04T09:48:43.000Z</time>
      </trkpt>
      <trkpt lat="42.75263" lon="0.64817">
        <ele>1755</ele>
        <time>2017-06-04T09:48:45.000Z</time>
      </trkpt>
      <trkpt lat="42.75264" lon="0.64814">
        <ele>1755</ele>
        <time>2017-06-04T09:48:47.000Z</time>
      </trkpt>
      <trkpt lat="42.75266" lon="0.64806">
        <ele>1755</ele>
        <time>2017-06-04T09:48:53.000Z</time>
      </trkpt>
      <trkpt lat="42.75269" lon="0.648">
        <ele>1755.7</ele>
        <time>2017-06-04T09:48:57.000Z</time>
      </trkpt>
      <trkpt lat="42.75271" lon="0.64795">
        <ele>1756.5</ele>
        <time>2017-06-04T09:49:01.000Z</time>
      </trkpt>
      <trkpt lat="42.75272" lon="0.64792">
        <ele>1756.9</ele>
        <time>2017-06-04T09:49:03.000Z</time>
      </trkpt>
      <trkpt lat="42.75272" lon="0.6479">
        <ele>1757</ele>
        <time>2017-06-04T09:49:12.000Z</time>
      </trkpt>
      <trkpt lat="42.75272" lon="0.64789">
        <ele>1756</ele>
        <time>2017-06-04T09:50:31.000Z</time>
      </trkpt>
      <trkpt lat="42.75274" lon="0.64786">
        <ele>1756.2</ele>
        <time>2017-06-04T09:50:33.000Z</time>
      </trkpt>
      <trkpt lat="42.7528" lon="0.64777">
        <ele>1757.1</ele>
        <time>2017-06-04T09:50:41.000Z</time>
      </trkpt>
      <trkpt lat="42.75284" lon="0.6477">
        <ele>1758.3</ele>
        <time>2017-06-04T09:50:47.000Z</time>
      </trkpt>
      <trkpt lat="42.75291" lon="0.64756">
        <ele>1761.9</ele>
        <time>2017-06-04T09:51:00.000Z</time>
      </trkpt>
      <trkpt lat="42.75292" lon="0.64753">
        <ele>1762.5</ele>
        <time>2017-06-04T09:51:03.000Z</time>
      </trkpt>
      <trkpt lat="42.75293" lon="0.6475">
        <ele>1762.9</ele>
        <time>2017-06-04T09:51:05.000Z</time>
      </trkpt>
      <trkpt lat="42.75295" lon="0.64748">
        <ele>1763.3</ele>
        <time>2017-06-04T09:51:07.000Z</time>
      </trkpt>
      <trkpt lat="42.75296" lon="0.64746">
        <ele>1763.7</ele>
        <time>2017-06-04T09:51:09.000Z</time>
      </trkpt>
      <trkpt lat="42.75296" lon="0.64744">
        <ele>1764</ele>
        <time>2017-06-04T09:51:11.000Z</time>
      </trkpt>
      <trkpt lat="42.75299" lon="0.64739">
        <ele>1764.5</ele>
        <time>2017-06-04T09:51:16.000Z</time>
      </trkpt>
      <trkpt lat="42.753" lon="0.64736">
        <ele>1764.8</ele>
        <time>2017-06-04T09:51:19.000Z</time>
      </trkpt>
      <trkpt lat="42.75302" lon="0.6473">
        <ele>1765.7</ele>
        <time>2017-06-04T09:51:24.000Z</time>
      </trkpt>
      <trkpt lat="42.75308" lon="0.64719">
        <ele>1768.6</ele>
        <time>2017-06-04T09:51:36.000Z</time>
      </trkpt>
      <trkpt lat="42.75309" lon="0.64717">
        <ele>1769.5</ele>
        <time>2017-06-04T09:51:39.000Z</time>
      </trkpt>
      <trkpt lat="42.75311" lon="0.64713">
        <ele>1770</ele>
        <time>2017-06-04T09:51:43.000Z</time>
      </trkpt>
      <trkpt lat="42.75312" lon="0.6471">
        <ele>1770</ele>
        <time>2017-06-04T09:51:47.000Z</time>
      </trkpt>
      <trkpt lat="42.75313" lon="0.64707">
        <ele>1770</ele>
        <time>2017-06-04T09:51:50.000Z</time>
      </trkpt>
      <trkpt lat="42.75315" lon="0.64702">
        <ele>1771.1</ele>
        <time>2017-06-04T09:51:56.000Z</time>
      </trkpt>
      <trkpt lat="42.75317" lon="0.64698">
        <ele>1772</ele>
        <time>2017-06-04T09:52:01.000Z</time>
      </trkpt>
      <trkpt lat="42.75318" lon="0.64696">
        <ele>1772.3</ele>
        <time>2017-06-04T09:52:04.000Z</time>
      </trkpt>
      <trkpt lat="42.75321" lon="0.64688">
        <ele>1773.7</ele>
        <time>2017-06-04T09:52:13.000Z</time>
      </trkpt>
      <trkpt lat="42.75322" lon="0.64686">
        <ele>1774.6</ele>
        <time>2017-06-04T09:52:16.000Z</time>
      </trkpt>
      <trkpt lat="42.75323" lon="0.64682">
        <ele>1775.8</ele>
        <time>2017-06-04T09:52:20.000Z</time>
      </trkpt>
      <trkpt lat="42.75324" lon="0.6468">
        <ele>1776</ele>
        <time>2017-06-04T09:52:23.000Z</time>
      </trkpt>
      <trkpt lat="42.75325" lon="0.64677">
        <ele>1776</ele>
        <time>2017-06-04T09:52:27.000Z</time>
      </trkpt>
      <trkpt lat="42.75326" lon="0.64674">
        <ele>1776</ele>
        <time>2017-06-04T09:52:30.000Z</time>
      </trkpt>
      <trkpt lat="42.75326" lon="0.64671">
        <ele>1776.5</ele>
        <time>2017-06-04T09:52:33.000Z</time>
      </trkpt>
      <trkpt lat="42.75327" lon="0.64668">
        <ele>1777.3</ele>
        <time>2017-06-04T09:52:37.000Z</time>
      </trkpt>
      <trkpt lat="42.75328" lon="0.64665">
        <ele>1777.9</ele>
        <time>2017-06-04T09:52:40.000Z</time>
      </trkpt>
      <trkpt lat="42.7533" lon="0.64663">
        <ele>1778.7</ele>
        <time>2017-06-04T09:52:44.000Z</time>
      </trkpt>
      <trkpt lat="42.75331" lon="0.64655">
        <ele>1780.7</ele>
        <time>2017-06-04T09:52:54.000Z</time>
      </trkpt>
      <trkpt lat="42.75333" lon="0.64654">
        <ele>1781.3</ele>
        <time>2017-06-04T09:52:57.000Z</time>
      </trkpt>
      <trkpt lat="42.75337" lon="0.64643">
        <ele>1784.4</ele>
        <time>2017-06-04T09:53:12.000Z</time>
      </trkpt>
      <trkpt lat="42.75338" lon="0.6464">
        <ele>1785.3</ele>
        <time>2017-06-04T09:53:15.000Z</time>
      </trkpt>
      <trkpt lat="42.7534" lon="0.64637">
        <ele>1787</ele>
        <time>2017-06-04T09:53:21.000Z</time>
      </trkpt>
      <trkpt lat="42.75342" lon="0.64629">
        <ele>1787.9</ele>
        <time>2017-06-04T09:53:30.000Z</time>
      </trkpt>
      <trkpt lat="42.75342" lon="0.64627">
        <ele>1788.5</ele>
        <time>2017-06-04T09:53:33.000Z</time>
      </trkpt>
      <trkpt lat="42.75344" lon="0.64625">
        <ele>1789.1</ele>
        <time>2017-06-04T09:53:36.000Z</time>
      </trkpt>
      <trkpt lat="42.75344" lon="0.64625">
        <ele>1789.3</ele>
        <time>2017-06-04T09:53:37.000Z</time>
      </trkpt>
      <trkpt lat="42.75345" lon="0.64622">
        <ele>1790.1</ele>
        <time>2017-06-04T09:53:41.000Z</time>
      </trkpt>
      <trkpt lat="42.75346" lon="0.64619">
        <ele>1790.4</ele>
        <time>2017-06-04T09:53:45.000Z</time>
      </trkpt>
      <trkpt lat="42.75347" lon="0.64615">
        <ele>1791.1</ele>
        <time>2017-06-04T09:53:51.000Z</time>
      </trkpt>
      <trkpt lat="42.75349" lon="0.64613">
        <ele>1791.9</ele>
        <time>2017-06-04T09:53:55.000Z</time>
      </trkpt>
      <trkpt lat="42.75349" lon="0.64612">
        <ele>1792.3</ele>
        <time>2017-06-04T09:53:57.000Z</time>
      </trkpt>
      <trkpt lat="42.75348" lon="0.64598">
        <ele>1794.4</ele>
        <time>2017-06-04T09:54:12.000Z</time>
      </trkpt>
      <trkpt lat="42.75349" lon="0.64593">
        <ele>1796.8</ele>
        <time>2017-06-04T09:54:20.000Z</time>
      </trkpt>
      <trkpt lat="42.75349" lon="0.64591">
        <ele>1797</ele>
        <time>2017-06-04T09:54:23.000Z</time>
      </trkpt>
      <trkpt lat="42.7535" lon="0.64588">
        <ele>1797</ele>
        <time>2017-06-04T09:54:26.000Z</time>
      </trkpt>
      <trkpt lat="42.75351" lon="0.64585">
        <ele>1797</ele>
        <time>2017-06-04T09:54:30.000Z</time>
      </trkpt>
      <trkpt lat="42.75351" lon="0.64583">
        <ele>1797.5</ele>
        <time>2017-06-04T09:54:33.000Z</time>
      </trkpt>
      <trkpt lat="42.75353" lon="0.64579">
        <ele>1798.9</ele>
        <time>2017-06-04T09:54:40.000Z</time>
      </trkpt>
      <trkpt lat="42.75358" lon="0.64543">
        <ele>1808.8</ele>
        <time>2017-06-04T09:55:29.000Z</time>
      </trkpt>
      <trkpt lat="42.75356" lon="0.64531">
        <ele>1812.1</ele>
        <time>2017-06-04T09:55:46.000Z</time>
      </trkpt>
      <trkpt lat="42.75356" lon="0.64525">
        <ele>1813.9</ele>
        <time>2017-06-04T09:55:55.000Z</time>
      </trkpt>
      <trkpt lat="42.75358" lon="0.64521">
        <ele>1815.4</ele>
        <time>2017-06-04T09:56:02.000Z</time>
      </trkpt>
      <trkpt lat="42.75358" lon="0.64512">
        <ele>1818.9</ele>
        <time>2017-06-04T09:56:15.000Z</time>
      </trkpt>
      <trkpt lat="42.75358" lon="0.6451">
        <ele>1820</ele>
        <time>2017-06-04T09:56:32.000Z</time>
      </trkpt>
      <trkpt lat="42.75345" lon="0.64455">
        <ele>1835.4</ele>
        <time>2017-06-04T10:03:03.000Z</time>
      </trkpt>
      <trkpt lat="42.75345" lon="0.64452">
        <ele>1836.7</ele>
        <time>2017-06-04T10:03:09.000Z</time>
      </trkpt>
      <trkpt lat="42.75345" lon="0.64449">
        <ele>1837.3</ele>
        <time>2017-06-04T10:03:12.000Z</time>
      </trkpt>
      <trkpt lat="42.75344" lon="0.64444">
        <ele>1838.4</ele>
        <time>2017-06-04T10:03:20.000Z</time>
      </trkpt>
      <trkpt lat="42.75342" lon="0.64436">
        <ele>1841.1</ele>
        <time>2017-06-04T10:03:36.000Z</time>
      </trkpt>
      <trkpt lat="42.75342" lon="0.64433">
        <ele>1841.9</ele>
        <time>2017-06-04T10:03:40.000Z</time>
      </trkpt>
      <trkpt lat="42.75342" lon="0.64433">
        <ele>1843</ele>
        <time>2017-06-04T10:03:46.000Z</time>
      </trkpt>
      <trkpt lat="42.75338" lon="0.64417">
        <ele>1844.5</ele>
        <time>2017-06-04T10:04:55.000Z</time>
      </trkpt>
      <trkpt lat="42.75338" lon="0.64411">
        <ele>1846.3</ele>
        <time>2017-06-04T10:05:03.000Z</time>
      </trkpt>
      <trkpt lat="42.75337" lon="0.64405">
        <ele>1847.8</ele>
        <time>2017-06-04T10:05:11.000Z</time>
      </trkpt>
      <trkpt lat="42.75336" lon="0.64402">
        <ele>1848.9</ele>
        <time>2017-06-04T10:05:15.000Z</time>
      </trkpt>
      <trkpt lat="42.75336" lon="0.64401">
        <ele>1849.2</ele>
        <time>2017-06-04T10:05:16.000Z</time>
      </trkpt>
      <trkpt lat="42.75334" lon="0.64399">
        <ele>1850.1</ele>
        <time>2017-06-04T10:05:19.000Z</time>
      </trkpt>
      <trkpt lat="42.75332" lon="0.64391">
        <ele>1851.7</ele>
        <time>2017-06-04T10:05:29.000Z</time>
      </trkpt>
      <trkpt lat="42.75327" lon="0.6438">
        <ele>1852.8</ele>
        <time>2017-06-04T10:05:40.000Z</time>
      </trkpt>
      <trkpt lat="42.75325" lon="0.64373">
        <ele>1854.3</ele>
        <time>2017-06-04T10:05:48.000Z</time>
      </trkpt>
      <trkpt lat="42.75323" lon="0.64367">
        <ele>1855.5</ele>
        <time>2017-06-04T10:05:54.000Z</time>
      </trkpt>
      <trkpt lat="42.75321" lon="0.64365">
        <ele>1855.9</ele>
        <time>2017-06-04T10:05:56.000Z</time>
      </trkpt>
      <trkpt lat="42.75315" lon="0.64349">
        <ele>1857.9</ele>
        <time>2017-06-04T10:06:10.000Z</time>
      </trkpt>
      <trkpt lat="42.75315" lon="0.64347">
        <ele>1858.1</ele>
        <time>2017-06-04T10:06:12.000Z</time>
      </trkpt>
      <trkpt lat="42.75316" lon="0.64337">
        <ele>1859</ele>
        <time>2017-06-04T10:06:22.000Z</time>
      </trkpt>
      <trkpt lat="42.75314" lon="0.64332">
        <ele>1860.1</ele>
        <time>2017-06-04T10:06:27.000Z</time>
      </trkpt>
      <trkpt lat="42.75313" lon="0.64328">
        <ele>1860.7</ele>
        <time>2017-06-04T10:06:30.000Z</time>
      </trkpt>
      <trkpt lat="42.75313" lon="0.64323">
        <ele>1861.3</ele>
        <time>2017-06-04T10:06:35.000Z</time>
      </trkpt>
      <trkpt lat="42.7531" lon="0.64312">
        <ele>1862.4</ele>
        <time>2017-06-04T10:06:46.000Z</time>
      </trkpt>
      <trkpt lat="42.7531" lon="0.64299">
        <ele>1864.1</ele>
        <time>2017-06-04T10:06:57.000Z</time>
      </trkpt>
      <trkpt lat="42.75307" lon="0.64268">
        <ele>1867.5</ele>
        <time>2017-06-04T10:07:26.000Z</time>
      </trkpt>
      <trkpt lat="42.75305" lon="0.64261">
        <ele>1868.1</ele>
        <time>2017-06-04T10:07:32.000Z</time>
      </trkpt>
      <trkpt lat="42.75304" lon="0.64252">
        <ele>1868.8</ele>
        <time>2017-06-04T10:07:40.000Z</time>
      </trkpt>
      <trkpt lat="42.75304" lon="0.64249">
        <ele>1869.4</ele>
        <time>2017-06-04T10:07:43.000Z</time>
      </trkpt>
      <trkpt lat="42.75303" lon="0.64243">
        <ele>1870.9</ele>
        <time>2017-06-04T10:07:48.000Z</time>
      </trkpt>
      <trkpt lat="42.75302" lon="0.64238">
        <ele>1872</ele>
        <time>2017-06-04T10:07:54.000Z</time>
      </trkpt>
      <trkpt lat="42.75301" lon="0.64211">
        <ele>1873.9</ele>
        <time>2017-06-04T10:08:21.000Z</time>
      </trkpt>
      <trkpt lat="42.753" lon="0.64208">
        <ele>1874.5</ele>
        <time>2017-06-04T10:08:24.000Z</time>
      </trkpt>
      <trkpt lat="42.753" lon="0.64202">
        <ele>1875.5</ele>
        <time>2017-06-04T10:08:29.000Z</time>
      </trkpt>
      <trkpt lat="42.753" lon="0.64199">
        <ele>1875.9</ele>
        <time>2017-06-04T10:08:31.000Z</time>
      </trkpt>
      <trkpt lat="42.75299" lon="0.64192">
        <ele>1877.3</ele>
        <time>2017-06-04T10:08:38.000Z</time>
      </trkpt>
      <trkpt lat="42.75299" lon="0.64189">
        <ele>1877.9</ele>
        <time>2017-06-04T10:08:41.000Z</time>
      </trkpt>
      <trkpt lat="42.75299" lon="0.6417">
        <ele>1879.1</ele>
        <time>2017-06-04T10:08:57.000Z</time>
      </trkpt>
      <trkpt lat="42.75299" lon="0.64167">
        <ele>1879.7</ele>
        <time>2017-06-04T10:09:00.000Z</time>
      </trkpt>
      <trkpt lat="42.753" lon="0.64164">
        <ele>1880.5</ele>
        <time>2017-06-04T10:09:03.000Z</time>
      </trkpt>
      <trkpt lat="42.75299" lon="0.64144">
        <ele>1883</ele>
        <time>2017-06-04T10:09:21.000Z</time>
      </trkpt>
      <trkpt lat="42.75298" lon="0.64141">
        <ele>1883.1</ele>
        <time>2017-06-04T10:09:23.000Z</time>
      </trkpt>
      <trkpt lat="42.75298" lon="0.64139">
        <ele>1883.3</ele>
        <time>2017-06-04T10:09:25.000Z</time>
      </trkpt>
      <trkpt lat="42.75296" lon="0.64127">
        <ele>1884.7</ele>
        <time>2017-06-04T10:09:35.000Z</time>
      </trkpt>
      <trkpt lat="42.75296" lon="0.64118">
        <ele>1886.3</ele>
        <time>2017-06-04T10:09:43.000Z</time>
      </trkpt>
      <trkpt lat="42.75294" lon="0.64104">
        <ele>1889</ele>
        <time>2017-06-04T10:10:18.000Z</time>
      </trkpt>
      <trkpt lat="42.75294" lon="0.641">
        <ele>1889</ele>
        <time>2017-06-04T10:10:22.000Z</time>
      </trkpt>
      <trkpt lat="42.75294" lon="0.64096">
        <ele>1889</ele>
        <time>2017-06-04T10:10:25.000Z</time>
      </trkpt>
      <trkpt lat="42.75292" lon="0.64086">
        <ele>1890.5</ele>
        <time>2017-06-04T10:10:34.000Z</time>
      </trkpt>
      <trkpt lat="42.75292" lon="0.64082">
        <ele>1891</ele>
        <time>2017-06-04T10:10:37.000Z</time>
      </trkpt>
      <trkpt lat="42.75292" lon="0.64079">
        <ele>1891.7</ele>
        <time>2017-06-04T10:10:40.000Z</time>
      </trkpt>
      <trkpt lat="42.75292" lon="0.64076">
        <ele>1892.3</ele>
        <time>2017-06-04T10:10:43.000Z</time>
      </trkpt>
      <trkpt lat="42.75291" lon="0.64075">
        <ele>1892.5</ele>
        <time>2017-06-04T10:10:44.000Z</time>
      </trkpt>
      <trkpt lat="42.75287" lon="0.64046">
        <ele>1895.3</ele>
        <time>2017-06-04T10:11:09.000Z</time>
      </trkpt>
      <trkpt lat="42.75286" lon="0.64043">
        <ele>1895.5</ele>
        <time>2017-06-04T10:11:12.000Z</time>
      </trkpt>
      <trkpt lat="42.75285" lon="0.64039">
        <ele>1895.8</ele>
        <time>2017-06-04T10:11:15.000Z</time>
      </trkpt>
      <trkpt lat="42.75284" lon="0.64036">
        <ele>1896.3</ele>
        <time>2017-06-04T10:11:18.000Z</time>
      </trkpt>
      <trkpt lat="42.75283" lon="0.64033">
        <ele>1896.9</ele>
        <time>2017-06-04T10:11:21.000Z</time>
      </trkpt>
      <trkpt lat="42.75281" lon="0.6403">
        <ele>1897.5</ele>
        <time>2017-06-04T10:11:24.000Z</time>
      </trkpt>
      <trkpt lat="42.75281" lon="0.64029">
        <ele>1897.7</ele>
        <time>2017-06-04T10:11:25.000Z</time>
      </trkpt>
      <trkpt lat="42.75279" lon="0.64027">
        <ele>1898.1</ele>
        <time>2017-06-04T10:11:27.000Z</time>
      </trkpt>
      <trkpt lat="42.75271" lon="0.64009">
        <ele>1900.8</ele>
        <time>2017-06-04T10:11:45.000Z</time>
      </trkpt>
      <trkpt lat="42.7527" lon="0.63998">
        <ele>1901.7</ele>
        <time>2017-06-04T10:11:54.000Z</time>
      </trkpt>
      <trkpt lat="42.7527" lon="0.63995">
        <ele>1901.9</ele>
        <time>2017-06-04T10:11:56.000Z</time>
      </trkpt>
      <trkpt lat="42.75271" lon="0.63992">
        <ele>1902.5</ele>
        <time>2017-06-04T10:11:59.000Z</time>
      </trkpt>
      <trkpt lat="42.75272" lon="0.6399">
        <ele>1903.1</ele>
        <time>2017-06-04T10:12:02.000Z</time>
      </trkpt>
      <trkpt lat="42.75271" lon="0.63973">
        <ele>1905.7</ele>
        <time>2017-06-04T10:12:15.000Z</time>
      </trkpt>
      <trkpt lat="42.75273" lon="0.63964">
        <ele>1906.6</ele>
        <time>2017-06-04T10:12:23.000Z</time>
      </trkpt>
      <trkpt lat="42.75273" lon="0.63962">
        <ele>1906.8</ele>
        <time>2017-06-04T10:12:25.000Z</time>
      </trkpt>
      <trkpt lat="42.75274" lon="0.63959">
        <ele>1907</ele>
        <time>2017-06-04T10:12:27.000Z</time>
      </trkpt>
      <trkpt lat="42.75274" lon="0.63956">
        <ele>1907.2</ele>
        <time>2017-06-04T10:12:29.000Z</time>
      </trkpt>
      <trkpt lat="42.75275" lon="0.63946">
        <ele>1908.1</ele>
        <time>2017-06-04T10:12:37.000Z</time>
      </trkpt>
      <trkpt lat="42.75281" lon="0.63929">
        <ele>1910.7</ele>
        <time>2017-06-04T10:12:54.000Z</time>
      </trkpt>
      <trkpt lat="42.75283" lon="0.6392">
        <ele>1911</ele>
        <time>2017-06-04T10:13:03.000Z</time>
      </trkpt>
      <trkpt lat="42.75286" lon="0.63915">
        <ele>1911.5</ele>
        <time>2017-06-04T10:13:09.000Z</time>
      </trkpt>
      <trkpt lat="42.75288" lon="0.63912">
        <ele>1912.3</ele>
        <time>2017-06-04T10:13:13.000Z</time>
      </trkpt>
      <trkpt lat="42.75291" lon="0.63907">
        <ele>1913.5</ele>
        <time>2017-06-04T10:13:19.000Z</time>
      </trkpt>
      <trkpt lat="42.75291" lon="0.63906">
        <ele>1913.7</ele>
        <time>2017-06-04T10:13:20.000Z</time>
      </trkpt>
      <trkpt lat="42.75292" lon="0.63904">
        <ele>1914.3</ele>
        <time>2017-06-04T10:13:23.000Z</time>
      </trkpt>
      <trkpt lat="42.75294" lon="0.63898">
        <ele>1915.5</ele>
        <time>2017-06-04T10:13:29.000Z</time>
      </trkpt>
      <trkpt lat="42.75294" lon="0.63897">
        <ele>1915.7</ele>
        <time>2017-06-04T10:13:30.000Z</time>
      </trkpt>
      <trkpt lat="42.75296" lon="0.63891">
        <ele>1916.9</ele>
        <time>2017-06-04T10:13:36.000Z</time>
      </trkpt>
      <trkpt lat="42.753" lon="0.63883">
        <ele>1918.8</ele>
        <time>2017-06-04T10:13:46.000Z</time>
      </trkpt>
      <trkpt lat="42.753" lon="0.6388">
        <ele>1919.7</ele>
        <time>2017-06-04T10:13:54.000Z</time>
      </trkpt>
      <trkpt lat="42.75301" lon="0.63877">
        <ele>1920</ele>
        <time>2017-06-04T10:13:57.000Z</time>
      </trkpt>
      <trkpt lat="42.75305" lon="0.63868">
        <ele>1920.9</ele>
        <time>2017-06-04T10:14:06.000Z</time>
      </trkpt>
      <trkpt lat="42.75306" lon="0.63865">
        <ele>1921.5</ele>
        <time>2017-06-04T10:14:09.000Z</time>
      </trkpt>
      <trkpt lat="42.75306" lon="0.63858">
        <ele>1922.7</ele>
        <time>2017-06-04T10:14:15.000Z</time>
      </trkpt>
      <trkpt lat="42.75307" lon="0.63855">
        <ele>1923.1</ele>
        <time>2017-06-04T10:14:18.000Z</time>
      </trkpt>
      <trkpt lat="42.7531" lon="0.63847">
        <ele>1924.1</ele>
        <time>2017-06-04T10:14:27.000Z</time>
      </trkpt>
      <trkpt lat="42.75313" lon="0.63846">
        <ele>1924.7</ele>
        <time>2017-06-04T10:14:30.000Z</time>
      </trkpt>
      <trkpt lat="42.75314" lon="0.63848">
        <ele>1925.3</ele>
        <time>2017-06-04T10:14:33.000Z</time>
      </trkpt>
      <trkpt lat="42.75314" lon="0.63849">
        <ele>1925.7</ele>
        <time>2017-06-04T10:14:35.000Z</time>
      </trkpt>
      <trkpt lat="42.75314" lon="0.63849">
        <ele>1928</ele>
        <time>2017-06-04T10:14:45.000Z</time>
      </trkpt>
      <trkpt lat="42.75316" lon="0.63854">
        <ele>1927.1</ele>
        <time>2017-06-04T10:15:21.000Z</time>
      </trkpt>
      <trkpt lat="42.75336" lon="0.63887">
        <ele>1932</ele>
        <time>2017-06-04T10:17:15.000Z</time>
      </trkpt>
      <trkpt lat="42.75342" lon="0.63895">
        <ele>1934</ele>
        <time>2017-06-04T10:17:26.000Z</time>
      </trkpt>
      <trkpt lat="42.75343" lon="0.63898">
        <ele>1934</ele>
        <time>2017-06-04T10:17:29.000Z</time>
      </trkpt>
      <trkpt lat="42.75345" lon="0.639">
        <ele>1934</ele>
        <time>2017-06-04T10:17:31.000Z</time>
      </trkpt>
      <trkpt lat="42.75366" lon="0.63931">
        <ele>1938.5</ele>
        <time>2017-06-04T10:18:04.000Z</time>
      </trkpt>
      <trkpt lat="42.75368" lon="0.63933">
        <ele>1938.9</ele>
        <time>2017-06-04T10:18:06.000Z</time>
      </trkpt>
      <trkpt lat="42.75369" lon="0.63935">
        <ele>1939.3</ele>
        <time>2017-06-04T10:18:08.000Z</time>
      </trkpt>
      <trkpt lat="42.75382" lon="0.63954">
        <ele>1943</ele>
        <time>2017-06-04T10:18:30.000Z</time>
      </trkpt>
      <trkpt lat="42.75384" lon="0.63956">
        <ele>1943.1</ele>
        <time>2017-06-04T10:18:33.000Z</time>
      </trkpt>
      <trkpt lat="42.75386" lon="0.63957">
        <ele>1943.3</ele>
        <time>2017-06-04T10:18:35.000Z</time>
      </trkpt>
      <trkpt lat="42.75387" lon="0.63959">
        <ele>1943.5</ele>
        <time>2017-06-04T10:18:37.000Z</time>
      </trkpt>
      <trkpt lat="42.75393" lon="0.63969">
        <ele>1945.2</ele>
        <time>2017-06-04T10:18:54.000Z</time>
      </trkpt>
      <trkpt lat="42.75394" lon="0.63971">
        <ele>1945.4</ele>
        <time>2017-06-04T10:18:56.000Z</time>
      </trkpt>
      <trkpt lat="42.75396" lon="0.63973">
        <ele>1945.6</ele>
        <time>2017-06-04T10:18:58.000Z</time>
      </trkpt>
      <trkpt lat="42.75397" lon="0.63975">
        <ele>1945.8</ele>
        <time>2017-06-04T10:19:00.000Z</time>
      </trkpt>
      <trkpt lat="42.75405" lon="0.63989">
        <ele>1951</ele>
        <time>2017-06-04T10:19:14.000Z</time>
      </trkpt>
      <trkpt lat="42.75406" lon="0.63992">
        <ele>1951</ele>
        <time>2017-06-04T10:19:16.000Z</time>
      </trkpt>
      <trkpt lat="42.75407" lon="0.63994">
        <ele>1951</ele>
        <time>2017-06-04T10:19:18.000Z</time>
      </trkpt>
      <trkpt lat="42.75412" lon="0.64004">
        <ele>1951.6</ele>
        <time>2017-06-04T10:19:28.000Z</time>
      </trkpt>
      <trkpt lat="42.75413" lon="0.64009">
        <ele>1952</ele>
        <time>2017-06-04T10:19:32.000Z</time>
      </trkpt>
      <trkpt lat="42.75415" lon="0.64012">
        <ele>1952.6</ele>
        <time>2017-06-04T10:19:35.000Z</time>
      </trkpt>
      <trkpt lat="42.75416" lon="0.64015">
        <ele>1953.1</ele>
        <time>2017-06-04T10:19:37.000Z</time>
      </trkpt>
      <trkpt lat="42.75417" lon="0.64017">
        <ele>1953.5</ele>
        <time>2017-06-04T10:19:39.000Z</time>
      </trkpt>
      <trkpt lat="42.75418" lon="0.6402">
        <ele>1953.9</ele>
        <time>2017-06-04T10:19:41.000Z</time>
      </trkpt>
      <trkpt lat="42.75418" lon="0.64026">
        <ele>1954</ele>
        <time>2017-06-04T10:19:45.000Z</time>
      </trkpt>
      <trkpt lat="42.75418" lon="0.64028">
        <ele>1954</ele>
        <time>2017-06-04T10:19:47.000Z</time>
      </trkpt>
      <trkpt lat="42.75427" lon="0.64068">
        <ele>1960.5</ele>
        <time>2017-06-04T10:20:19.000Z</time>
      </trkpt>
      <trkpt lat="42.75428" lon="0.6407">
        <ele>1960.9</ele>
        <time>2017-06-04T10:20:21.000Z</time>
      </trkpt>
      <trkpt lat="42.75429" lon="0.64075">
        <ele>1961.3</ele>
        <time>2017-06-04T10:20:25.000Z</time>
      </trkpt>
      <trkpt lat="42.75431" lon="0.64077">
        <ele>1961.6</ele>
        <time>2017-06-04T10:20:28.000Z</time>
      </trkpt>
      <trkpt lat="42.75432" lon="0.64076">
        <ele>1961.8</ele>
        <time>2017-06-04T10:20:30.000Z</time>
      </trkpt>
      <trkpt lat="42.7545" lon="0.64025">
        <ele>1969.6</ele>
        <time>2017-06-04T10:21:28.000Z</time>
      </trkpt>
      <trkpt lat="42.75451" lon="0.64023">
        <ele>1969.8</ele>
        <time>2017-06-04T10:21:30.000Z</time>
      </trkpt>
      <trkpt lat="42.75453" lon="0.6402">
        <ele>1970.4</ele>
        <time>2017-06-04T10:21:33.000Z</time>
      </trkpt>
      <trkpt lat="42.75454" lon="0.64018">
        <ele>1971</ele>
        <time>2017-06-04T10:21:35.000Z</time>
      </trkpt>
      <trkpt lat="42.75456" lon="0.64013">
        <ele>1972.2</ele>
        <time>2017-06-04T10:21:39.000Z</time>
      </trkpt>
      <trkpt lat="42.75456" lon="0.64011">
        <ele>1973</ele>
        <time>2017-06-04T10:21:42.000Z</time>
      </trkpt>
      <trkpt lat="42.75458" lon="0.64005">
        <ele>1971</ele>
        <time>2017-06-04T10:22:15.000Z</time>
      </trkpt>
      <trkpt lat="42.75457" lon="0.64003">
        <ele>1971</ele>
        <time>2017-06-04T10:22:17.000Z</time>
      </trkpt>
      <trkpt lat="42.75461" lon="0.63999">
        <ele>1972</ele>
        <time>2017-06-04T10:22:59.000Z</time>
      </trkpt>
      <trkpt lat="42.75463" lon="0.63998">
        <ele>1972</ele>
        <time>2017-06-04T10:23:01.000Z</time>
      </trkpt>
      <trkpt lat="42.75464" lon="0.63996">
        <ele>1972</ele>
        <time>2017-06-04T10:23:03.000Z</time>
      </trkpt>
      <trkpt lat="42.75468" lon="0.63995">
        <ele>1972</ele>
        <time>2017-06-04T10:23:09.000Z</time>
      </trkpt>
      <trkpt lat="42.75471" lon="0.6399">
        <ele>1972</ele>
        <time>2017-06-04T10:23:13.000Z</time>
      </trkpt>
      <trkpt lat="42.75472" lon="0.63988">
        <ele>1972</ele>
        <time>2017-06-04T10:23:15.000Z</time>
      </trkpt>
      <trkpt lat="42.75474" lon="0.63986">
        <ele>1972</ele>
        <time>2017-06-04T10:23:17.000Z</time>
      </trkpt>
      <trkpt lat="42.75477" lon="0.63981">
        <ele>1973.3</ele>
        <time>2017-06-04T10:23:23.000Z</time>
      </trkpt>
      <trkpt lat="42.75477" lon="0.63974">
        <ele>1975</ele>
        <time>2017-06-04T10:23:30.000Z</time>
      </trkpt>
      <trkpt lat="42.75478" lon="0.63971">
        <ele>1975</ele>
        <time>2017-06-04T10:23:33.000Z</time>
      </trkpt>
      <trkpt lat="42.7548" lon="0.63966">
        <ele>1975</ele>
        <time>2017-06-04T10:23:38.000Z</time>
      </trkpt>
      <trkpt lat="42.75482" lon="0.63964">
        <ele>1975.2</ele>
        <time>2017-06-04T10:23:41.000Z</time>
      </trkpt>
      <trkpt lat="42.75487" lon="0.63946">
        <ele>1976.6</ele>
        <time>2017-06-04T10:23:54.000Z</time>
      </trkpt>
      <trkpt lat="42.75488" lon="0.63937">
        <ele>1977</ele>
        <time>2017-06-04T10:24:00.000Z</time>
      </trkpt>
      <trkpt lat="42.75488" lon="0.63935">
        <ele>1977</ele>
        <time>2017-06-04T10:24:02.000Z</time>
      </trkpt>
      <trkpt lat="42.75489" lon="0.63932">
        <ele>1977</ele>
        <time>2017-06-04T10:24:04.000Z</time>
      </trkpt>
      <trkpt lat="42.75491" lon="0.63923">
        <ele>1977.3</ele>
        <time>2017-06-04T10:24:12.000Z</time>
      </trkpt>
      <trkpt lat="42.75491" lon="0.63923">
        <ele>1978</ele>
        <time>2017-06-04T10:24:21.000Z</time>
      </trkpt>
      <trkpt lat="42.75492" lon="0.6392">
        <ele>1979</ele>
        <time>2017-06-04T10:25:37.000Z</time>
      </trkpt>
      <trkpt lat="42.75492" lon="0.6392">
        <ele>1979</ele>
        <time>2017-06-04T10:25:42.000Z</time>
      </trkpt>
      <trkpt lat="42.75465" lon="0.6401">
        <ele>1974</ele>
        <time>2017-06-04T11:38:55.000Z</time>
      </trkpt>
      <trkpt lat="42.75466" lon="0.64015">
        <ele>1973.9</ele>
        <time>2017-06-04T11:39:01.000Z</time>
      </trkpt>
      <trkpt lat="42.75464" lon="0.64022">
        <ele>1972.8</ele>
        <time>2017-06-04T11:39:06.000Z</time>
      </trkpt>
      <trkpt lat="42.75463" lon="0.64025">
        <ele>1972.1</ele>
        <time>2017-06-04T11:39:09.000Z</time>
      </trkpt>
      <trkpt lat="42.75463" lon="0.64028">
        <ele>1972.9</ele>
        <time>2017-06-04T11:39:11.000Z</time>
      </trkpt>
      <trkpt lat="42.75457" lon="0.64051">
        <ele>1973</ele>
        <time>2017-06-04T11:39:30.000Z</time>
      </trkpt>
      <trkpt lat="42.75457" lon="0.64055">
        <ele>1972.7</ele>
        <time>2017-06-04T11:39:33.000Z</time>
      </trkpt>
      <trkpt lat="42.75455" lon="0.64063">
        <ele>1972.1</ele>
        <time>2017-06-04T11:39:39.000Z</time>
      </trkpt>
      <trkpt lat="42.75455" lon="0.64067">
        <ele>1971.9</ele>
        <time>2017-06-04T11:39:41.000Z</time>
      </trkpt>
      <trkpt lat="42.75454" lon="0.64072">
        <ele>1971.4</ele>
        <time>2017-06-04T11:39:45.000Z</time>
      </trkpt>
      <trkpt lat="42.75452" lon="0.64078">
        <ele>1971</ele>
        <time>2017-06-04T11:39:49.000Z</time>
      </trkpt>
      <trkpt lat="42.75447" lon="0.6409">
        <ele>1969.1</ele>
        <time>2017-06-04T11:39:59.000Z</time>
      </trkpt>
      <trkpt lat="42.75447" lon="0.64093">
        <ele>1968.7</ele>
        <time>2017-06-04T11:40:01.000Z</time>
      </trkpt>
      <trkpt lat="42.75447" lon="0.64094">
        <ele>1968.5</ele>
        <time>2017-06-04T11:40:02.000Z</time>
      </trkpt>
      <trkpt lat="42.75446" lon="0.64096">
        <ele>1968.1</ele>
        <time>2017-06-04T11:40:04.000Z</time>
      </trkpt>
      <trkpt lat="42.75445" lon="0.64104">
        <ele>1966.9</ele>
        <time>2017-06-04T11:40:10.000Z</time>
      </trkpt>
      <trkpt lat="42.75445" lon="0.64108">
        <ele>1966.5</ele>
        <time>2017-06-04T11:40:12.000Z</time>
      </trkpt>
      <trkpt lat="42.75444" lon="0.64111">
        <ele>1965.9</ele>
        <time>2017-06-04T11:40:15.000Z</time>
      </trkpt>
      <trkpt lat="42.75444" lon="0.64117">
        <ele>1965.1</ele>
        <time>2017-06-04T11:40:19.000Z</time>
      </trkpt>
      <trkpt lat="42.75445" lon="0.64134">
        <ele>1964.7</ele>
        <time>2017-06-04T11:40:33.000Z</time>
      </trkpt>
      <trkpt lat="42.75446" lon="0.64137">
        <ele>1964.5</ele>
        <time>2017-06-04T11:40:35.000Z</time>
      </trkpt>
      <trkpt lat="42.75446" lon="0.64145">
        <ele>1963.9</ele>
        <time>2017-06-04T11:40:41.000Z</time>
      </trkpt>
      <trkpt lat="42.75446" lon="0.64149">
        <ele>1963.7</ele>
        <time>2017-06-04T11:40:43.000Z</time>
      </trkpt>
      <trkpt lat="42.75446" lon="0.64152">
        <ele>1963.5</ele>
        <time>2017-06-04T11:40:45.000Z</time>
      </trkpt>
      <trkpt lat="42.75447" lon="0.64161">
        <ele>1962.8</ele>
        <time>2017-06-04T11:40:52.000Z</time>
      </trkpt>
      <trkpt lat="42.75448" lon="0.64163">
        <ele>1962.5</ele>
        <time>2017-06-04T11:40:55.000Z</time>
      </trkpt>
      <trkpt lat="42.7545" lon="0.64168">
        <ele>1961.9</ele>
        <time>2017-06-04T11:41:00.000Z</time>
      </trkpt>
      <trkpt lat="42.75451" lon="0.64171">
        <ele>1961.3</ele>
        <time>2017-06-04T11:41:03.000Z</time>
      </trkpt>
      <trkpt lat="42.75452" lon="0.64175">
        <ele>1960.5</ele>
        <time>2017-06-04T11:41:07.000Z</time>
      </trkpt>
      <trkpt lat="42.75454" lon="0.64177">
        <ele>1960.1</ele>
        <time>2017-06-04T11:41:09.000Z</time>
      </trkpt>
      <trkpt lat="42.75456" lon="0.64182">
        <ele>1959.3</ele>
        <time>2017-06-04T11:41:13.000Z</time>
      </trkpt>
      <trkpt lat="42.75457" lon="0.64184">
        <ele>1958.9</ele>
        <time>2017-06-04T11:41:15.000Z</time>
      </trkpt>
      <trkpt lat="42.75463" lon="0.64194">
        <ele>1957.5</ele>
        <time>2017-06-04T11:41:25.000Z</time>
      </trkpt>
      <trkpt lat="42.75463" lon="0.64197">
        <ele>1957.2</ele>
        <time>2017-06-04T11:41:28.000Z</time>
      </trkpt>
      <trkpt lat="42.75463" lon="0.64198">
        <ele>1957</ele>
        <time>2017-06-04T11:41:37.000Z</time>
      </trkpt>
      <trkpt lat="42.75459" lon="0.64189">
        <ele>1958</ele>
        <time>2017-06-04T11:42:17.000Z</time>
      </trkpt>
      <trkpt lat="42.75457" lon="0.64185">
        <ele>1958</ele>
        <time>2017-06-04T11:42:20.000Z</time>
      </trkpt>
      <trkpt lat="42.75455" lon="0.64182">
        <ele>1958</ele>
        <time>2017-06-04T11:42:22.000Z</time>
      </trkpt>
      <trkpt lat="42.75455" lon="0.6418">
        <ele>1958</ele>
        <time>2017-06-04T11:42:24.000Z</time>
      </trkpt>
      <trkpt lat="42.75452" lon="0.64172">
        <ele>1958.6</ele>
        <time>2017-06-04T11:42:30.000Z</time>
      </trkpt>
      <trkpt lat="42.75451" lon="0.64169">
        <ele>1959</ele>
        <time>2017-06-04T11:42:32.000Z</time>
      </trkpt>
      <trkpt lat="42.75451" lon="0.64165">
        <ele>1959.6</ele>
        <time>2017-06-04T11:42:35.000Z</time>
      </trkpt>
      <trkpt lat="42.7545" lon="0.64162">
        <ele>1960</ele>
        <time>2017-06-04T11:42:37.000Z</time>
      </trkpt>
      <trkpt lat="42.75448" lon="0.64161">
        <ele>1960.3</ele>
        <time>2017-06-04T11:42:40.000Z</time>
      </trkpt>
      <trkpt lat="42.75447" lon="0.64158">
        <ele>1960.5</ele>
        <time>2017-06-04T11:42:42.000Z</time>
      </trkpt>
      <trkpt lat="42.75447" lon="0.64155">
        <ele>1960.9</ele>
        <time>2017-06-04T11:42:46.000Z</time>
      </trkpt>
      <trkpt lat="42.75446" lon="0.64153">
        <ele>1961.4</ele>
        <time>2017-06-04T11:42:49.000Z</time>
      </trkpt>
      <trkpt lat="42.75445" lon="0.64144">
        <ele>1962.6</ele>
        <time>2017-06-04T11:42:55.000Z</time>
      </trkpt>
      <trkpt lat="42.75445" lon="0.64143">
        <ele>1962.9</ele>
        <time>2017-06-04T11:42:56.000Z</time>
      </trkpt>
      <trkpt lat="42.75445" lon="0.64135">
        <ele>1964.1</ele>
        <time>2017-06-04T11:43:02.000Z</time>
      </trkpt>
      <trkpt lat="42.75443" lon="0.64129">
        <ele>1964.7</ele>
        <time>2017-06-04T11:43:10.000Z</time>
      </trkpt>
      <trkpt lat="42.75442" lon="0.64127">
        <ele>1964.5</ele>
        <time>2017-06-04T11:43:12.000Z</time>
      </trkpt>
      <trkpt lat="42.75441" lon="0.64123">
        <ele>1964.3</ele>
        <time>2017-06-04T11:43:14.000Z</time>
      </trkpt>
      <trkpt lat="42.75441" lon="0.64117">
        <ele>1964.2</ele>
        <time>2017-06-04T11:43:18.000Z</time>
      </trkpt>
      <trkpt lat="42.75439" lon="0.64109">
        <ele>1964.7</ele>
        <time>2017-06-04T11:43:24.000Z</time>
      </trkpt>
      <trkpt lat="42.75437" lon="0.64107">
        <ele>1964.9</ele>
        <time>2017-06-04T11:43:26.000Z</time>
      </trkpt>
      <trkpt lat="42.75431" lon="0.64088">
        <ele>1965</ele>
        <time>2017-06-04T11:43:41.000Z</time>
      </trkpt>
      <trkpt lat="42.75432" lon="0.64082">
        <ele>1965</ele>
        <time>2017-06-04T11:43:45.000Z</time>
      </trkpt>
      <trkpt lat="42.75431" lon="0.64079">
        <ele>1965</ele>
        <time>2017-06-04T11:43:47.000Z</time>
      </trkpt>
      <trkpt lat="42.75423" lon="0.64058">
        <ele>1962</ele>
        <time>2017-06-04T11:44:03.990Z</time>
      </trkpt>
      <trkpt lat="42.75418" lon="0.64032">
        <ele>1960.6</ele>
        <time>2017-06-04T11:44:38.990Z</time>
      </trkpt>
      <trkpt lat="42.75418" lon="0.6402">
        <ele>1956.8</ele>
        <time>2017-06-04T11:44:45.990Z</time>
      </trkpt>
      <trkpt lat="42.75392" lon="0.63967">
        <ele>1951</ele>
        <time>2017-06-04T11:45:31.990Z</time>
      </trkpt>
      <trkpt lat="42.75357" lon="0.63923">
        <ele>1942.7</ele>
        <time>2017-06-04T11:46:20.000Z</time>
      </trkpt>
      <trkpt lat="42.75349" lon="0.63914">
        <ele>1941.9</ele>
        <time>2017-06-04T11:46:27.990Z</time>
      </trkpt>
      <trkpt lat="42.75344" lon="0.63905">
        <ele>1940.3</ele>
        <time>2017-06-04T11:46:35.990Z</time>
      </trkpt>
      <trkpt lat="42.75336" lon="0.63898">
        <ele>1938.5</ele>
        <time>2017-06-04T11:46:45.000Z</time>
      </trkpt>
      <trkpt lat="42.75331" lon="0.63887">
        <ele>1937.3</ele>
        <time>2017-06-04T11:46:53.990Z</time>
      </trkpt>
      <trkpt lat="42.75323" lon="0.63877">
        <ele>1935.9</ele>
        <time>2017-06-04T11:47:02.990Z</time>
      </trkpt>
      <trkpt lat="42.75312" lon="0.63858">
        <ele>1933.7</ele>
        <time>2017-06-04T11:47:20.000Z</time>
      </trkpt>
      <trkpt lat="42.75305" lon="0.63857">
        <ele>1929</ele>
        <time>2017-06-04T11:47:56.990Z</time>
      </trkpt>
      <trkpt lat="42.75293" lon="0.63894">
        <ele>1925</ele>
        <time>2017-06-04T11:48:46.990Z</time>
      </trkpt>
      <trkpt lat="42.75289" lon="0.63904">
        <ele>1923</ele>
        <time>2017-06-04T11:48:53.990Z</time>
      </trkpt>
      <trkpt lat="42.75281" lon="0.63914">
        <ele>1920.2</ele>
        <time>2017-06-04T11:49:11.990Z</time>
      </trkpt>
      <trkpt lat="42.75279" lon="0.63927">
        <ele>1918.8</ele>
        <time>2017-06-04T11:49:23.990Z</time>
      </trkpt>
      <trkpt lat="42.75271" lon="0.63949">
        <ele>1915.4</ele>
        <time>2017-06-04T11:49:38.990Z</time>
      </trkpt>
      <trkpt lat="42.75266" lon="0.63987">
        <ele>1910.9</ele>
        <time>2017-06-04T11:50:03.990Z</time>
      </trkpt>
      <trkpt lat="42.75266" lon="0.64">
        <ele>1909.3</ele>
        <time>2017-06-04T11:50:11.990Z</time>
      </trkpt>
      <trkpt lat="42.75269" lon="0.64012">
        <ele>1908.2</ele>
        <time>2017-06-04T11:50:20.990Z</time>
      </trkpt>
      <trkpt lat="42.75278" lon="0.64029">
        <ele>1906</ele>
        <time>2017-06-04T11:51:31.990Z</time>
      </trkpt>
      <trkpt lat="42.7528" lon="0.64034">
        <ele>1905.4</ele>
        <time>2017-06-04T11:51:35.000Z</time>
      </trkpt>
      <trkpt lat="42.75282" lon="0.64046">
        <ele>1904</ele>
        <time>2017-06-04T11:51:42.000Z</time>
      </trkpt>
      <trkpt lat="42.75291" lon="0.64078">
        <ele>1900.7</ele>
        <time>2017-06-04T11:52:00.000Z</time>
      </trkpt>
      <trkpt lat="42.75292" lon="0.64082">
        <ele>1899.9</ele>
        <time>2017-06-04T11:52:02.000Z</time>
      </trkpt>
      <trkpt lat="42.75292" lon="0.64086">
        <ele>1899.1</ele>
        <time>2017-06-04T11:52:04.000Z</time>
      </trkpt>
      <trkpt lat="42.75295" lon="0.64112">
        <ele>1895.4</ele>
        <time>2017-06-04T11:52:18.000Z</time>
      </trkpt>
      <trkpt lat="42.75295" lon="0.6412">
        <ele>1895</ele>
        <time>2017-06-04T11:52:22.000Z</time>
      </trkpt>
      <trkpt lat="42.75298" lon="0.64149">
        <ele>1892.1</ele>
        <time>2017-06-04T11:52:38.000Z</time>
      </trkpt>
      <trkpt lat="42.75298" lon="0.64153">
        <ele>1891.5</ele>
        <time>2017-06-04T11:52:40.000Z</time>
      </trkpt>
      <trkpt lat="42.75294" lon="0.64162">
        <ele>1889.3</ele>
        <time>2017-06-04T11:52:46.000Z</time>
      </trkpt>
      <trkpt lat="42.75287" lon="0.64172">
        <ele>1885.3</ele>
        <time>2017-06-04T11:52:55.000Z</time>
      </trkpt>
      <trkpt lat="42.75285" lon="0.64174">
        <ele>1883.8</ele>
        <time>2017-06-04T11:52:58.000Z</time>
      </trkpt>
      <trkpt lat="42.75284" lon="0.64179">
        <ele>1881.9</ele>
        <time>2017-06-04T11:53:02.000Z</time>
      </trkpt>
      <trkpt lat="42.75283" lon="0.64182">
        <ele>1881.3</ele>
        <time>2017-06-04T11:53:04.000Z</time>
      </trkpt>
      <trkpt lat="42.75282" lon="0.64184">
        <ele>1880.7</ele>
        <time>2017-06-04T11:53:06.000Z</time>
      </trkpt>
      <trkpt lat="42.75281" lon="0.64186">
        <ele>1880.1</ele>
        <time>2017-06-04T11:53:08.000Z</time>
      </trkpt>
      <trkpt lat="42.75271" lon="0.642">
        <ele>1875.5</ele>
        <time>2017-06-04T11:53:47.000Z</time>
      </trkpt>
      <trkpt lat="42.75267" lon="0.64201">
        <ele>1873.3</ele>
        <time>2017-06-04T11:53:51.000Z</time>
      </trkpt>
      <trkpt lat="42.75267" lon="0.64205">
        <ele>1871.8</ele>
        <time>2017-06-04T11:53:54.000Z</time>
      </trkpt>
      <trkpt lat="42.75265" lon="0.64209">
        <ele>1870.3</ele>
        <time>2017-06-04T11:53:57.000Z</time>
      </trkpt>
      <trkpt lat="42.75265" lon="0.64212">
        <ele>1868.9</ele>
        <time>2017-06-04T11:54:00.000Z</time>
      </trkpt>
      <trkpt lat="42.75263" lon="0.64215">
        <ele>1867.3</ele>
        <time>2017-06-04T11:54:03.000Z</time>
      </trkpt>
      <trkpt lat="42.75261" lon="0.64219">
        <ele>1864.9</ele>
        <time>2017-06-04T11:54:07.000Z</time>
      </trkpt>
      <trkpt lat="42.75261" lon="0.64221">
        <ele>1863.7</ele>
        <time>2017-06-04T11:54:09.000Z</time>
      </trkpt>
      <trkpt lat="42.7526" lon="0.64227">
        <ele>1861.6</ele>
        <time>2017-06-04T11:54:14.000Z</time>
      </trkpt>
      <trkpt lat="42.75258" lon="0.64231">
        <ele>1860.7</ele>
        <time>2017-06-04T11:54:18.000Z</time>
      </trkpt>
      <trkpt lat="42.75257" lon="0.64234">
        <ele>1860.3</ele>
        <time>2017-06-04T11:54:20.000Z</time>
      </trkpt>
      <trkpt lat="42.75257" lon="0.64244">
        <ele>1859.5</ele>
        <time>2017-06-04T11:54:27.000Z</time>
      </trkpt>
      <trkpt lat="42.75256" lon="0.64246">
        <ele>1859.3</ele>
        <time>2017-06-04T11:54:29.000Z</time>
      </trkpt>
      <trkpt lat="42.75257" lon="0.6425">
        <ele>1859.1</ele>
        <time>2017-06-04T11:54:31.000Z</time>
      </trkpt>
      <trkpt lat="42.75256" lon="0.64253">
        <ele>1858.3</ele>
        <time>2017-06-04T11:54:33.000Z</time>
      </trkpt>
      <trkpt lat="42.75256" lon="0.64256">
        <ele>1857.3</ele>
        <time>2017-06-04T11:54:35.000Z</time>
      </trkpt>
      <trkpt lat="42.75256" lon="0.64258">
        <ele>1856.3</ele>
        <time>2017-06-04T11:54:37.000Z</time>
      </trkpt>
      <trkpt lat="42.75256" lon="0.64266">
        <ele>1853.9</ele>
        <time>2017-06-04T11:54:42.000Z</time>
      </trkpt>
      <trkpt lat="42.75254" lon="0.64279">
        <ele>1851</ele>
        <time>2017-06-04T11:54:52.000Z</time>
      </trkpt>
      <trkpt lat="42.75253" lon="0.64281">
        <ele>1850.8</ele>
        <time>2017-06-04T11:54:54.000Z</time>
      </trkpt>
      <trkpt lat="42.75253" lon="0.64283">
        <ele>1850.6</ele>
        <time>2017-06-04T11:54:56.000Z</time>
      </trkpt>
      <trkpt lat="42.75252" lon="0.64287">
        <ele>1850.3</ele>
        <time>2017-06-04T11:54:59.000Z</time>
      </trkpt>
      <trkpt lat="42.75251" lon="0.64292">
        <ele>1849.3</ele>
        <time>2017-06-04T11:55:04.000Z</time>
      </trkpt>
      <trkpt lat="42.7525" lon="0.64295">
        <ele>1848.4</ele>
        <time>2017-06-04T11:55:07.000Z</time>
      </trkpt>
      <trkpt lat="42.7525" lon="0.64298">
        <ele>1847.5</ele>
        <time>2017-06-04T11:55:10.000Z</time>
      </trkpt>
      <trkpt lat="42.75248" lon="0.64304">
        <ele>1843.9</ele>
        <time>2017-06-04T11:55:16.000Z</time>
      </trkpt>
      <trkpt lat="42.75247" lon="0.64307">
        <ele>1841.7</ele>
        <time>2017-06-04T11:55:19.000Z</time>
      </trkpt>
      <trkpt lat="42.75247" lon="0.64309">
        <ele>1840.3</ele>
        <time>2017-06-04T11:55:21.000Z</time>
      </trkpt>
      <trkpt lat="42.75248" lon="0.64315">
        <ele>1840</ele>
        <time>2017-06-04T11:55:27.000Z</time>
      </trkpt>
      <trkpt lat="42.75247" lon="0.6432">
        <ele>1839.6</ele>
        <time>2017-06-04T11:55:33.000Z</time>
      </trkpt>
      <trkpt lat="42.75247" lon="0.64324">
        <ele>1839</ele>
        <time>2017-06-04T11:55:35.000Z</time>
      </trkpt>
      <trkpt lat="42.75247" lon="0.64329">
        <ele>1837.8</ele>
        <time>2017-06-04T11:55:39.000Z</time>
      </trkpt>
      <trkpt lat="42.75246" lon="0.64332">
        <ele>1837.2</ele>
        <time>2017-06-04T11:55:41.000Z</time>
      </trkpt>
      <trkpt lat="42.75247" lon="0.64337">
        <ele>1836.3</ele>
        <time>2017-06-04T11:55:45.000Z</time>
      </trkpt>
      <trkpt lat="42.75246" lon="0.64346">
        <ele>1835.1</ele>
        <time>2017-06-04T11:55:51.000Z</time>
      </trkpt>
      <trkpt lat="42.75247" lon="0.64362">
        <ele>1831.3</ele>
        <time>2017-06-04T11:56:05.000Z</time>
      </trkpt>
      <trkpt lat="42.75247" lon="0.64368">
        <ele>1830.3</ele>
        <time>2017-06-04T11:56:10.000Z</time>
      </trkpt>
      <trkpt lat="42.75247" lon="0.64371">
        <ele>1829.7</ele>
        <time>2017-06-04T11:56:13.000Z</time>
      </trkpt>
      <trkpt lat="42.75248" lon="0.64374">
        <ele>1829.3</ele>
        <time>2017-06-04T11:56:15.000Z</time>
      </trkpt>
      <trkpt lat="42.75248" lon="0.64385">
        <ele>1827.3</ele>
        <time>2017-06-04T11:56:24.000Z</time>
      </trkpt>
      <trkpt lat="42.75247" lon="0.64389">
        <ele>1826.4</ele>
        <time>2017-06-04T11:56:27.000Z</time>
      </trkpt>
      <trkpt lat="42.75248" lon="0.64392">
        <ele>1825.5</ele>
        <time>2017-06-04T11:56:30.000Z</time>
      </trkpt>
      <trkpt lat="42.75248" lon="0.64394">
        <ele>1824.9</ele>
        <time>2017-06-04T11:56:32.000Z</time>
      </trkpt>
      <trkpt lat="42.75247" lon="0.64397">
        <ele>1824.3</ele>
        <time>2017-06-04T11:56:35.000Z</time>
      </trkpt>
      <trkpt lat="42.75246" lon="0.64399">
        <ele>1823.9</ele>
        <time>2017-06-04T11:56:37.000Z</time>
      </trkpt>
      <trkpt lat="42.75246" lon="0.64402">
        <ele>1823.3</ele>
        <time>2017-06-04T11:56:40.000Z</time>
      </trkpt>
      <trkpt lat="42.75245" lon="0.64405">
        <ele>1822.9</ele>
        <time>2017-06-04T11:56:42.000Z</time>
      </trkpt>
      <trkpt lat="42.75246" lon="0.64412">
        <ele>1821.1</ele>
        <time>2017-06-04T11:56:48.000Z</time>
      </trkpt>
      <trkpt lat="42.75245" lon="0.64418">
        <ele>1820</ele>
        <time>2017-06-04T11:56:53.000Z</time>
      </trkpt>
      <trkpt lat="42.75248" lon="0.64441">
        <ele>1818.2</ele>
        <time>2017-06-04T11:57:11.000Z</time>
      </trkpt>
      <trkpt lat="42.75248" lon="0.64444">
        <ele>1817.3</ele>
        <time>2017-06-04T11:57:14.000Z</time>
      </trkpt>
      <trkpt lat="42.75248" lon="0.64447">
        <ele>1816.4</ele>
        <time>2017-06-04T11:57:17.000Z</time>
      </trkpt>
      <trkpt lat="42.75253" lon="0.64492">
        <ele>1808</ele>
        <time>2017-06-04T11:58:03.000Z</time>
      </trkpt>
      <trkpt lat="42.75254" lon="0.64495">
        <ele>1808</ele>
        <time>2017-06-04T11:58:11.000Z</time>
      </trkpt>
      <trkpt lat="42.75254" lon="0.64495">
        <ele>1807</ele>
        <time>2017-06-04T11:58:24.000Z</time>
      </trkpt>
      <trkpt lat="42.7525" lon="0.6451">
        <ele>1804.9</ele>
        <time>2017-06-04T11:59:28.000Z</time>
      </trkpt>
      <trkpt lat="42.7525" lon="0.64511">
        <ele>1804.5</ele>
        <time>2017-06-04T11:59:29.000Z</time>
      </trkpt>
      <trkpt lat="42.75243" lon="0.64514">
        <ele>1801.2</ele>
        <time>2017-06-04T11:59:37.000Z</time>
      </trkpt>
      <trkpt lat="42.75241" lon="0.64517">
        <ele>1800.3</ele>
        <time>2017-06-04T11:59:40.000Z</time>
      </trkpt>
      <trkpt lat="42.7524" lon="0.6452">
        <ele>1799.7</ele>
        <time>2017-06-04T11:59:42.000Z</time>
      </trkpt>
      <trkpt lat="42.7524" lon="0.64522">
        <ele>1799.2</ele>
        <time>2017-06-04T11:59:44.000Z</time>
      </trkpt>
      <trkpt lat="42.75233" lon="0.64534">
        <ele>1795.6</ele>
        <time>2017-06-04T11:59:54.000Z</time>
      </trkpt>
      <trkpt lat="42.75232" lon="0.64535">
        <ele>1794.7</ele>
        <time>2017-06-04T11:59:56.000Z</time>
      </trkpt>
      <trkpt lat="42.7523" lon="0.64536">
        <ele>1793.9</ele>
        <time>2017-06-04T11:59:58.000Z</time>
      </trkpt>
      <trkpt lat="42.75228" lon="0.64538">
        <ele>1793.3</ele>
        <time>2017-06-04T12:00:00.000Z</time>
      </trkpt>
      <trkpt lat="42.75227" lon="0.6454">
        <ele>1792.7</ele>
        <time>2017-06-04T12:00:02.000Z</time>
      </trkpt>
      <trkpt lat="42.75222" lon="0.64546">
        <ele>1790.8</ele>
        <time>2017-06-04T12:00:08.000Z</time>
      </trkpt>
      <trkpt lat="42.75212" lon="0.64561">
        <ele>1784.7</ele>
        <time>2017-06-04T12:00:22.000Z</time>
      </trkpt>
      <trkpt lat="42.7521" lon="0.64563">
        <ele>1784.1</ele>
        <time>2017-06-04T12:00:24.000Z</time>
      </trkpt>
      <trkpt lat="42.75209" lon="0.64565">
        <ele>1783.5</ele>
        <time>2017-06-04T12:00:26.000Z</time>
      </trkpt>
      <trkpt lat="42.75205" lon="0.64571">
        <ele>1781.3</ele>
        <time>2017-06-04T12:00:32.000Z</time>
      </trkpt>
      <trkpt lat="42.75202" lon="0.64576">
        <ele>1779.3</ele>
        <time>2017-06-04T12:00:37.000Z</time>
      </trkpt>
      <trkpt lat="42.752" lon="0.64577">
        <ele>1778.5</ele>
        <time>2017-06-04T12:00:39.000Z</time>
      </trkpt>
      <trkpt lat="42.75199" lon="0.64579">
        <ele>1777.7</ele>
        <time>2017-06-04T12:00:41.000Z</time>
      </trkpt>
      <trkpt lat="42.75197" lon="0.64581">
        <ele>1776.9</ele>
        <time>2017-06-04T12:00:43.000Z</time>
      </trkpt>
      <trkpt lat="42.75196" lon="0.64583">
        <ele>1776.1</ele>
        <time>2017-06-04T12:00:45.000Z</time>
      </trkpt>
      <trkpt lat="42.75194" lon="0.64585">
        <ele>1774.9</ele>
        <time>2017-06-04T12:00:48.000Z</time>
      </trkpt>
      <trkpt lat="42.75193" lon="0.64587">
        <ele>1774.3</ele>
        <time>2017-06-04T12:00:50.000Z</time>
      </trkpt>
      <trkpt lat="42.75191" lon="0.64589">
        <ele>1773.7</ele>
        <time>2017-06-04T12:00:52.000Z</time>
      </trkpt>
      <trkpt lat="42.75189" lon="0.64593">
        <ele>1772.5</ele>
        <time>2017-06-04T12:00:56.000Z</time>
      </trkpt>
      <trkpt lat="42.75187" lon="0.64594">
        <ele>1772</ele>
        <time>2017-06-04T12:00:58.000Z</time>
      </trkpt>
      <trkpt lat="42.75187" lon="0.64594">
        <ele>1771.5</ele>
        <time>2017-06-04T12:01:03.000Z</time>
      </trkpt>
      <trkpt lat="42.75179" lon="0.64598">
        <ele>1770</ele>
        <time>2017-06-04T12:01:23.000Z</time>
      </trkpt>
      <trkpt lat="42.75178" lon="0.64598">
        <ele>1769.8</ele>
        <time>2017-06-04T12:01:24.000Z</time>
      </trkpt>
      <trkpt lat="42.75177" lon="0.646">
        <ele>1769.3</ele>
        <time>2017-06-04T12:01:26.000Z</time>
      </trkpt>
      <trkpt lat="42.75175" lon="0.64602">
        <ele>1768.7</ele>
        <time>2017-06-04T12:01:29.000Z</time>
      </trkpt>
      <trkpt lat="42.75173" lon="0.64604">
        <ele>1768.3</ele>
        <time>2017-06-04T12:01:31.000Z</time>
      </trkpt>
      <trkpt lat="42.75171" lon="0.64606">
        <ele>1767.8</ele>
        <time>2017-06-04T12:01:33.000Z</time>
      </trkpt>
      <trkpt lat="42.75168" lon="0.64613">
        <ele>1766.4</ele>
        <time>2017-06-04T12:01:38.000Z</time>
      </trkpt>
      <trkpt lat="42.75166" lon="0.64617">
        <ele>1765.3</ele>
        <time>2017-06-04T12:01:42.000Z</time>
      </trkpt>
      <trkpt lat="42.75158" lon="0.64629">
        <ele>1763.1</ele>
        <time>2017-06-04T12:01:52.000Z</time>
      </trkpt>
      <trkpt lat="42.75152" lon="0.64636">
        <ele>1760.4</ele>
        <time>2017-06-04T12:01:59.000Z</time>
      </trkpt>
      <trkpt lat="42.75151" lon="0.64638">
        <ele>1759.6</ele>
        <time>2017-06-04T12:02:01.000Z</time>
      </trkpt>
      <trkpt lat="42.7515" lon="0.64641">
        <ele>1758.9</ele>
        <time>2017-06-04T12:02:03.000Z</time>
      </trkpt>
      <trkpt lat="42.75148" lon="0.64643">
        <ele>1758.7</ele>
        <time>2017-06-04T12:02:05.000Z</time>
      </trkpt>
      <trkpt lat="42.75147" lon="0.64645">
        <ele>1758.6</ele>
        <time>2017-06-04T12:02:07.000Z</time>
      </trkpt>
      <trkpt lat="42.75145" lon="0.64647">
        <ele>1758.4</ele>
        <time>2017-06-04T12:02:09.000Z</time>
      </trkpt>
      <trkpt lat="42.75143" lon="0.64652">
        <ele>1757.9</ele>
        <time>2017-06-04T12:02:13.000Z</time>
      </trkpt>
      <trkpt lat="42.75142" lon="0.64654">
        <ele>1757.3</ele>
        <time>2017-06-04T12:02:15.000Z</time>
      </trkpt>
      <trkpt lat="42.75141" lon="0.64657">
        <ele>1756.7</ele>
        <time>2017-06-04T12:02:17.000Z</time>
      </trkpt>
      <trkpt lat="42.75138" lon="0.6466">
        <ele>1755.5</ele>
        <time>2017-06-04T12:02:21.000Z</time>
      </trkpt>
      <trkpt lat="42.75136" lon="0.64662">
        <ele>1754.8</ele>
        <time>2017-06-04T12:02:23.000Z</time>
      </trkpt>
      <trkpt lat="42.75133" lon="0.64665">
        <ele>1753.4</ele>
        <time>2017-06-04T12:02:28.000Z</time>
      </trkpt>
      <trkpt lat="42.75131" lon="0.64667">
        <ele>1752.8</ele>
        <time>2017-06-04T12:02:30.000Z</time>
      </trkpt>
      <trkpt lat="42.75128" lon="0.6467">
        <ele>1751.7</ele>
        <time>2017-06-04T12:02:34.000Z</time>
      </trkpt>
      <trkpt lat="42.75126" lon="0.64672">
        <ele>1751.3</ele>
        <time>2017-06-04T12:02:36.000Z</time>
      </trkpt>
      <trkpt lat="42.7512" lon="0.64676">
        <ele>1749.9</ele>
        <time>2017-06-04T12:02:43.000Z</time>
      </trkpt>
      <trkpt lat="42.75114" lon="0.64679">
        <ele>1748.1</ele>
        <time>2017-06-04T12:02:49.000Z</time>
      </trkpt>
      <trkpt lat="42.75108" lon="0.64684">
        <ele>1746</ele>
        <time>2017-06-04T12:02:55.000Z</time>
      </trkpt>
      <trkpt lat="42.75107" lon="0.64685">
        <ele>1745.2</ele>
        <time>2017-06-04T12:02:57.000Z</time>
      </trkpt>
      <trkpt lat="42.75103" lon="0.64688">
        <ele>1743.2</ele>
        <time>2017-06-04T12:03:02.000Z</time>
      </trkpt>
      <trkpt lat="42.75099" lon="0.64691">
        <ele>1742.3</ele>
        <time>2017-06-04T12:03:06.000Z</time>
      </trkpt>
      <trkpt lat="42.75098" lon="0.64693">
        <ele>1741.9</ele>
        <time>2017-06-04T12:03:08.000Z</time>
      </trkpt>
      <trkpt lat="42.75095" lon="0.64694">
        <ele>1741.5</ele>
        <time>2017-06-04T12:03:10.000Z</time>
      </trkpt>
      <trkpt lat="42.75093" lon="0.64695">
        <ele>1741.1</ele>
        <time>2017-06-04T12:03:12.000Z</time>
      </trkpt>
      <trkpt lat="42.75089" lon="0.64696">
        <ele>1739.2</ele>
        <time>2017-06-04T12:03:17.000Z</time>
      </trkpt>
      <trkpt lat="42.75087" lon="0.64698">
        <ele>1738</ele>
        <time>2017-06-04T12:03:20.000Z</time>
      </trkpt>
      <trkpt lat="42.75085" lon="0.647">
        <ele>1737.2</ele>
        <time>2017-06-04T12:03:22.000Z</time>
      </trkpt>
      <trkpt lat="42.75083" lon="0.647">
        <ele>1736.7</ele>
        <time>2017-06-04T12:03:24.000Z</time>
      </trkpt>
      <trkpt lat="42.75081" lon="0.647">
        <ele>1735.9</ele>
        <time>2017-06-04T12:03:28.000Z</time>
      </trkpt>
      <trkpt lat="42.75079" lon="0.647">
        <ele>1735.3</ele>
        <time>2017-06-04T12:03:31.000Z</time>
      </trkpt>
      <trkpt lat="42.75077" lon="0.64701">
        <ele>1734.9</ele>
        <time>2017-06-04T12:03:33.000Z</time>
      </trkpt>
      <trkpt lat="42.75072" lon="0.64704">
        <ele>1733</ele>
        <time>2017-06-04T12:03:39.000Z</time>
      </trkpt>
      <trkpt lat="42.75071" lon="0.64704">
        <ele>1732.1</ele>
        <time>2017-06-04T12:03:42.000Z</time>
      </trkpt>
      <trkpt lat="42.7507" lon="0.64706">
        <ele>1731</ele>
        <time>2017-06-04T12:03:53.000Z</time>
      </trkpt>
      <trkpt lat="42.75068" lon="0.64706">
        <ele>1730.8</ele>
        <time>2017-06-04T12:03:55.000Z</time>
      </trkpt>
      <trkpt lat="42.75063" lon="0.64708">
        <ele>1730.2</ele>
        <time>2017-06-04T12:04:01.000Z</time>
      </trkpt>
      <trkpt lat="42.7505" lon="0.64713">
        <ele>1728.8</ele>
        <time>2017-06-04T12:04:15.000Z</time>
      </trkpt>
      <trkpt lat="42.75046" lon="0.64715">
        <ele>1728.4</ele>
        <time>2017-06-04T12:04:19.000Z</time>
      </trkpt>
      <trkpt lat="42.75042" lon="0.64718">
        <ele>1728</ele>
        <time>2017-06-04T12:04:23.000Z</time>
      </trkpt>
      <trkpt lat="42.75039" lon="0.6472">
        <ele>1727.8</ele>
        <time>2017-06-04T12:04:25.000Z</time>
      </trkpt>
      <trkpt lat="42.75037" lon="0.64721">
        <ele>1727.6</ele>
        <time>2017-06-04T12:04:27.000Z</time>
      </trkpt>
      <trkpt lat="42.75035" lon="0.64722">
        <ele>1727.4</ele>
        <time>2017-06-04T12:04:29.000Z</time>
      </trkpt>
      <trkpt lat="42.75033" lon="0.64723">
        <ele>1727.2</ele>
        <time>2017-06-04T12:04:31.000Z</time>
      </trkpt>
      <trkpt lat="42.75027" lon="0.64726">
        <ele>1726</ele>
        <time>2017-06-04T12:04:36.000Z</time>
      </trkpt>
      <trkpt lat="42.75022" lon="0.64728">
        <ele>1724.7</ele>
        <time>2017-06-04T12:04:40.000Z</time>
      </trkpt>
      <trkpt lat="42.7502" lon="0.64729">
        <ele>1724.1</ele>
        <time>2017-06-04T12:04:42.000Z</time>
      </trkpt>
      <trkpt lat="42.75017" lon="0.6473">
        <ele>1723.9</ele>
        <time>2017-06-04T12:04:44.000Z</time>
      </trkpt>
      <trkpt lat="42.75006" lon="0.64736">
        <ele>1722.9</ele>
        <time>2017-06-04T12:04:54.000Z</time>
      </trkpt>
      <trkpt lat="42.75003" lon="0.64737">
        <ele>1722.7</ele>
        <time>2017-06-04T12:04:56.000Z</time>
      </trkpt>
      <trkpt lat="42.74998" lon="0.64739">
        <ele>1722.3</ele>
        <time>2017-06-04T12:05:00.000Z</time>
      </trkpt>
      <trkpt lat="42.74996" lon="0.6474">
        <ele>1722.1</ele>
        <time>2017-06-04T12:05:02.000Z</time>
      </trkpt>
      <trkpt lat="42.74993" lon="0.64742">
        <ele>1721.7</ele>
        <time>2017-06-04T12:05:04.000Z</time>
      </trkpt>
      <trkpt lat="42.74992" lon="0.64742">
        <ele>1721.5</ele>
        <time>2017-06-04T12:05:05.000Z</time>
      </trkpt>
      <trkpt lat="42.74987" lon="0.64746">
        <ele>1720.7</ele>
        <time>2017-06-04T12:05:09.000Z</time>
      </trkpt>
      <trkpt lat="42.74968" lon="0.64755">
        <ele>1718</ele>
        <time>2017-06-04T12:05:25.000Z</time>
      </trkpt>
      <trkpt lat="42.74959" lon="0.64761">
        <ele>1718</ele>
        <time>2017-06-04T12:05:33.000Z</time>
      </trkpt>
      <trkpt lat="42.74952" lon="0.64764">
        <ele>1717.4</ele>
        <time>2017-06-04T12:05:39.000Z</time>
      </trkpt>
      <trkpt lat="42.74947" lon="0.64766">
        <ele>1717</ele>
        <time>2017-06-04T12:05:43.000Z</time>
      </trkpt>
      <trkpt lat="42.74942" lon="0.6477">
        <ele>1716.6</ele>
        <time>2017-06-04T12:05:47.000Z</time>
      </trkpt>
      <trkpt lat="42.74938" lon="0.64774">
        <ele>1716.1</ele>
        <time>2017-06-04T12:05:51.000Z</time>
      </trkpt>
      <trkpt lat="42.74935" lon="0.64779">
        <ele>1715.2</ele>
        <time>2017-06-04T12:05:55.000Z</time>
      </trkpt>
      <trkpt lat="42.74929" lon="0.64785">
        <ele>1713.5</ele>
        <time>2017-06-04T12:06:01.000Z</time>
      </trkpt>
      <trkpt lat="42.74927" lon="0.64787">
        <ele>1713</ele>
        <time>2017-06-04T12:06:03.000Z</time>
      </trkpt>
      <trkpt lat="42.74924" lon="0.64789">
        <ele>1712.8</ele>
        <time>2017-06-04T12:06:05.000Z</time>
      </trkpt>
      <trkpt lat="42.74913" lon="0.64792">
        <ele>1711.9</ele>
        <time>2017-06-04T12:06:12.990Z</time>
      </trkpt>
      <trkpt lat="42.74904" lon="0.64797">
        <ele>1711.2</ele>
        <time>2017-06-04T12:06:20.000Z</time>
      </trkpt>
      <trkpt lat="42.74882" lon="0.64822">
        <ele>1707.6</ele>
        <time>2017-06-04T12:06:45.990Z</time>
      </trkpt>
      <trkpt lat="42.74879" lon="0.64828">
        <ele>1706</ele>
        <time>2017-06-04T12:06:58.990Z</time>
      </trkpt>
      <trkpt lat="42.74873" lon="0.64834">
        <ele>1704</ele>
        <time>2017-06-04T12:07:03.990Z</time>
      </trkpt>
      <trkpt lat="42.7487" lon="0.6484">
        <ele>1704</ele>
        <time>2017-06-04T12:07:08.990Z</time>
      </trkpt>
      <trkpt lat="42.74853" lon="0.64852">
        <ele>1702.6</ele>
        <time>2017-06-04T12:07:25.000Z</time>
      </trkpt>
      <trkpt lat="42.74845" lon="0.64847">
        <ele>1699.8</ele>
        <time>2017-06-04T12:07:34.990Z</time>
      </trkpt>
      <trkpt lat="42.74846" lon="0.64844">
        <ele>1699</ele>
        <time>2017-06-04T12:07:53.000Z</time>
      </trkpt>
      <trkpt lat="42.74834" lon="0.64828">
        <ele>1700</ele>
        <time>2017-06-04T12:08:15.990Z</time>
      </trkpt>
      <trkpt lat="42.74827" lon="0.6482">
        <ele>1700</ele>
        <time>2017-06-04T12:08:23.990Z</time>
      </trkpt>
      <trkpt lat="42.74809" lon="0.64809">
        <ele>1698.6</ele>
        <time>2017-06-04T12:08:39.990Z</time>
      </trkpt>
      <trkpt lat="42.74803" lon="0.648">
        <ele>1698</ele>
        <time>2017-06-04T12:08:46.990Z</time>
      </trkpt>
      <trkpt lat="42.74795" lon="0.64793">
        <ele>1698</ele>
        <time>2017-06-04T12:08:54.990Z</time>
      </trkpt>
      <trkpt lat="42.74786" lon="0.64789">
        <ele>1696</ele>
        <time>2017-06-04T12:09:01.990Z</time>
      </trkpt>
      <trkpt lat="42.74768" lon="0.64789">
        <ele>1694.1</ele>
        <time>2017-06-04T12:09:14.990Z</time>
      </trkpt>
      <trkpt lat="42.74759" lon="0.64791">
        <ele>1693.5</ele>
        <time>2017-06-04T12:09:20.990Z</time>
      </trkpt>
      <trkpt lat="42.7474" lon="0.648">
        <ele>1692</ele>
        <time>2017-06-04T12:09:35.990Z</time>
      </trkpt>
      <trkpt lat="42.74731" lon="0.64801">
        <ele>1691.9</ele>
        <time>2017-06-04T12:09:45.990Z</time>
      </trkpt>
      <trkpt lat="42.74722" lon="0.64801">
        <ele>1689.1</ele>
        <time>2017-06-04T12:09:55.000Z</time>
      </trkpt>
      <trkpt lat="42.74712" lon="0.64803">
        <ele>1688</ele>
        <time>2017-06-04T12:10:05.000Z</time>
      </trkpt>
      <trkpt lat="42.74703" lon="0.64807">
        <ele>1687.3</ele>
        <time>2017-06-04T12:10:11.990Z</time>
      </trkpt>
      <trkpt lat="42.74694" lon="0.64813">
        <ele>1686.6</ele>
        <time>2017-06-04T12:10:19.000Z</time>
      </trkpt>
      <trkpt lat="42.74685" lon="0.64811">
        <ele>1686</ele>
        <time>2017-06-04T12:10:31.990Z</time>
      </trkpt>
      <trkpt lat="42.74658" lon="0.64811">
        <ele>1686</ele>
        <time>2017-06-04T12:10:53.000Z</time>
      </trkpt>
      <trkpt lat="42.74648" lon="0.64815">
        <ele>1684.3</ele>
        <time>2017-06-04T12:11:00.990Z</time>
      </trkpt>
      <trkpt lat="42.74641" lon="0.64822">
        <ele>1683</ele>
        <time>2017-06-04T12:11:08.000Z</time>
      </trkpt>
      <trkpt lat="42.74634" lon="0.64832">
        <ele>1683</ele>
        <time>2017-06-04T12:11:19.020Z</time>
      </trkpt>
      <trkpt lat="42.74629" lon="0.64844">
        <ele>1682.7</ele>
        <time>2017-06-04T12:11:28.000Z</time>
      </trkpt>
      <trkpt lat="42.74624" lon="0.64854">
        <ele>1681.9</ele>
        <time>2017-06-04T12:11:35.990Z</time>
      </trkpt>
      <trkpt lat="42.74616" lon="0.64862">
        <ele>1681.1</ele>
        <time>2017-06-04T12:11:44.990Z</time>
      </trkpt>
      <trkpt lat="42.74587" lon="0.6486">
        <ele>1677</ele>
        <time>2017-06-04T12:12:06.990Z</time>
      </trkpt>
      <trkpt lat="42.74578" lon="0.64862">
        <ele>1677</ele>
        <time>2017-06-04T12:12:14.990Z</time>
      </trkpt>
      <trkpt lat="42.74569" lon="0.64864">
        <ele>1677</ele>
        <time>2017-06-04T12:12:21.990Z</time>
      </trkpt>
      <trkpt lat="42.74559" lon="0.64865">
        <ele>1676.1</ele>
        <time>2017-06-04T12:12:29.990Z</time>
      </trkpt>
      <trkpt lat="42.7455" lon="0.64865">
        <ele>1674.6</ele>
        <time>2017-06-04T12:12:39.000Z</time>
      </trkpt>
      <trkpt lat="42.74541" lon="0.64869">
        <ele>1674</ele>
        <time>2017-06-04T12:12:48.000Z</time>
      </trkpt>
      <trkpt lat="42.74532" lon="0.64871">
        <ele>1673.8</ele>
        <time>2017-06-04T12:12:57.000Z</time>
      </trkpt>
      <trkpt lat="42.74524" lon="0.64877">
        <ele>1673</ele>
        <time>2017-06-04T12:13:07.000Z</time>
      </trkpt>
      <trkpt lat="42.74515" lon="0.6488">
        <ele>1673</ele>
        <time>2017-06-04T12:13:26.000Z</time>
      </trkpt>
      <trkpt lat="42.74514" lon="0.64881">
        <ele>1673</ele>
        <time>2017-06-04T12:13:27.000Z</time>
      </trkpt>
      <trkpt lat="42.74482" lon="0.64905">
        <ele>1670</ele>
        <time>2017-06-04T12:14:21.000Z</time>
      </trkpt>
      <trkpt lat="42.74476" lon="0.64913">
        <ele>1669</ele>
        <time>2017-06-04T12:14:31.000Z</time>
      </trkpt>
      <trkpt lat="42.74467" lon="0.64919">
        <ele>1669</ele>
        <time>2017-06-04T12:14:39.000Z</time>
      </trkpt>
      <trkpt lat="42.7446" lon="0.64926">
        <ele>1668.6</ele>
        <time>2017-06-04T12:14:47.000Z</time>
      </trkpt>
      <trkpt lat="42.7445" lon="0.64926">
        <ele>1667.3</ele>
        <time>2017-06-04T12:14:57.000Z</time>
      </trkpt>
      <trkpt lat="42.7444" lon="0.64931">
        <ele>1666</ele>
        <time>2017-06-04T12:15:20.990Z</time>
      </trkpt>
      <trkpt lat="42.74424" lon="0.64941">
        <ele>1664</ele>
        <time>2017-06-04T12:16:01.990Z</time>
      </trkpt>
      <trkpt lat="42.74416" lon="0.64946">
        <ele>1664</ele>
        <time>2017-06-04T12:16:08.000Z</time>
      </trkpt>
      <trkpt lat="42.74407" lon="0.64947">
        <ele>1663.5</ele>
        <time>2017-06-04T12:16:17.000Z</time>
      </trkpt>
      <trkpt lat="42.74389" lon="0.64953">
        <ele>1661.1</ele>
        <time>2017-06-04T12:16:36.000Z</time>
      </trkpt>
      <trkpt lat="42.74386" lon="0.64965">
        <ele>1659.5</ele>
        <time>2017-06-04T12:16:45.990Z</time>
      </trkpt>
      <trkpt lat="42.74375" lon="0.64986">
        <ele>1655.7</ele>
        <time>2017-06-04T12:17:08.000Z</time>
      </trkpt>
      <trkpt lat="42.74368" lon="0.64994">
        <ele>1655</ele>
        <time>2017-06-04T12:17:27.000Z</time>
      </trkpt>
      <trkpt lat="42.74367" lon="0.64996">
        <ele>1655</ele>
        <time>2017-06-04T12:17:29.000Z</time>
      </trkpt>
      <trkpt lat="42.74354" lon="0.65011">
        <ele>1652.5</ele>
        <time>2017-06-04T12:17:43.000Z</time>
      </trkpt>
      <trkpt lat="42.74345" lon="0.65016">
        <ele>1651</ele>
        <time>2017-06-04T12:17:50.000Z</time>
      </trkpt>
      <trkpt lat="42.74338" lon="0.65024">
        <ele>1647.7</ele>
        <time>2017-06-04T12:17:59.000Z</time>
      </trkpt>
      <trkpt lat="42.74329" lon="0.65026">
        <ele>1645.7</ele>
        <time>2017-06-04T12:18:10.000Z</time>
      </trkpt>
      <trkpt lat="42.74321" lon="0.65022">
        <ele>1644.8</ele>
        <time>2017-06-04T12:18:17.990Z</time>
      </trkpt>
      <trkpt lat="42.74296" lon="0.65017">
        <ele>1641</ele>
        <time>2017-06-04T12:18:40.000Z</time>
      </trkpt>
      <trkpt lat="42.74288" lon="0.65013">
        <ele>1637.9</ele>
        <time>2017-06-04T12:18:49.000Z</time>
      </trkpt>
      <trkpt lat="42.74279" lon="0.6501">
        <ele>1637</ele>
        <time>2017-06-04T12:18:58.000Z</time>
      </trkpt>
      <trkpt lat="42.74271" lon="0.65003">
        <ele>1633.7</ele>
        <time>2017-06-04T12:19:06.000Z</time>
      </trkpt>
      <trkpt lat="42.74262" lon="0.64999">
        <ele>1633</ele>
        <time>2017-06-04T12:19:14.000Z</time>
      </trkpt>
      <trkpt lat="42.74252" lon="0.65003">
        <ele>1632.4</ele>
        <time>2017-06-04T12:19:24.000Z</time>
      </trkpt>
      <trkpt lat="42.74248" lon="0.65003">
        <ele>1632</ele>
        <time>2017-06-04T12:19:28.000Z</time>
      </trkpt>
      <trkpt lat="42.74246" lon="0.65004">
        <ele>1631.6</ele>
        <time>2017-06-04T12:19:30.000Z</time>
      </trkpt>
      <trkpt lat="42.74244" lon="0.65009">
        <ele>1630.5</ele>
        <time>2017-06-04T12:19:35.000Z</time>
      </trkpt>
      <trkpt lat="42.74242" lon="0.6501">
        <ele>1630.3</ele>
        <time>2017-06-04T12:19:36.000Z</time>
      </trkpt>
      <trkpt lat="42.74235" lon="0.65024">
        <ele>1629.2</ele>
        <time>2017-06-04T12:19:46.000Z</time>
      </trkpt>
      <trkpt lat="42.74233" lon="0.65028">
        <ele>1629</ele>
        <time>2017-06-04T12:19:50.000Z</time>
      </trkpt>
      <trkpt lat="42.74232" lon="0.65031">
        <ele>1629</ele>
        <time>2017-06-04T12:19:52.000Z</time>
      </trkpt>
      <trkpt lat="42.7423" lon="0.65032">
        <ele>1629</ele>
        <time>2017-06-04T12:19:54.000Z</time>
      </trkpt>
      <trkpt lat="42.74229" lon="0.65033">
        <ele>1629</ele>
        <time>2017-06-04T12:19:56.000Z</time>
      </trkpt>
      <trkpt lat="42.74225" lon="0.65037">
        <ele>1627.9</ele>
        <time>2017-06-04T12:20:03.000Z</time>
      </trkpt>
      <trkpt lat="42.74224" lon="0.65039">
        <ele>1627.7</ele>
        <time>2017-06-04T12:20:04.000Z</time>
      </trkpt>
      <trkpt lat="42.7422" lon="0.65042">
        <ele>1626.1</ele>
        <time>2017-06-04T12:20:10.000Z</time>
      </trkpt>
      <trkpt lat="42.74218" lon="0.65045">
        <ele>1625.3</ele>
        <time>2017-06-04T12:20:12.000Z</time>
      </trkpt>
      <trkpt lat="42.74213" lon="0.65047">
        <ele>1624.1</ele>
        <time>2017-06-04T12:20:15.000Z</time>
      </trkpt>
      <trkpt lat="42.74212" lon="0.65048">
        <ele>1623.7</ele>
        <time>2017-06-04T12:20:16.000Z</time>
      </trkpt>
      <trkpt lat="42.74209" lon="0.6505">
        <ele>1623</ele>
        <time>2017-06-04T12:20:18.000Z</time>
      </trkpt>
      <trkpt lat="42.742" lon="0.65056">
        <ele>1623</ele>
        <time>2017-06-04T12:20:24.000Z</time>
      </trkpt>
      <trkpt lat="42.74198" lon="0.65058">
        <ele>1623</ele>
        <time>2017-06-04T12:20:26.000Z</time>
      </trkpt>
      <trkpt lat="42.74195" lon="0.65059">
        <ele>1623</ele>
        <time>2017-06-04T12:20:28.000Z</time>
      </trkpt>
      <trkpt lat="42.74191" lon="0.65063">
        <ele>1623</ele>
        <time>2017-06-04T12:20:32.000Z</time>
      </trkpt>
      <trkpt lat="42.74189" lon="0.65064">
        <ele>1623</ele>
        <time>2017-06-04T12:20:34.000Z</time>
      </trkpt>
      <trkpt lat="42.74187" lon="0.65065">
        <ele>1623</ele>
        <time>2017-06-04T12:20:36.000Z</time>
      </trkpt>
      <trkpt lat="42.74182" lon="0.65069">
        <ele>1622.8</ele>
        <time>2017-06-04T12:20:40.000Z</time>
      </trkpt>
      <trkpt lat="42.74178" lon="0.65074">
        <ele>1622.4</ele>
        <time>2017-06-04T12:20:44.000Z</time>
      </trkpt>
      <trkpt lat="42.74176" lon="0.65079">
        <ele>1622</ele>
        <time>2017-06-04T12:20:48.000Z</time>
      </trkpt>
      <trkpt lat="42.74171" lon="0.65082">
        <ele>1622</ele>
        <time>2017-06-04T12:20:53.000Z</time>
      </trkpt>
      <trkpt lat="42.74166" lon="0.65083">
        <ele>1622</ele>
        <time>2017-06-04T12:20:57.000Z</time>
      </trkpt>
      <trkpt lat="42.74164" lon="0.65082">
        <ele>1621.9</ele>
        <time>2017-06-04T12:20:59.000Z</time>
      </trkpt>
      <trkpt lat="42.74161" lon="0.65083">
        <ele>1621.7</ele>
        <time>2017-06-04T12:21:01.000Z</time>
      </trkpt>
      <trkpt lat="42.74157" lon="0.65082">
        <ele>1621.3</ele>
        <time>2017-06-04T12:21:05.000Z</time>
      </trkpt>
      <trkpt lat="42.74155" lon="0.65082">
        <ele>1621.1</ele>
        <time>2017-06-04T12:21:07.000Z</time>
      </trkpt>
      <trkpt lat="42.74152" lon="0.65083">
        <ele>1621</ele>
        <time>2017-06-04T12:21:09.000Z</time>
      </trkpt>
      <trkpt lat="42.7415" lon="0.65083">
        <ele>1621</ele>
        <time>2017-06-04T12:21:11.000Z</time>
      </trkpt>
      <trkpt lat="42.74148" lon="0.65085">
        <ele>1621</ele>
        <time>2017-06-04T12:21:13.000Z</time>
      </trkpt>
      <trkpt lat="42.74145" lon="0.65087">
        <ele>1621</ele>
        <time>2017-06-04T12:21:15.000Z</time>
      </trkpt>
      <trkpt lat="42.74143" lon="0.65088">
        <ele>1621</ele>
        <time>2017-06-04T12:21:17.000Z</time>
      </trkpt>
      <trkpt lat="42.7414" lon="0.65088">
        <ele>1620.8</ele>
        <time>2017-06-04T12:21:19.000Z</time>
      </trkpt>
      <trkpt lat="42.74137" lon="0.65087">
        <ele>1620.7</ele>
        <time>2017-06-04T12:21:21.000Z</time>
      </trkpt>
      <trkpt lat="42.74134" lon="0.65088">
        <ele>1620.5</ele>
        <time>2017-06-04T12:21:23.000Z</time>
      </trkpt>
      <trkpt lat="42.74132" lon="0.65089">
        <ele>1620.3</ele>
        <time>2017-06-04T12:21:25.000Z</time>
      </trkpt>
      <trkpt lat="42.7413" lon="0.6509">
        <ele>1620.1</ele>
        <time>2017-06-04T12:21:27.000Z</time>
      </trkpt>
      <trkpt lat="42.74127" lon="0.6509">
        <ele>1620</ele>
        <time>2017-06-04T12:21:29.000Z</time>
      </trkpt>
      <trkpt lat="42.74125" lon="0.65091">
        <ele>1620</ele>
        <time>2017-06-04T12:21:31.000Z</time>
      </trkpt>
      <trkpt lat="42.74124" lon="0.65092">
        <ele>1620</ele>
        <time>2017-06-04T12:21:33.000Z</time>
      </trkpt>
      <trkpt lat="42.74115" lon="0.65094">
        <ele>1620</ele>
        <time>2017-06-04T12:21:39.000Z</time>
      </trkpt>
      <trkpt lat="42.74107" lon="0.65096">
        <ele>1620</ele>
        <time>2017-06-04T12:21:47.000Z</time>
      </trkpt>
      <trkpt lat="42.74104" lon="0.65096">
        <ele>1619.8</ele>
        <time>2017-06-04T12:21:50.000Z</time>
      </trkpt>
      <trkpt lat="42.741" lon="0.65096">
        <ele>1619.4</ele>
        <time>2017-06-04T12:21:54.000Z</time>
      </trkpt>
      <trkpt lat="42.74098" lon="0.65096">
        <ele>1619.2</ele>
        <time>2017-06-04T12:21:56.000Z</time>
      </trkpt>
      <trkpt lat="42.74097" lon="0.65094">
        <ele>1618.9</ele>
        <time>2017-06-04T12:21:58.000Z</time>
      </trkpt>
      <trkpt lat="42.74094" lon="0.65094">
        <ele>1618.5</ele>
        <time>2017-06-04T12:22:00.000Z</time>
      </trkpt>
      <trkpt lat="42.7409" lon="0.65093">
        <ele>1617.7</ele>
        <time>2017-06-04T12:22:04.000Z</time>
      </trkpt>
      <trkpt lat="42.74085" lon="0.65094">
        <ele>1616.9</ele>
        <time>2017-06-04T12:22:09.000Z</time>
      </trkpt>
      <trkpt lat="42.74083" lon="0.65094">
        <ele>1616.7</ele>
        <time>2017-06-04T12:22:11.000Z</time>
      </trkpt>
      <trkpt lat="42.7408" lon="0.65095">
        <ele>1616.5</ele>
        <time>2017-06-04T12:22:13.000Z</time>
      </trkpt>
      <trkpt lat="42.74078" lon="0.65096">
        <ele>1616.3</ele>
        <time>2017-06-04T12:22:15.000Z</time>
      </trkpt>
      <trkpt lat="42.74075" lon="0.65098">
        <ele>1616.1</ele>
        <time>2017-06-04T12:22:17.000Z</time>
      </trkpt>
      <trkpt lat="42.7407" lon="0.65099">
        <ele>1616</ele>
        <time>2017-06-04T12:22:21.000Z</time>
      </trkpt>
      <trkpt lat="42.74067" lon="0.651">
        <ele>1616</ele>
        <time>2017-06-04T12:22:23.000Z</time>
      </trkpt>
      <trkpt lat="42.74065" lon="0.651">
        <ele>1616</ele>
        <time>2017-06-04T12:22:25.000Z</time>
      </trkpt>
      <trkpt lat="42.74056" lon="0.65103">
        <ele>1616</ele>
        <time>2017-06-04T12:22:33.000Z</time>
      </trkpt>
      <trkpt lat="42.74054" lon="0.65104">
        <ele>1616</ele>
        <time>2017-06-04T12:22:35.000Z</time>
      </trkpt>
      <trkpt lat="42.74052" lon="0.65104">
        <ele>1616</ele>
        <time>2017-06-04T12:22:37.000Z</time>
      </trkpt>
      <trkpt lat="42.74045" lon="0.65105">
        <ele>1616</ele>
        <time>2017-06-04T12:22:43.000Z</time>
      </trkpt>
      <trkpt lat="42.74037" lon="0.65105">
        <ele>1615.8</ele>
        <time>2017-06-04T12:22:50.000Z</time>
      </trkpt>
      <trkpt lat="42.74035" lon="0.65105">
        <ele>1615.6</ele>
        <time>2017-06-04T12:22:52.000Z</time>
      </trkpt>
      <trkpt lat="42.74032" lon="0.65105">
        <ele>1615.4</ele>
        <time>2017-06-04T12:22:54.000Z</time>
      </trkpt>
      <trkpt lat="42.7403" lon="0.65105">
        <ele>1615.2</ele>
        <time>2017-06-04T12:22:56.000Z</time>
      </trkpt>
      <trkpt lat="42.74028" lon="0.65105">
        <ele>1615</ele>
        <time>2017-06-04T12:22:58.000Z</time>
      </trkpt>
      <trkpt lat="42.74025" lon="0.65106">
        <ele>1614.8</ele>
        <time>2017-06-04T12:23:00.000Z</time>
      </trkpt>
      <trkpt lat="42.74023" lon="0.65106">
        <ele>1614.6</ele>
        <time>2017-06-04T12:23:02.000Z</time>
      </trkpt>
      <trkpt lat="42.74021" lon="0.65105">
        <ele>1614.4</ele>
        <time>2017-06-04T12:23:04.000Z</time>
      </trkpt>
      <trkpt lat="42.74017" lon="0.65104">
        <ele>1614</ele>
        <time>2017-06-04T12:23:08.000Z</time>
      </trkpt>
      <trkpt lat="42.74014" lon="0.65105">
        <ele>1613.8</ele>
        <time>2017-06-04T12:23:10.000Z</time>
      </trkpt>
      <trkpt lat="42.74012" lon="0.65105">
        <ele>1613.6</ele>
        <time>2017-06-04T12:23:12.000Z</time>
      </trkpt>
      <trkpt lat="42.74008" lon="0.65105">
        <ele>1613.2</ele>
        <time>2017-06-04T12:23:16.000Z</time>
      </trkpt>
      <trkpt lat="42.74006" lon="0.65104">
        <ele>1613</ele>
        <time>2017-06-04T12:23:18.000Z</time>
      </trkpt>
      <trkpt lat="42.74004" lon="0.65104">
        <ele>1612.7</ele>
        <time>2017-06-04T12:23:21.000Z</time>
      </trkpt>
      <trkpt lat="42.74002" lon="0.65104">
        <ele>1612.5</ele>
        <time>2017-06-04T12:23:23.000Z</time>
      </trkpt>
      <trkpt lat="42.73999" lon="0.65104">
        <ele>1612.3</ele>
        <time>2017-06-04T12:23:25.000Z</time>
      </trkpt>
      <trkpt lat="42.73997" lon="0.65103">
        <ele>1612.1</ele>
        <time>2017-06-04T12:23:27.000Z</time>
      </trkpt>
      <trkpt lat="42.73991" lon="0.65103">
        <ele>1611.7</ele>
        <time>2017-06-04T12:23:31.000Z</time>
      </trkpt>
      <trkpt lat="42.73987" lon="0.65101">
        <ele>1611.3</ele>
        <time>2017-06-04T12:23:35.000Z</time>
      </trkpt>
      <trkpt lat="42.73983" lon="0.65102">
        <ele>1611.1</ele>
        <time>2017-06-04T12:23:39.000Z</time>
      </trkpt>
      <trkpt lat="42.7398" lon="0.65104">
        <ele>1611.3</ele>
        <time>2017-06-04T12:23:41.000Z</time>
      </trkpt>
      <trkpt lat="42.73978" lon="0.65104">
        <ele>1611.5</ele>
        <time>2017-06-04T12:23:43.000Z</time>
      </trkpt>
      <trkpt lat="42.73975" lon="0.65103">
        <ele>1611.7</ele>
        <time>2017-06-04T12:23:45.000Z</time>
      </trkpt>
      <trkpt lat="42.73971" lon="0.65101">
        <ele>1612</ele>
        <time>2017-06-04T12:23:49.000Z</time>
      </trkpt>
      <trkpt lat="42.73966" lon="0.651">
        <ele>1612</ele>
        <time>2017-06-04T12:23:53.000Z</time>
      </trkpt>
      <trkpt lat="42.73962" lon="0.651">
        <ele>1611.9</ele>
        <time>2017-06-04T12:23:58.000Z</time>
      </trkpt>
      <trkpt lat="42.73959" lon="0.65101">
        <ele>1611.8</ele>
        <time>2017-06-04T12:24:00.000Z</time>
      </trkpt>
      <trkpt lat="42.73958" lon="0.65102">
        <ele>1611.6</ele>
        <time>2017-06-04T12:24:02.000Z</time>
      </trkpt>
      <trkpt lat="42.73953" lon="0.65102">
        <ele>1611.2</ele>
        <time>2017-06-04T12:24:06.000Z</time>
      </trkpt>
      <trkpt lat="42.73951" lon="0.65102">
        <ele>1611</ele>
        <time>2017-06-04T12:24:08.000Z</time>
      </trkpt>
      <trkpt lat="42.73944" lon="0.65101">
        <ele>1611</ele>
        <time>2017-06-04T12:24:14.000Z</time>
      </trkpt>
      <trkpt lat="42.73942" lon="0.65101">
        <ele>1611</ele>
        <time>2017-06-04T12:24:16.000Z</time>
      </trkpt>
      <trkpt lat="42.7394" lon="0.651">
        <ele>1611</ele>
        <time>2017-06-04T12:24:18.000Z</time>
      </trkpt>
      <trkpt lat="42.73937" lon="0.651">
        <ele>1611</ele>
        <time>2017-06-04T12:24:20.000Z</time>
      </trkpt>
      <trkpt lat="42.73935" lon="0.651">
        <ele>1611</ele>
        <time>2017-06-04T12:24:22.000Z</time>
      </trkpt>
      <trkpt lat="42.73933" lon="0.651">
        <ele>1611</ele>
        <time>2017-06-04T12:24:24.000Z</time>
      </trkpt>
      <trkpt lat="42.7393" lon="0.651">
        <ele>1611</ele>
        <time>2017-06-04T12:24:26.000Z</time>
      </trkpt>
      <trkpt lat="42.73928" lon="0.651">
        <ele>1611</ele>
        <time>2017-06-04T12:24:28.000Z</time>
      </trkpt>
      <trkpt lat="42.73923" lon="0.651">
        <ele>1611</ele>
        <time>2017-06-04T12:24:34.000Z</time>
      </trkpt>
      <trkpt lat="42.73907" lon="0.65099">
        <ele>1611</ele>
        <time>2017-06-04T12:24:48.000Z</time>
      </trkpt>
      <trkpt lat="42.73904" lon="0.65099">
        <ele>1610.8</ele>
        <time>2017-06-04T12:24:50.000Z</time>
      </trkpt>
      <trkpt lat="42.73902" lon="0.65099">
        <ele>1610.6</ele>
        <time>2017-06-04T12:24:52.000Z</time>
      </trkpt>
      <trkpt lat="42.73898" lon="0.651">
        <ele>1610.2</ele>
        <time>2017-06-04T12:24:56.000Z</time>
      </trkpt>
      <trkpt lat="42.73895" lon="0.65101">
        <ele>1610</ele>
        <time>2017-06-04T12:24:58.000Z</time>
      </trkpt>
      <trkpt lat="42.73893" lon="0.65101">
        <ele>1610</ele>
        <time>2017-06-04T12:25:00.000Z</time>
      </trkpt>
      <trkpt lat="42.7389" lon="0.65101">
        <ele>1610</ele>
        <time>2017-06-04T12:25:02.000Z</time>
      </trkpt>
      <trkpt lat="42.73886" lon="0.65102">
        <ele>1610</ele>
        <time>2017-06-04T12:25:06.000Z</time>
      </trkpt>
      <trkpt lat="42.73884" lon="0.65103">
        <ele>1610</ele>
        <time>2017-06-04T12:25:08.000Z</time>
      </trkpt>
      <trkpt lat="42.73882" lon="0.65105">
        <ele>1610</ele>
        <time>2017-06-04T12:25:13.000Z</time>
      </trkpt>
      <trkpt lat="42.7388" lon="0.65106">
        <ele>1610.8</ele>
        <time>2017-06-04T12:25:30.000Z</time>
      </trkpt>
      <trkpt lat="42.73877" lon="0.65109">
        <ele>1610.4</ele>
        <time>2017-06-04T12:25:34.000Z</time>
      </trkpt>
      <trkpt lat="42.73873" lon="0.65111">
        <ele>1609.7</ele>
        <time>2017-06-04T12:25:39.000Z</time>
      </trkpt>
      <trkpt lat="42.7387" lon="0.65111">
        <ele>1608.9</ele>
        <time>2017-06-04T12:25:43.000Z</time>
      </trkpt>
      <trkpt lat="42.73866" lon="0.65114">
        <ele>1607.9</ele>
        <time>2017-06-04T12:25:48.000Z</time>
      </trkpt>
      <trkpt lat="42.73864" lon="0.65114">
        <ele>1607.8</ele>
        <time>2017-06-04T12:25:50.000Z</time>
      </trkpt>
      <trkpt lat="42.73858" lon="0.65111">
        <ele>1607.2</ele>
        <time>2017-06-04T12:25:56.000Z</time>
      </trkpt>
      <trkpt lat="42.73856" lon="0.6511">
        <ele>1607</ele>
        <time>2017-06-04T12:25:58.000Z</time>
      </trkpt>
      <trkpt lat="42.73854" lon="0.65109">
        <ele>1607.2</ele>
        <time>2017-06-04T12:26:00.000Z</time>
      </trkpt>
      <trkpt lat="42.73852" lon="0.65108">
        <ele>1607.4</ele>
        <time>2017-06-04T12:26:02.000Z</time>
      </trkpt>
      <trkpt lat="42.73851" lon="0.65107">
        <ele>1607.6</ele>
        <time>2017-06-04T12:26:04.000Z</time>
      </trkpt>
      <trkpt lat="42.73842" lon="0.65103">
        <ele>1608</ele>
        <time>2017-06-04T12:26:12.000Z</time>
      </trkpt>
      <trkpt lat="42.73837" lon="0.65102">
        <ele>1608</ele>
        <time>2017-06-04T12:26:16.000Z</time>
      </trkpt>
      <trkpt lat="42.73833" lon="0.65099">
        <ele>1607.8</ele>
        <time>2017-06-04T12:26:20.000Z</time>
      </trkpt>
      <trkpt lat="42.73827" lon="0.65096">
        <ele>1607.2</ele>
        <time>2017-06-04T12:26:26.000Z</time>
      </trkpt>
      <trkpt lat="42.73821" lon="0.65093">
        <ele>1606.6</ele>
        <time>2017-06-04T12:26:32.000Z</time>
      </trkpt>
      <trkpt lat="42.73817" lon="0.65092">
        <ele>1606.2</ele>
        <time>2017-06-04T12:26:36.000Z</time>
      </trkpt>
      <trkpt lat="42.73815" lon="0.65091">
        <ele>1606</ele>
        <time>2017-06-04T12:26:38.000Z</time>
      </trkpt>
      <trkpt lat="42.73812" lon="0.65091">
        <ele>1605.8</ele>
        <time>2017-06-04T12:26:40.000Z</time>
      </trkpt>
      <trkpt lat="42.73804" lon="0.65088">
        <ele>1605</ele>
        <time>2017-06-04T12:26:48.000Z</time>
      </trkpt>
      <trkpt lat="42.73802" lon="0.65087">
        <ele>1605</ele>
        <time>2017-06-04T12:26:50.000Z</time>
      </trkpt>
      <trkpt lat="42.738" lon="0.65086">
        <ele>1605</ele>
        <time>2017-06-04T12:26:52.000Z</time>
      </trkpt>
      <trkpt lat="42.73796" lon="0.65083">
        <ele>1605</ele>
        <time>2017-06-04T12:26:56.000Z</time>
      </trkpt>
      <trkpt lat="42.73794" lon="0.65082">
        <ele>1605</ele>
        <time>2017-06-04T12:26:58.000Z</time>
      </trkpt>
      <trkpt lat="42.73793" lon="0.65081">
        <ele>1604.8</ele>
        <time>2017-06-04T12:27:00.000Z</time>
      </trkpt>
      <trkpt lat="42.7379" lon="0.65079">
        <ele>1604.5</ele>
        <time>2017-06-04T12:27:03.000Z</time>
      </trkpt>
      <trkpt lat="42.73789" lon="0.65078">
        <ele>1604.3</ele>
        <time>2017-06-04T12:27:05.000Z</time>
      </trkpt>
      <trkpt lat="42.73787" lon="0.65079">
        <ele>1604</ele>
        <time>2017-06-04T12:27:08.000Z</time>
      </trkpt>
      <trkpt lat="42.73785" lon="0.65078">
        <ele>1604</ele>
        <time>2017-06-04T12:27:11.000Z</time>
      </trkpt>
      <trkpt lat="42.73783" lon="0.65078">
        <ele>1604</ele>
        <time>2017-06-04T12:27:23.000Z</time>
      </trkpt>
      <trkpt lat="42.73773" lon="0.65078">
        <ele>1601</ele>
        <time>2017-06-04T12:36:27.000Z</time>
      </trkpt>
      <trkpt lat="42.73772" lon="0.65079">
        <ele>1601.1</ele>
        <time>2017-06-04T12:36:29.000Z</time>
      </trkpt>
      <trkpt lat="42.73769" lon="0.65079">
        <ele>1601.5</ele>
        <time>2017-06-04T12:36:32.000Z</time>
      </trkpt>
      <trkpt lat="42.73767" lon="0.65078">
        <ele>1601.7</ele>
        <time>2017-06-04T12:36:34.000Z</time>
      </trkpt>
      <trkpt lat="42.73765" lon="0.65078">
        <ele>1601.9</ele>
        <time>2017-06-04T12:36:36.000Z</time>
      </trkpt>
      <trkpt lat="42.73763" lon="0.65078">
        <ele>1602.4</ele>
        <time>2017-06-04T12:36:39.000Z</time>
      </trkpt>
      <trkpt lat="42.73761" lon="0.65079">
        <ele>1602.8</ele>
        <time>2017-06-04T12:36:41.000Z</time>
      </trkpt>
      <trkpt lat="42.73759" lon="0.65081">
        <ele>1603.4</ele>
        <time>2017-06-04T12:36:44.000Z</time>
      </trkpt>
      <trkpt lat="42.73758" lon="0.65082">
        <ele>1603.8</ele>
        <time>2017-06-04T12:36:46.000Z</time>
      </trkpt>
      <trkpt lat="42.73755" lon="0.65082">
        <ele>1604.2</ele>
        <time>2017-06-04T12:36:49.000Z</time>
      </trkpt>
      <trkpt lat="42.73753" lon="0.65082">
        <ele>1604.6</ele>
        <time>2017-06-04T12:36:53.000Z</time>
      </trkpt>
      <trkpt lat="42.73751" lon="0.65081">
        <ele>1604.8</ele>
        <time>2017-06-04T12:36:55.000Z</time>
      </trkpt>
      <trkpt lat="42.73749" lon="0.65081">
        <ele>1605</ele>
        <time>2017-06-04T12:36:57.000Z</time>
      </trkpt>
      <trkpt lat="42.73747" lon="0.65082">
        <ele>1605.2</ele>
        <time>2017-06-04T12:36:59.000Z</time>
      </trkpt>
      <trkpt lat="42.73745" lon="0.65082">
        <ele>1605.4</ele>
        <time>2017-06-04T12:37:01.000Z</time>
      </trkpt>
      <trkpt lat="42.73743" lon="0.65081">
        <ele>1605.6</ele>
        <time>2017-06-04T12:37:03.000Z</time>
      </trkpt>
      <trkpt lat="42.73742" lon="0.65081">
        <ele>1605.8</ele>
        <time>2017-06-04T12:37:05.000Z</time>
      </trkpt>
      <trkpt lat="42.7374" lon="0.65082">
        <ele>1606.1</ele>
        <time>2017-06-04T12:37:07.000Z</time>
      </trkpt>
      <trkpt lat="42.73738" lon="0.65083">
        <ele>1606.5</ele>
        <time>2017-06-04T12:37:09.000Z</time>
      </trkpt>
      <trkpt lat="42.73734" lon="0.65083">
        <ele>1607.3</ele>
        <time>2017-06-04T12:37:13.000Z</time>
      </trkpt>
      <trkpt lat="42.7373" lon="0.65084">
        <ele>1608</ele>
        <time>2017-06-04T12:37:17.000Z</time>
      </trkpt>
      <trkpt lat="42.73724" lon="0.65085">
        <ele>1608</ele>
        <time>2017-06-04T12:37:23.000Z</time>
      </trkpt>
      <trkpt lat="42.73722" lon="0.65086">
        <ele>1608</ele>
        <time>2017-06-04T12:37:25.000Z</time>
      </trkpt>
      <trkpt lat="42.7372" lon="0.65087">
        <ele>1608.1</ele>
        <time>2017-06-04T12:37:27.000Z</time>
      </trkpt>
      <trkpt lat="42.73718" lon="0.65088">
        <ele>1608.5</ele>
        <time>2017-06-04T12:37:29.000Z</time>
      </trkpt>
      <trkpt lat="42.73717" lon="0.65088">
        <ele>1608.9</ele>
        <time>2017-06-04T12:37:31.000Z</time>
      </trkpt>
      <trkpt lat="42.73715" lon="0.65089">
        <ele>1609.3</ele>
        <time>2017-06-04T12:37:33.000Z</time>
      </trkpt>
      <trkpt lat="42.73713" lon="0.65089">
        <ele>1609.7</ele>
        <time>2017-06-04T12:37:35.000Z</time>
      </trkpt>
      <trkpt lat="42.73707" lon="0.65093">
        <ele>1610.9</ele>
        <time>2017-06-04T12:37:41.000Z</time>
      </trkpt>
      <trkpt lat="42.73706" lon="0.65094">
        <ele>1611.2</ele>
        <time>2017-06-04T12:37:43.000Z</time>
      </trkpt>
      <trkpt lat="42.73704" lon="0.65095">
        <ele>1611.6</ele>
        <time>2017-06-04T12:37:45.000Z</time>
      </trkpt>
      <trkpt lat="42.73701" lon="0.65098">
        <ele>1612.6</ele>
        <time>2017-06-04T12:37:50.000Z</time>
      </trkpt>
      <trkpt lat="42.73698" lon="0.65099">
        <ele>1613.3</ele>
        <time>2017-06-04T12:37:53.000Z</time>
      </trkpt>
      <trkpt lat="42.73695" lon="0.651">
        <ele>1614</ele>
        <time>2017-06-04T12:37:58.000Z</time>
      </trkpt>
      <trkpt lat="42.73693" lon="0.65102">
        <ele>1614</ele>
        <time>2017-06-04T12:38:00.000Z</time>
      </trkpt>
      <trkpt lat="42.73691" lon="0.65104">
        <ele>1614</ele>
        <time>2017-06-04T12:38:03.000Z</time>
      </trkpt>
      <trkpt lat="42.73685" lon="0.65107">
        <ele>1615</ele>
        <time>2017-06-04T12:38:10.000Z</time>
      </trkpt>
      <trkpt lat="42.73682" lon="0.65109">
        <ele>1615.9</ele>
        <time>2017-06-04T12:38:13.000Z</time>
      </trkpt>
      <trkpt lat="42.73681" lon="0.65109">
        <ele>1616.5</ele>
        <time>2017-06-04T12:38:15.000Z</time>
      </trkpt>
      <trkpt lat="42.73678" lon="0.65111">
        <ele>1617.5</ele>
        <time>2017-06-04T12:38:19.000Z</time>
      </trkpt>
      <trkpt lat="42.73676" lon="0.65113">
        <ele>1618.1</ele>
        <time>2017-06-04T12:38:22.000Z</time>
      </trkpt>
      <trkpt lat="42.73672" lon="0.65115">
        <ele>1619.1</ele>
        <time>2017-06-04T12:38:27.000Z</time>
      </trkpt>
      <trkpt lat="42.7367" lon="0.65116">
        <ele>1619.2</ele>
        <time>2017-06-04T12:38:29.000Z</time>
      </trkpt>
      <trkpt lat="42.73669" lon="0.65118">
        <ele>1619.4</ele>
        <time>2017-06-04T12:38:31.000Z</time>
      </trkpt>
      <trkpt lat="42.73666" lon="0.65118">
        <ele>1619.7</ele>
        <time>2017-06-04T12:38:34.000Z</time>
      </trkpt>
      <trkpt lat="42.73663" lon="0.65121">
        <ele>1620.2</ele>
        <time>2017-06-04T12:38:39.000Z</time>
      </trkpt>
      <trkpt lat="42.73658" lon="0.65121">
        <ele>1620.7</ele>
        <time>2017-06-04T12:38:44.000Z</time>
      </trkpt>
      <trkpt lat="42.73656" lon="0.65122">
        <ele>1620.9</ele>
        <time>2017-06-04T12:38:46.000Z</time>
      </trkpt>
      <trkpt lat="42.73655" lon="0.65123">
        <ele>1621.2</ele>
        <time>2017-06-04T12:38:48.000Z</time>
      </trkpt>
      <trkpt lat="42.73653" lon="0.65125">
        <ele>1621.4</ele>
        <time>2017-06-04T12:38:50.000Z</time>
      </trkpt>
      <trkpt lat="42.73651" lon="0.65126">
        <ele>1621.6</ele>
        <time>2017-06-04T12:38:52.000Z</time>
      </trkpt>
      <trkpt lat="42.73649" lon="0.65129">
        <ele>1622</ele>
        <time>2017-06-04T12:38:55.000Z</time>
      </trkpt>
      <trkpt lat="42.73641" lon="0.65136">
        <ele>1622.7</ele>
        <time>2017-06-04T12:39:03.100Z</time>
      </trkpt>
      <trkpt lat="42.73631" lon="0.65142">
        <ele>1623.7</ele>
        <time>2017-06-04T12:39:14.000Z</time>
      </trkpt>
      <trkpt lat="42.73629" lon="0.65144">
        <ele>1623.9</ele>
        <time>2017-06-04T12:39:16.000Z</time>
      </trkpt>
      <trkpt lat="42.73626" lon="0.65146">
        <ele>1624</ele>
        <time>2017-06-04T12:39:20.000Z</time>
      </trkpt>
      <trkpt lat="42.73608" lon="0.65165">
        <ele>1625.7</ele>
        <time>2017-06-04T12:39:40.000Z</time>
      </trkpt>
      <trkpt lat="42.73603" lon="0.65169">
        <ele>1626.9</ele>
        <time>2017-06-04T12:39:46.000Z</time>
      </trkpt>
      <trkpt lat="42.73601" lon="0.6517">
        <ele>1627</ele>
        <time>2017-06-04T12:39:50.000Z</time>
      </trkpt>
      <trkpt lat="42.73597" lon="0.65174">
        <ele>1627</ele>
        <time>2017-06-04T12:39:55.000Z</time>
      </trkpt>
      <trkpt lat="42.7358" lon="0.65178">
        <ele>1629.7</ele>
        <time>2017-06-04T12:40:14.000Z</time>
      </trkpt>
      <trkpt lat="42.73578" lon="0.65178">
        <ele>1629.9</ele>
        <time>2017-06-04T12:40:16.000Z</time>
      </trkpt>
      <trkpt lat="42.73576" lon="0.65178">
        <ele>1630.5</ele>
        <time>2017-06-04T12:40:19.000Z</time>
      </trkpt>
      <trkpt lat="42.73574" lon="0.6518">
        <ele>1630.9</ele>
        <time>2017-06-04T12:40:21.000Z</time>
      </trkpt>
      <trkpt lat="42.73572" lon="0.6518">
        <ele>1631.5</ele>
        <time>2017-06-04T12:40:24.000Z</time>
      </trkpt>
      <trkpt lat="42.73569" lon="0.65179">
        <ele>1632</ele>
        <time>2017-06-04T12:40:27.000Z</time>
      </trkpt>
      <trkpt lat="42.73567" lon="0.65178">
        <ele>1632.3</ele>
        <time>2017-06-04T12:40:30.000Z</time>
      </trkpt>
      <trkpt lat="42.73564" lon="0.65178">
        <ele>1632.6</ele>
        <time>2017-06-04T12:40:33.000Z</time>
      </trkpt>
      <trkpt lat="42.73563" lon="0.65178">
        <ele>1632.8</ele>
        <time>2017-06-04T12:40:35.000Z</time>
      </trkpt>
      <trkpt lat="42.73561" lon="0.65179">
        <ele>1633.3</ele>
        <time>2017-06-04T12:40:38.000Z</time>
      </trkpt>
      <trkpt lat="42.73556" lon="0.6518">
        <ele>1634.5</ele>
        <time>2017-06-04T12:40:44.000Z</time>
      </trkpt>
      <trkpt lat="42.73554" lon="0.65181">
        <ele>1635.1</ele>
        <time>2017-06-04T12:40:47.000Z</time>
      </trkpt>
      <trkpt lat="42.73553" lon="0.65182">
        <ele>1636.4</ele>
        <time>2017-06-04T12:40:51.000Z</time>
      </trkpt>
      <trkpt lat="42.7355" lon="0.65181">
        <ele>1637.3</ele>
        <time>2017-06-04T12:40:54.000Z</time>
      </trkpt>
      <trkpt lat="42.73545" lon="0.65183">
        <ele>1638.4</ele>
        <time>2017-06-04T12:41:01.000Z</time>
      </trkpt>
      <trkpt lat="42.73542" lon="0.65184">
        <ele>1638.7</ele>
        <time>2017-06-04T12:41:04.000Z</time>
      </trkpt>
      <trkpt lat="42.73541" lon="0.65183">
        <ele>1638.9</ele>
        <time>2017-06-04T12:41:06.000Z</time>
      </trkpt>
      <trkpt lat="42.73539" lon="0.65182">
        <ele>1639.3</ele>
        <time>2017-06-04T12:41:08.000Z</time>
      </trkpt>
      <trkpt lat="42.73537" lon="0.6518">
        <ele>1639.9</ele>
        <time>2017-06-04T12:41:11.000Z</time>
      </trkpt>
      <trkpt lat="42.73535" lon="0.6518">
        <ele>1640.5</ele>
        <time>2017-06-04T12:41:14.000Z</time>
      </trkpt>
      <trkpt lat="42.73534" lon="0.6518">
        <ele>1640.9</ele>
        <time>2017-06-04T12:41:16.000Z</time>
      </trkpt>
      <trkpt lat="42.73532" lon="0.6518">
        <ele>1641.2</ele>
        <time>2017-06-04T12:41:19.000Z</time>
      </trkpt>
      <trkpt lat="42.73529" lon="0.6518">
        <ele>1641.5</ele>
        <time>2017-06-04T12:41:22.000Z</time>
      </trkpt>
      <trkpt lat="42.73527" lon="0.65181">
        <ele>1641.8</ele>
        <time>2017-06-04T12:41:25.000Z</time>
      </trkpt>
      <trkpt lat="42.73525" lon="0.65182">
        <ele>1642.1</ele>
        <time>2017-06-04T12:41:27.000Z</time>
      </trkpt>
      <trkpt lat="42.73523" lon="0.65183">
        <ele>1642.7</ele>
        <time>2017-06-04T12:41:30.000Z</time>
      </trkpt>
      <trkpt lat="42.73521" lon="0.65182">
        <ele>1643.5</ele>
        <time>2017-06-04T12:41:34.000Z</time>
      </trkpt>
      <trkpt lat="42.73519" lon="0.65181">
        <ele>1644</ele>
        <time>2017-06-04T12:41:37.000Z</time>
      </trkpt>
      <trkpt lat="42.73518" lon="0.6518">
        <ele>1645</ele>
        <time>2017-06-04T12:41:55.000Z</time>
      </trkpt>
      <trkpt lat="42.73509" lon="0.65186">
        <ele>1645</ele>
        <time>2017-06-04T12:42:30.000Z</time>
      </trkpt>
      <trkpt lat="42.735" lon="0.65196">
        <ele>1645.5</ele>
        <time>2017-06-04T12:42:42.000Z</time>
      </trkpt>
      <trkpt lat="42.73498" lon="0.65197">
        <ele>1645.9</ele>
        <time>2017-06-04T12:42:44.000Z</time>
      </trkpt>
      <trkpt lat="42.73497" lon="0.65198">
        <ele>1646.1</ele>
        <time>2017-06-04T12:42:45.000Z</time>
      </trkpt>
      <trkpt lat="42.73485" lon="0.65208">
        <ele>1648</ele>
        <time>2017-06-04T12:42:59.000Z</time>
      </trkpt>
      <trkpt lat="42.73483" lon="0.6521">
        <ele>1648.3</ele>
        <time>2017-06-04T12:43:01.000Z</time>
      </trkpt>
      <trkpt lat="42.73481" lon="0.65211">
        <ele>1648.7</ele>
        <time>2017-06-04T12:43:03.000Z</time>
      </trkpt>
      <trkpt lat="42.73479" lon="0.65212">
        <ele>1648.9</ele>
        <time>2017-06-04T12:43:04.000Z</time>
      </trkpt>
      <trkpt lat="42.73477" lon="0.65214">
        <ele>1649.3</ele>
        <time>2017-06-04T12:43:06.000Z</time>
      </trkpt>
      <trkpt lat="42.73476" lon="0.65215">
        <ele>1649.7</ele>
        <time>2017-06-04T12:43:08.000Z</time>
      </trkpt>
      <trkpt lat="42.73474" lon="0.65216">
        <ele>1650</ele>
        <time>2017-06-04T12:43:10.000Z</time>
      </trkpt>
      <trkpt lat="42.73472" lon="0.65218">
        <ele>1650</ele>
        <time>2017-06-04T12:43:12.000Z</time>
      </trkpt>
      <trkpt lat="42.7347" lon="0.65219">
        <ele>1650</ele>
        <time>2017-06-04T12:43:14.000Z</time>
      </trkpt>
      <trkpt lat="42.73464" lon="0.65222">
        <ele>1650.1</ele>
        <time>2017-06-04T12:43:20.000Z</time>
      </trkpt>
      <trkpt lat="42.73456" lon="0.65225">
        <ele>1651.7</ele>
        <time>2017-06-04T12:43:28.000Z</time>
      </trkpt>
      <trkpt lat="42.73454" lon="0.65226">
        <ele>1652</ele>
        <time>2017-06-04T12:43:30.000Z</time>
      </trkpt>
      <trkpt lat="42.73446" lon="0.65226">
        <ele>1652</ele>
        <time>2017-06-04T12:43:36.000Z</time>
      </trkpt>
      <trkpt lat="42.73444" lon="0.65226">
        <ele>1652</ele>
        <time>2017-06-04T12:43:38.000Z</time>
      </trkpt>
      <trkpt lat="42.73439" lon="0.65226">
        <ele>1652.5</ele>
        <time>2017-06-04T12:43:42.000Z</time>
      </trkpt>
      <trkpt lat="42.73435" lon="0.65226">
        <ele>1653.3</ele>
        <time>2017-06-04T12:43:46.000Z</time>
      </trkpt>
      <trkpt lat="42.73433" lon="0.65225">
        <ele>1653.7</ele>
        <time>2017-06-04T12:43:48.000Z</time>
      </trkpt>
      <trkpt lat="42.73431" lon="0.65224">
        <ele>1654.1</ele>
        <time>2017-06-04T12:43:50.000Z</time>
      </trkpt>
      <trkpt lat="42.73428" lon="0.65225">
        <ele>1654.3</ele>
        <time>2017-06-04T12:43:53.000Z</time>
      </trkpt>
      <trkpt lat="42.73425" lon="0.65226">
        <ele>1654.5</ele>
        <time>2017-06-04T12:43:55.000Z</time>
      </trkpt>
      <trkpt lat="42.7342" lon="0.65231">
        <ele>1655</ele>
        <time>2017-06-04T12:44:01.000Z</time>
      </trkpt>
      <trkpt lat="42.73419" lon="0.65233">
        <ele>1655</ele>
        <time>2017-06-04T12:44:03.000Z</time>
      </trkpt>
      <trkpt lat="42.73414" lon="0.65243">
        <ele>1655.2</ele>
        <time>2017-06-04T12:44:11.000Z</time>
      </trkpt>
      <trkpt lat="42.73413" lon="0.65245">
        <ele>1655.3</ele>
        <time>2017-06-04T12:44:13.000Z</time>
      </trkpt>
      <trkpt lat="42.73407" lon="0.65252">
        <ele>1656.3</ele>
        <time>2017-06-04T12:44:21.000Z</time>
      </trkpt>
      <trkpt lat="42.73403" lon="0.65255">
        <ele>1657.1</ele>
        <time>2017-06-04T12:44:25.000Z</time>
      </trkpt>
      <trkpt lat="42.73397" lon="0.65259">
        <ele>1658.3</ele>
        <time>2017-06-04T12:44:31.000Z</time>
      </trkpt>
      <trkpt lat="42.73395" lon="0.65259">
        <ele>1658.7</ele>
        <time>2017-06-04T12:44:33.000Z</time>
      </trkpt>
      <trkpt lat="42.73393" lon="0.65259">
        <ele>1659.1</ele>
        <time>2017-06-04T12:44:35.000Z</time>
      </trkpt>
      <trkpt lat="42.73391" lon="0.6526">
        <ele>1659.5</ele>
        <time>2017-06-04T12:44:37.000Z</time>
      </trkpt>
      <trkpt lat="42.73389" lon="0.6526">
        <ele>1659.9</ele>
        <time>2017-06-04T12:44:39.000Z</time>
      </trkpt>
      <trkpt lat="42.73387" lon="0.65261">
        <ele>1660</ele>
        <time>2017-06-04T12:44:41.000Z</time>
      </trkpt>
      <trkpt lat="42.73385" lon="0.65263">
        <ele>1660</ele>
        <time>2017-06-04T12:44:43.000Z</time>
      </trkpt>
      <trkpt lat="42.73378" lon="0.65273">
        <ele>1660.3</ele>
        <time>2017-06-04T12:44:53.000Z</time>
      </trkpt>
      <trkpt lat="42.73376" lon="0.65275">
        <ele>1660.5</ele>
        <time>2017-06-04T12:44:55.000Z</time>
      </trkpt>
      <trkpt lat="42.73375" lon="0.65277">
        <ele>1660.7</ele>
        <time>2017-06-04T12:44:57.000Z</time>
      </trkpt>
      <trkpt lat="42.7337" lon="0.65281">
        <ele>1661.3</ele>
        <time>2017-06-04T12:45:03.000Z</time>
      </trkpt>
      <trkpt lat="42.73363" lon="0.65286">
        <ele>1662.1</ele>
        <time>2017-06-04T12:45:11.000Z</time>
      </trkpt>
      <trkpt lat="42.73359" lon="0.65289">
        <ele>1662.5</ele>
        <time>2017-06-04T12:45:15.000Z</time>
      </trkpt>
      <trkpt lat="42.73354" lon="0.65294">
        <ele>1663.2</ele>
        <time>2017-06-04T12:45:21.000Z</time>
      </trkpt>
      <trkpt lat="42.73352" lon="0.65296">
        <ele>1663.3</ele>
        <time>2017-06-04T12:45:23.000Z</time>
      </trkpt>
      <trkpt lat="42.7335" lon="0.65298">
        <ele>1663.5</ele>
        <time>2017-06-04T12:45:25.000Z</time>
      </trkpt>
      <trkpt lat="42.73349" lon="0.653">
        <ele>1663.7</ele>
        <time>2017-06-04T12:45:27.000Z</time>
      </trkpt>
      <trkpt lat="42.73348" lon="0.65301">
        <ele>1663.9</ele>
        <time>2017-06-04T12:45:29.000Z</time>
      </trkpt>
      <trkpt lat="42.73346" lon="0.65304">
        <ele>1664.2</ele>
        <time>2017-06-04T12:45:32.000Z</time>
      </trkpt>
      <trkpt lat="42.73345" lon="0.65304">
        <ele>1665</ele>
        <time>2017-06-04T12:45:43.000Z</time>
      </trkpt>
      <trkpt lat="42.73337" lon="0.65302">
        <ele>1664</ele>
        <time>2017-06-04T12:46:37.000Z</time>
      </trkpt>
      <trkpt lat="42.73336" lon="0.65302">
        <ele>1664</ele>
        <time>2017-06-04T12:46:38.000Z</time>
      </trkpt>
      <trkpt lat="42.73334" lon="0.65303">
        <ele>1664</ele>
        <time>2017-06-04T12:46:40.000Z</time>
      </trkpt>
      <trkpt lat="42.73332" lon="0.65303">
        <ele>1664</ele>
        <time>2017-06-04T12:46:42.000Z</time>
      </trkpt>
      <trkpt lat="42.73326" lon="0.65304">
        <ele>1665</ele>
        <time>2017-06-04T12:48:25.000Z</time>
      </trkpt>
      <trkpt lat="42.73326" lon="0.65305">
        <ele>1664.8</ele>
        <time>2017-06-04T12:48:26.000Z</time>
      </trkpt>
      <trkpt lat="42.73324" lon="0.65305">
        <ele>1664.4</ele>
        <time>2017-06-04T12:48:30.000Z</time>
      </trkpt>
      <trkpt lat="42.73322" lon="0.65306">
        <ele>1664</ele>
        <time>2017-06-04T12:48:38.000Z</time>
      </trkpt>
      <trkpt lat="42.73318" lon="0.65306">
        <ele>1663</ele>
        <time>2017-06-04T12:52:03.000Z</time>
      </trkpt>
      <trkpt lat="42.73315" lon="0.65306">
        <ele>1663.5</ele>
        <time>2017-06-04T12:52:07.000Z</time>
      </trkpt>
      <trkpt lat="42.73313" lon="0.65307">
        <ele>1663.7</ele>
        <time>2017-06-04T12:52:09.000Z</time>
      </trkpt>
      <trkpt lat="42.73311" lon="0.65307">
        <ele>1663.9</ele>
        <time>2017-06-04T12:52:11.000Z</time>
      </trkpt>
      <trkpt lat="42.73307" lon="0.65308">
        <ele>1664</ele>
        <time>2017-06-04T12:52:15.000Z</time>
      </trkpt>
      <trkpt lat="42.73305" lon="0.65307">
        <ele>1664</ele>
        <time>2017-06-04T12:52:17.000Z</time>
      </trkpt>
      <trkpt lat="42.73302" lon="0.65308">
        <ele>1664</ele>
        <time>2017-06-04T12:52:19.000Z</time>
      </trkpt>
      <trkpt lat="42.733" lon="0.65309">
        <ele>1664</ele>
        <time>2017-06-04T12:52:21.000Z</time>
      </trkpt>
      <trkpt lat="42.73283" lon="0.65315">
        <ele>1663.5</ele>
        <time>2017-06-04T12:52:37.000Z</time>
      </trkpt>
      <trkpt lat="42.7327" lon="0.65318">
        <ele>1664</ele>
        <time>2017-06-04T12:52:49.000Z</time>
      </trkpt>
      <trkpt lat="42.73268" lon="0.65318">
        <ele>1664</ele>
        <time>2017-06-04T12:52:51.000Z</time>
      </trkpt>
      <trkpt lat="42.73266" lon="0.65317">
        <ele>1664</ele>
        <time>2017-06-04T12:52:53.000Z</time>
      </trkpt>
      <trkpt lat="42.73264" lon="0.65316">
        <ele>1664</ele>
        <time>2017-06-04T12:52:55.000Z</time>
      </trkpt>
      <trkpt lat="42.73262" lon="0.65315">
        <ele>1664</ele>
        <time>2017-06-04T12:52:57.000Z</time>
      </trkpt>
      <trkpt lat="42.7326" lon="0.65314">
        <ele>1664</ele>
        <time>2017-06-04T12:52:59.000Z</time>
      </trkpt>
      <trkpt lat="42.73258" lon="0.65314">
        <ele>1664</ele>
        <time>2017-06-04T12:53:01.000Z</time>
      </trkpt>
      <trkpt lat="42.73256" lon="0.65314">
        <ele>1663.9</ele>
        <time>2017-06-04T12:53:03.000Z</time>
      </trkpt>
      <trkpt lat="42.73251" lon="0.65315">
        <ele>1663.5</ele>
        <time>2017-06-04T12:53:07.000Z</time>
      </trkpt>
      <trkpt lat="42.73233" lon="0.65321">
        <ele>1662.8</ele>
        <time>2017-06-04T12:53:23.000Z</time>
      </trkpt>
      <trkpt lat="42.73231" lon="0.65321">
        <ele>1662.6</ele>
        <time>2017-06-04T12:53:25.000Z</time>
      </trkpt>
      <trkpt lat="42.73219" lon="0.65323">
        <ele>1662</ele>
        <time>2017-06-04T12:53:35.000Z</time>
      </trkpt>
      <trkpt lat="42.73185" lon="0.65329">
        <ele>1662.3</ele>
        <time>2017-06-04T12:54:05.000Z</time>
      </trkpt>
      <trkpt lat="42.73178" lon="0.65331">
        <ele>1662.9</ele>
        <time>2017-06-04T12:54:11.000Z</time>
      </trkpt>
      <trkpt lat="42.73168" lon="0.65331">
        <ele>1663.7</ele>
        <time>2017-06-04T12:54:19.000Z</time>
      </trkpt>
      <trkpt lat="42.73166" lon="0.65332">
        <ele>1663.9</ele>
        <time>2017-06-04T12:54:21.000Z</time>
      </trkpt>
      <trkpt lat="42.73163" lon="0.65333">
        <ele>1664</ele>
        <time>2017-06-04T12:54:23.000Z</time>
      </trkpt>
      <trkpt lat="42.73158" lon="0.65334">
        <ele>1664</ele>
        <time>2017-06-04T12:54:27.000Z</time>
      </trkpt>
      <trkpt lat="42.73154" lon="0.65335">
        <ele>1664</ele>
        <time>2017-06-04T12:54:31.000Z</time>
      </trkpt>
      <trkpt lat="42.73149" lon="0.65336">
        <ele>1663.7</ele>
        <time>2017-06-04T12:54:35.000Z</time>
      </trkpt>
      <trkpt lat="42.73132" lon="0.65338">
        <ele>1663</ele>
        <time>2017-06-04T12:54:49.000Z</time>
      </trkpt>
      <trkpt lat="42.7313" lon="0.65338">
        <ele>1663</ele>
        <time>2017-06-04T12:54:51.000Z</time>
      </trkpt>
      <trkpt lat="42.73125" lon="0.65339">
        <ele>1662.7</ele>
        <time>2017-06-04T12:54:55.000Z</time>
      </trkpt>
      <trkpt lat="42.73099" lon="0.6534">
        <ele>1662.4</ele>
        <time>2017-06-04T12:55:17.000Z</time>
      </trkpt>
      <trkpt lat="42.73097" lon="0.65341">
        <ele>1662.2</ele>
        <time>2017-06-04T12:55:19.000Z</time>
      </trkpt>
      <trkpt lat="42.73085" lon="0.6534">
        <ele>1661.2</ele>
        <time>2017-06-04T12:55:29.000Z</time>
      </trkpt>
      <trkpt lat="42.73083" lon="0.65341">
        <ele>1661</ele>
        <time>2017-06-04T12:55:31.000Z</time>
      </trkpt>
      <trkpt lat="42.73072" lon="0.6534">
        <ele>1660</ele>
        <time>2017-06-04T12:55:41.000Z</time>
      </trkpt>
      <trkpt lat="42.7307" lon="0.6534">
        <ele>1659.8</ele>
        <time>2017-06-04T12:55:43.000Z</time>
      </trkpt>
      <trkpt lat="42.73068" lon="0.65339">
        <ele>1659.6</ele>
        <time>2017-06-04T12:55:45.000Z</time>
      </trkpt>
      <trkpt lat="42.73065" lon="0.6534">
        <ele>1659.4</ele>
        <time>2017-06-04T12:55:47.000Z</time>
      </trkpt>
      <trkpt lat="42.73063" lon="0.6534">
        <ele>1659.2</ele>
        <time>2017-06-04T12:55:49.000Z</time>
      </trkpt>
      <trkpt lat="42.73061" lon="0.6534">
        <ele>1659</ele>
        <time>2017-06-04T12:55:51.000Z</time>
      </trkpt>
      <trkpt lat="42.73056" lon="0.65341">
        <ele>1659</ele>
        <time>2017-06-04T12:55:55.000Z</time>
      </trkpt>
      <trkpt lat="42.73054" lon="0.65342">
        <ele>1659</ele>
        <time>2017-06-04T12:55:57.000Z</time>
      </trkpt>
      <trkpt lat="42.73052" lon="0.65343">
        <ele>1659</ele>
        <time>2017-06-04T12:55:59.000Z</time>
      </trkpt>
      <trkpt lat="42.7305" lon="0.65344">
        <ele>1658.9</ele>
        <time>2017-06-04T12:56:02.000Z</time>
      </trkpt>
      <trkpt lat="42.73046" lon="0.65345">
        <ele>1658.6</ele>
        <time>2017-06-04T12:56:06.000Z</time>
      </trkpt>
      <trkpt lat="42.73044" lon="0.65346">
        <ele>1658.4</ele>
        <time>2017-06-04T12:56:08.000Z</time>
      </trkpt>
      <trkpt lat="42.73042" lon="0.65348">
        <ele>1658.2</ele>
        <time>2017-06-04T12:56:10.000Z</time>
      </trkpt>
      <trkpt lat="42.73035" lon="0.65363">
        <ele>1657.2</ele>
        <time>2017-06-04T12:56:20.000Z</time>
      </trkpt>
      <trkpt lat="42.73032" lon="0.65367">
        <ele>1656.5</ele>
        <time>2017-06-04T12:56:24.000Z</time>
      </trkpt>
      <trkpt lat="42.73031" lon="0.65368">
        <ele>1656.3</ele>
        <time>2017-06-04T12:56:25.000Z</time>
      </trkpt>
      <trkpt lat="42.73029" lon="0.6537">
        <ele>1655.9</ele>
        <time>2017-06-04T12:56:27.000Z</time>
      </trkpt>
      <trkpt lat="42.73024" lon="0.65382">
        <ele>1654.6</ele>
        <time>2017-06-04T12:56:35.000Z</time>
      </trkpt>
      <trkpt lat="42.73022" lon="0.65384">
        <ele>1654.4</ele>
        <time>2017-06-04T12:56:37.000Z</time>
      </trkpt>
      <trkpt lat="42.73019" lon="0.65385">
        <ele>1654.2</ele>
        <time>2017-06-04T12:56:39.000Z</time>
      </trkpt>
      <trkpt lat="42.73015" lon="0.65385">
        <ele>1653.9</ele>
        <time>2017-06-04T12:56:42.000Z</time>
      </trkpt>
      <trkpt lat="42.73012" lon="0.65385">
        <ele>1653.7</ele>
        <time>2017-06-04T12:56:44.000Z</time>
      </trkpt>
      <trkpt lat="42.73001" lon="0.65384">
        <ele>1653.3</ele>
        <time>2017-06-04T12:56:54.000Z</time>
      </trkpt>
      <trkpt lat="42.72999" lon="0.65384">
        <ele>1653.5</ele>
        <time>2017-06-04T12:56:56.000Z</time>
      </trkpt>
      <trkpt lat="42.72997" lon="0.65385">
        <ele>1653.7</ele>
        <time>2017-06-04T12:56:58.000Z</time>
      </trkpt>
      <trkpt lat="42.72995" lon="0.65386">
        <ele>1653.9</ele>
        <time>2017-06-04T12:57:00.000Z</time>
      </trkpt>
      <trkpt lat="42.7299" lon="0.65391">
        <ele>1654.5</ele>
        <time>2017-06-04T12:57:06.000Z</time>
      </trkpt>
      <trkpt lat="42.72984" lon="0.65399">
        <ele>1654.7</ele>
        <time>2017-06-04T12:57:14.000Z</time>
      </trkpt>
      <trkpt lat="42.72981" lon="0.65404">
        <ele>1654.3</ele>
        <time>2017-06-04T12:57:18.000Z</time>
      </trkpt>
      <trkpt lat="42.7298" lon="0.65407">
        <ele>1654.1</ele>
        <time>2017-06-04T12:57:20.000Z</time>
      </trkpt>
      <trkpt lat="42.72969" lon="0.65428">
        <ele>1652.5</ele>
        <time>2017-06-04T12:57:36.000Z</time>
      </trkpt>
      <trkpt lat="42.72968" lon="0.65431">
        <ele>1652.3</ele>
        <time>2017-06-04T12:57:38.000Z</time>
      </trkpt>
      <trkpt lat="42.72967" lon="0.65434">
        <ele>1652.1</ele>
        <time>2017-06-04T12:57:40.000Z</time>
      </trkpt>
      <trkpt lat="42.72965" lon="0.65436">
        <ele>1651.9</ele>
        <time>2017-06-04T12:57:42.000Z</time>
      </trkpt>
      <trkpt lat="42.72962" lon="0.65441">
        <ele>1651.5</ele>
        <time>2017-06-04T12:57:46.000Z</time>
      </trkpt>
      <trkpt lat="42.72959" lon="0.65449">
        <ele>1650.9</ele>
        <time>2017-06-04T12:57:52.000Z</time>
      </trkpt>
      <trkpt lat="42.72957" lon="0.65457">
        <ele>1649.9</ele>
        <time>2017-06-04T12:57:57.000Z</time>
      </trkpt>
      <trkpt lat="42.72956" lon="0.65459">
        <ele>1649.5</ele>
        <time>2017-06-04T12:57:59.000Z</time>
      </trkpt>
      <trkpt lat="42.72954" lon="0.65461">
        <ele>1648.9</ele>
        <time>2017-06-04T12:58:02.000Z</time>
      </trkpt>
      <trkpt lat="42.7295" lon="0.65475">
        <ele>1647.9</ele>
        <time>2017-06-04T12:58:12.000Z</time>
      </trkpt>
      <trkpt lat="42.72948" lon="0.65478">
        <ele>1647.7</ele>
        <time>2017-06-04T12:58:14.000Z</time>
      </trkpt>
      <trkpt lat="42.72947" lon="0.65479">
        <ele>1647.4</ele>
        <time>2017-06-04T12:58:17.000Z</time>
      </trkpt>
      <trkpt lat="42.72946" lon="0.65485">
        <ele>1647</ele>
        <time>2017-06-04T12:58:21.000Z</time>
      </trkpt>
      <trkpt lat="42.72944" lon="0.65487">
        <ele>1647</ele>
        <time>2017-06-04T12:58:23.000Z</time>
      </trkpt>
      <trkpt lat="42.72941" lon="0.65486">
        <ele>1647</ele>
        <time>2017-06-04T12:58:25.000Z</time>
      </trkpt>
      <trkpt lat="42.72939" lon="0.65485">
        <ele>1647</ele>
        <time>2017-06-04T12:58:27.000Z</time>
      </trkpt>
      <trkpt lat="42.72931" lon="0.65481">
        <ele>1646.3</ele>
        <time>2017-06-04T12:58:39.000Z</time>
      </trkpt>
      <trkpt lat="42.72928" lon="0.6548">
        <ele>1646.1</ele>
        <time>2017-06-04T12:58:41.000Z</time>
      </trkpt>
      <trkpt lat="42.72923" lon="0.65477">
        <ele>1646</ele>
        <time>2017-06-04T12:58:45.000Z</time>
      </trkpt>
      <trkpt lat="42.7292" lon="0.65477">
        <ele>1646</ele>
        <time>2017-06-04T12:58:47.000Z</time>
      </trkpt>
      <trkpt lat="42.72918" lon="0.65476">
        <ele>1646</ele>
        <time>2017-06-04T12:58:49.000Z</time>
      </trkpt>
      <trkpt lat="42.72916" lon="0.65474">
        <ele>1646</ele>
        <time>2017-06-04T12:58:51.000Z</time>
      </trkpt>
      <trkpt lat="42.72914" lon="0.65472">
        <ele>1646</ele>
        <time>2017-06-04T12:58:55.000Z</time>
      </trkpt>
      <trkpt lat="42.72908" lon="0.65467">
        <ele>1646</ele>
        <time>2017-06-04T12:59:01.000Z</time>
      </trkpt>
      <trkpt lat="42.72906" lon="0.65466">
        <ele>1646.2</ele>
        <time>2017-06-04T12:59:03.000Z</time>
      </trkpt>
      <trkpt lat="42.72904" lon="0.65464">
        <ele>1646.4</ele>
        <time>2017-06-04T12:59:05.000Z</time>
      </trkpt>
      <trkpt lat="42.72899" lon="0.65462">
        <ele>1646.8</ele>
        <time>2017-06-04T12:59:09.000Z</time>
      </trkpt>
      <trkpt lat="42.72889" lon="0.65459">
        <ele>1647</ele>
        <time>2017-06-04T12:59:17.000Z</time>
      </trkpt>
      <trkpt lat="42.72885" lon="0.65459">
        <ele>1647</ele>
        <time>2017-06-04T12:59:21.000Z</time>
      </trkpt>
      <trkpt lat="42.72884" lon="0.65458">
        <ele>1647</ele>
        <time>2017-06-04T12:59:34.000Z</time>
      </trkpt>
      <trkpt lat="42.7288" lon="0.65455">
        <ele>1647</ele>
        <time>2017-06-04T12:59:53.000Z</time>
      </trkpt>
      <trkpt lat="42.72877" lon="0.65454">
        <ele>1647.3</ele>
        <time>2017-06-04T12:59:55.000Z</time>
      </trkpt>
      <trkpt lat="42.72869" lon="0.65453">
        <ele>1647.9</ele>
        <time>2017-06-04T13:00:01.000Z</time>
      </trkpt>
      <trkpt lat="42.72859" lon="0.65454">
        <ele>1648</ele>
        <time>2017-06-04T13:00:09.000Z</time>
      </trkpt>
      <trkpt lat="42.72856" lon="0.65454">
        <ele>1648</ele>
        <time>2017-06-04T13:00:11.000Z</time>
      </trkpt>
      <trkpt lat="42.72851" lon="0.65455">
        <ele>1647.7</ele>
        <time>2017-06-04T13:00:15.000Z</time>
      </trkpt>
      <trkpt lat="42.72849" lon="0.65455">
        <ele>1647.4</ele>
        <time>2017-06-04T13:00:17.000Z</time>
      </trkpt>
      <trkpt lat="42.72843" lon="0.65457">
        <ele>1647</ele>
        <time>2017-06-04T13:00:21.000Z</time>
      </trkpt>
      <trkpt lat="42.72828" lon="0.6547">
        <ele>1644.7</ele>
        <time>2017-06-04T13:00:38.000Z</time>
      </trkpt>
      <trkpt lat="42.72826" lon="0.65469">
        <ele>1644.3</ele>
        <time>2017-06-04T13:00:40.000Z</time>
      </trkpt>
      <trkpt lat="42.72825" lon="0.65466">
        <ele>1643.9</ele>
        <time>2017-06-04T13:00:42.000Z</time>
      </trkpt>
      <trkpt lat="42.72821" lon="0.65461">
        <ele>1642.9</ele>
        <time>2017-06-04T13:00:47.000Z</time>
      </trkpt>
      <trkpt lat="42.7282" lon="0.65459">
        <ele>1642.5</ele>
        <time>2017-06-04T13:00:49.000Z</time>
      </trkpt>
      <trkpt lat="42.72819" lon="0.65456">
        <ele>1641.8</ele>
        <time>2017-06-04T13:00:52.000Z</time>
      </trkpt>
      <trkpt lat="42.72818" lon="0.65453">
        <ele>1640.6</ele>
        <time>2017-06-04T13:00:55.000Z</time>
      </trkpt>
      <trkpt lat="42.72816" lon="0.65449">
        <ele>1638.6</ele>
        <time>2017-06-04T13:01:00.000Z</time>
      </trkpt>
      <trkpt lat="42.72816" lon="0.65446">
        <ele>1636</ele>
        <time>2017-06-04T13:01:16.000Z</time>
      </trkpt>
      <trkpt lat="42.72813" lon="0.65446">
        <ele>1635</ele>
        <time>2017-06-04T13:01:23.000Z</time>
      </trkpt>
      <trkpt lat="42.72812" lon="0.65445">
        <ele>1635</ele>
        <time>2017-06-04T13:01:24.000Z</time>
      </trkpt>
      <trkpt lat="42.7281" lon="0.65445">
        <ele>1635</ele>
        <time>2017-06-04T13:01:26.000Z</time>
      </trkpt>
      <trkpt lat="42.72809" lon="0.65442">
        <ele>1635</ele>
        <time>2017-06-04T13:01:30.000Z</time>
      </trkpt>
      <trkpt lat="42.72806" lon="0.6544">
        <ele>1634.5</ele>
        <time>2017-06-04T13:01:37.000Z</time>
      </trkpt>
      <trkpt lat="42.72804" lon="0.65438">
        <ele>1634.3</ele>
        <time>2017-06-04T13:01:39.000Z</time>
      </trkpt>
      <trkpt lat="42.72802" lon="0.65437">
        <ele>1634.1</ele>
        <time>2017-06-04T13:01:41.000Z</time>
      </trkpt>
      <trkpt lat="42.72797" lon="0.6543">
        <ele>1633.5</ele>
        <time>2017-06-04T13:01:47.000Z</time>
      </trkpt>
      <trkpt lat="42.72793" lon="0.65426">
        <ele>1633</ele>
        <time>2017-06-04T13:01:52.000Z</time>
      </trkpt>
      <trkpt lat="42.72791" lon="0.65423">
        <ele>1633</ele>
        <time>2017-06-04T13:01:55.000Z</time>
      </trkpt>
      <trkpt lat="42.72789" lon="0.65421">
        <ele>1633</ele>
        <time>2017-06-04T13:01:57.000Z</time>
      </trkpt>
      <trkpt lat="42.72788" lon="0.65419">
        <ele>1633</ele>
        <time>2017-06-04T13:02:00.000Z</time>
      </trkpt>
      <trkpt lat="42.72786" lon="0.65416">
        <ele>1632.5</ele>
        <time>2017-06-04T13:02:03.000Z</time>
      </trkpt>
      <trkpt lat="42.72786" lon="0.65415">
        <ele>1632.2</ele>
        <time>2017-06-04T13:02:04.000Z</time>
      </trkpt>
      <trkpt lat="42.72782" lon="0.65411">
        <ele>1630.4</ele>
        <time>2017-06-04T13:02:10.000Z</time>
      </trkpt>
      <trkpt lat="42.7278" lon="0.6541">
        <ele>1629.7</ele>
        <time>2017-06-04T13:02:12.000Z</time>
      </trkpt>
      <trkpt lat="42.72778" lon="0.6541">
        <ele>1628.8</ele>
        <time>2017-06-04T13:02:14.000Z</time>
      </trkpt>
      <trkpt lat="42.72777" lon="0.6541">
        <ele>1628.3</ele>
        <time>2017-06-04T13:02:15.000Z</time>
      </trkpt>
      <trkpt lat="42.72776" lon="0.65402">
        <ele>1625.1</ele>
        <time>2017-06-04T13:02:22.000Z</time>
      </trkpt>
      <trkpt lat="42.72777" lon="0.65395">
        <ele>1623.8</ele>
        <time>2017-06-04T13:02:28.000Z</time>
      </trkpt>
      <trkpt lat="42.7278" lon="0.6539">
        <ele>1622</ele>
        <time>2017-06-04T13:02:35.000Z</time>
      </trkpt>
      <trkpt lat="42.72779" lon="0.65389">
        <ele>1621.1</ele>
        <time>2017-06-04T13:02:38.000Z</time>
      </trkpt>
      <trkpt lat="42.72777" lon="0.65389">
        <ele>1620.2</ele>
        <time>2017-06-04T13:02:41.000Z</time>
      </trkpt>
      <trkpt lat="42.72775" lon="0.6539">
        <ele>1619.3</ele>
        <time>2017-06-04T13:02:44.000Z</time>
      </trkpt>
      <trkpt lat="42.72774" lon="0.6539">
        <ele>1618.4</ele>
        <time>2017-06-04T13:02:47.000Z</time>
      </trkpt>
      <trkpt lat="42.72771" lon="0.65388">
        <ele>1617.5</ele>
        <time>2017-06-04T13:02:50.000Z</time>
      </trkpt>
      <trkpt lat="42.7277" lon="0.65387">
        <ele>1616.9</ele>
        <time>2017-06-04T13:02:52.000Z</time>
      </trkpt>
      <trkpt lat="42.72768" lon="0.65386">
        <ele>1616.3</ele>
        <time>2017-06-04T13:02:55.000Z</time>
      </trkpt>
      <trkpt lat="42.72764" lon="0.65386">
        <ele>1615.3</ele>
        <time>2017-06-04T13:03:00.000Z</time>
      </trkpt>
      <trkpt lat="42.72764" lon="0.65375">
        <ele>1612.7</ele>
        <time>2017-06-04T13:03:09.000Z</time>
      </trkpt>
      <trkpt lat="42.72766" lon="0.65371">
        <ele>1611.6</ele>
        <time>2017-06-04T13:03:13.000Z</time>
      </trkpt>
      <trkpt lat="42.72768" lon="0.65367">
        <ele>1610.1</ele>
        <time>2017-06-04T13:03:18.000Z</time>
      </trkpt>
      <trkpt lat="42.7277" lon="0.65365">
        <ele>1609.2</ele>
        <time>2017-06-04T13:03:21.000Z</time>
      </trkpt>
      <trkpt lat="42.72772" lon="0.65365">
        <ele>1608.1</ele>
        <time>2017-06-04T13:03:31.000Z</time>
      </trkpt>
      <trkpt lat="42.72772" lon="0.65367">
        <ele>1607</ele>
        <time>2017-06-04T13:03:35.000Z</time>
      </trkpt>
      <trkpt lat="42.72761" lon="0.65367">
        <ele>1605.8</ele>
        <time>2017-06-04T13:03:51.000Z</time>
      </trkpt>
      <trkpt lat="42.7276" lon="0.65367">
        <ele>1605.3</ele>
        <time>2017-06-04T13:03:52.000Z</time>
      </trkpt>
      <trkpt lat="42.7276" lon="0.65352">
        <ele>1600.7</ele>
        <time>2017-06-04T13:04:02.000Z</time>
      </trkpt>
      <trkpt lat="42.72765" lon="0.65347">
        <ele>1599.2</ele>
        <time>2017-06-04T13:04:10.000Z</time>
      </trkpt>
      <trkpt lat="42.72764" lon="0.65345">
        <ele>1597.4</ele>
        <time>2017-06-04T13:04:16.000Z</time>
      </trkpt>
      <trkpt lat="42.72761" lon="0.65346">
        <ele>1596.2</ele>
        <time>2017-06-04T13:04:20.000Z</time>
      </trkpt>
      <trkpt lat="42.72753" lon="0.65347">
        <ele>1592.9</ele>
        <time>2017-06-04T13:04:31.000Z</time>
      </trkpt>
      <trkpt lat="42.72748" lon="0.65346">
        <ele>1591.7</ele>
        <time>2017-06-04T13:04:35.000Z</time>
      </trkpt>
      <trkpt lat="42.72746" lon="0.65345">
        <ele>1591.1</ele>
        <time>2017-06-04T13:04:37.000Z</time>
      </trkpt>
      <trkpt lat="42.72744" lon="0.65344">
        <ele>1590.1</ele>
        <time>2017-06-04T13:04:40.000Z</time>
      </trkpt>
      <trkpt lat="42.72741" lon="0.65345">
        <ele>1589.5</ele>
        <time>2017-06-04T13:04:45.000Z</time>
      </trkpt>
      <trkpt lat="42.7274" lon="0.65343">
        <ele>1589.3</ele>
        <time>2017-06-04T13:04:47.000Z</time>
      </trkpt>
      <trkpt lat="42.72745" lon="0.65331">
        <ele>1587.2</ele>
        <time>2017-06-04T13:04:55.000Z</time>
      </trkpt>
      <trkpt lat="42.72745" lon="0.6533">
        <ele>1586.9</ele>
        <time>2017-06-04T13:04:56.000Z</time>
      </trkpt>
      <trkpt lat="42.72744" lon="0.65334">
        <ele>1585</ele>
        <time>2017-06-04T13:05:01.000Z</time>
      </trkpt>
      <trkpt lat="42.72741" lon="0.65335">
        <ele>1585</ele>
        <time>2017-06-04T13:05:09.000Z</time>
      </trkpt>
      <trkpt lat="42.72736" lon="0.65335">
        <ele>1585</ele>
        <time>2017-06-04T13:05:13.000Z</time>
      </trkpt>
      <trkpt lat="42.72734" lon="0.65334">
        <ele>1585</ele>
        <time>2017-06-04T13:05:16.000Z</time>
      </trkpt>
      <trkpt lat="42.72731" lon="0.65333">
        <ele>1583.8</ele>
        <time>2017-06-04T13:05:20.000Z</time>
      </trkpt>
      <trkpt lat="42.72729" lon="0.65332">
        <ele>1582.4</ele>
        <time>2017-06-04T13:05:23.000Z</time>
      </trkpt>
      <trkpt lat="42.72727" lon="0.65332">
        <ele>1581.4</ele>
        <time>2017-06-04T13:05:25.000Z</time>
      </trkpt>
      <trkpt lat="42.72723" lon="0.65332">
        <ele>1579.3</ele>
        <time>2017-06-04T13:05:30.000Z</time>
      </trkpt>
      <trkpt lat="42.72721" lon="0.65332">
        <ele>1578.4</ele>
        <time>2017-06-04T13:05:33.000Z</time>
      </trkpt>
      <trkpt lat="42.72717" lon="0.65332">
        <ele>1577.1</ele>
        <time>2017-06-04T13:05:37.000Z</time>
      </trkpt>
      <trkpt lat="42.72715" lon="0.65331">
        <ele>1576.7</ele>
        <time>2017-06-04T13:05:39.000Z</time>
      </trkpt>
      <trkpt lat="42.72718" lon="0.6532">
        <ele>1575.3</ele>
        <time>2017-06-04T13:05:46.000Z</time>
      </trkpt>
      <trkpt lat="42.72717" lon="0.65322">
        <ele>1574.4</ele>
        <time>2017-06-04T13:05:49.000Z</time>
      </trkpt>
      <trkpt lat="42.72711" lon="0.65322">
        <ele>1572.4</ele>
        <time>2017-06-04T13:05:54.000Z</time>
      </trkpt>
      <trkpt lat="42.72711" lon="0.65322">
        <ele>1572</ele>
        <time>2017-06-04T13:05:55.000Z</time>
      </trkpt>
      <trkpt lat="42.72708" lon="0.65321">
        <ele>1570.9</ele>
        <time>2017-06-04T13:05:58.000Z</time>
      </trkpt>
      <trkpt lat="42.72702" lon="0.65322">
        <ele>1568.8</ele>
        <time>2017-06-04T13:06:05.000Z</time>
      </trkpt>
      <trkpt lat="42.727" lon="0.65323">
        <ele>1567.9</ele>
        <time>2017-06-04T13:06:08.000Z</time>
      </trkpt>
      <trkpt lat="42.72697" lon="0.65325">
        <ele>1566.7</ele>
        <time>2017-06-04T13:06:12.000Z</time>
      </trkpt>
      <trkpt lat="42.72695" lon="0.65324">
        <ele>1566.1</ele>
        <time>2017-06-04T13:06:14.000Z</time>
      </trkpt>
      <trkpt lat="42.72694" lon="0.65324">
        <ele>1565.5</ele>
        <time>2017-06-04T13:06:16.000Z</time>
      </trkpt>
      <trkpt lat="42.72684" lon="0.6532">
        <ele>1561.8</ele>
        <time>2017-06-04T13:06:35.000Z</time>
      </trkpt>
      <trkpt lat="42.72682" lon="0.6532">
        <ele>1560.9</ele>
        <time>2017-06-04T13:06:38.000Z</time>
      </trkpt>
      <trkpt lat="42.72681" lon="0.65323">
        <ele>1560.3</ele>
        <time>2017-06-04T13:06:41.000Z</time>
      </trkpt>
      <trkpt lat="42.72679" lon="0.65323">
        <ele>1559.9</ele>
        <time>2017-06-04T13:06:43.000Z</time>
      </trkpt>
      <trkpt lat="42.72677" lon="0.65323">
        <ele>1559.5</ele>
        <time>2017-06-04T13:06:45.000Z</time>
      </trkpt>
      <trkpt lat="42.72673" lon="0.65324">
        <ele>1558.5</ele>
        <time>2017-06-04T13:06:49.000Z</time>
      </trkpt>
      <trkpt lat="42.72671" lon="0.65325">
        <ele>1557.9</ele>
        <time>2017-06-04T13:06:51.000Z</time>
      </trkpt>
      <trkpt lat="42.72668" lon="0.65325">
        <ele>1557.3</ele>
        <time>2017-06-04T13:06:53.000Z</time>
      </trkpt>
      <trkpt lat="42.72666" lon="0.65326">
        <ele>1556.7</ele>
        <time>2017-06-04T13:06:55.000Z</time>
      </trkpt>
      <trkpt lat="42.72664" lon="0.65326">
        <ele>1555.8</ele>
        <time>2017-06-04T13:06:58.000Z</time>
      </trkpt>
      <trkpt lat="42.72663" lon="0.65326">
        <ele>1555.5</ele>
        <time>2017-06-04T13:06:59.000Z</time>
      </trkpt>
      <trkpt lat="42.72661" lon="0.65328">
        <ele>1554.6</ele>
        <time>2017-06-04T13:07:02.000Z</time>
      </trkpt>
      <trkpt lat="42.7266" lon="0.65329">
        <ele>1554.3</ele>
        <time>2017-06-04T13:07:03.000Z</time>
      </trkpt>
      <trkpt lat="42.72658" lon="0.65327">
        <ele>1553.7</ele>
        <time>2017-06-04T13:07:05.000Z</time>
      </trkpt>
      <trkpt lat="42.72659" lon="0.65323">
        <ele>1553.1</ele>
        <time>2017-06-04T13:07:07.000Z</time>
      </trkpt>
      <trkpt lat="42.7266" lon="0.65321">
        <ele>1552.9</ele>
        <time>2017-06-04T13:07:08.000Z</time>
      </trkpt>
      <trkpt lat="42.72661" lon="0.65319">
        <ele>1552.5</ele>
        <time>2017-06-04T13:07:10.000Z</time>
      </trkpt>
      <trkpt lat="42.72662" lon="0.65317">
        <ele>1551.8</ele>
        <time>2017-06-04T13:07:13.000Z</time>
      </trkpt>
      <trkpt lat="42.72624" lon="0.65315">
        <ele>1540.7</ele>
        <time>2017-06-04T13:08:27.000Z</time>
      </trkpt>
      <trkpt lat="42.72607" lon="0.65325">
        <ele>1538.1</ele>
        <time>2017-06-04T13:08:44.000Z</time>
      </trkpt>
      <trkpt lat="42.72597" lon="0.65328">
        <ele>1536.1</ele>
        <time>2017-06-04T13:08:55.000Z</time>
      </trkpt>
      <trkpt lat="42.72588" lon="0.65329">
        <ele>1532.1</ele>
        <time>2017-06-04T13:09:05.100Z</time>
      </trkpt>
      <trkpt lat="42.72578" lon="0.65335">
        <ele>1528.4</ele>
        <time>2017-06-04T13:09:17.000Z</time>
      </trkpt>
      <trkpt lat="42.7257" lon="0.65335">
        <ele>1525.2</ele>
        <time>2017-06-04T13:09:24.990Z</time>
      </trkpt>
      <trkpt lat="42.72542" lon="0.65342">
        <ele>1515.8</ele>
        <time>2017-06-04T13:09:55.990Z</time>
      </trkpt>
      <trkpt lat="42.72534" lon="0.6534">
        <ele>1513.1</ele>
        <time>2017-06-04T13:10:04.990Z</time>
      </trkpt>
      <trkpt lat="42.72525" lon="0.65348">
        <ele>1510</ele>
        <time>2017-06-04T13:10:16.000Z</time>
      </trkpt>
      <trkpt lat="42.72524" lon="0.65351">
        <ele>1510</ele>
        <time>2017-06-04T13:10:19.000Z</time>
      </trkpt>
      <trkpt lat="42.72522" lon="0.65356">
        <ele>1510</ele>
        <time>2017-06-04T13:10:23.000Z</time>
      </trkpt>
      <trkpt lat="42.72522" lon="0.65358">
        <ele>1510</ele>
        <time>2017-06-04T13:10:25.000Z</time>
      </trkpt>
      <trkpt lat="42.72522" lon="0.65361">
        <ele>1510.2</ele>
        <time>2017-06-04T13:10:27.000Z</time>
      </trkpt>
      <trkpt lat="42.72521" lon="0.65363">
        <ele>1510.5</ele>
        <time>2017-06-04T13:10:30.000Z</time>
      </trkpt>
      <trkpt lat="42.72519" lon="0.65364">
        <ele>1510.8</ele>
        <time>2017-06-04T13:10:33.000Z</time>
      </trkpt>
      <trkpt lat="42.72517" lon="0.65365">
        <ele>1511</ele>
        <time>2017-06-04T13:10:35.000Z</time>
      </trkpt>
      <trkpt lat="42.72515" lon="0.65366">
        <ele>1511</ele>
        <time>2017-06-04T13:10:37.000Z</time>
      </trkpt>
      <trkpt lat="42.72512" lon="0.65368">
        <ele>1511</ele>
        <time>2017-06-04T13:10:39.000Z</time>
      </trkpt>
      <trkpt lat="42.7251" lon="0.65369">
        <ele>1511</ele>
        <time>2017-06-04T13:10:41.000Z</time>
      </trkpt>
      <trkpt lat="42.72508" lon="0.6537">
        <ele>1511</ele>
        <time>2017-06-04T13:10:43.000Z</time>
      </trkpt>
      <trkpt lat="42.72506" lon="0.65371">
        <ele>1511</ele>
        <time>2017-06-04T13:10:45.000Z</time>
      </trkpt>
      <trkpt lat="42.72499" lon="0.65369">
        <ele>1509.3</ele>
        <time>2017-06-04T13:10:54.000Z</time>
      </trkpt>
      <trkpt lat="42.72497" lon="0.65372">
        <ele>1505.8</ele>
        <time>2017-06-04T13:11:01.000Z</time>
      </trkpt>
      <trkpt lat="42.72496" lon="0.65374">
        <ele>1504.6</ele>
        <time>2017-06-04T13:11:03.000Z</time>
      </trkpt>
      <trkpt lat="42.72495" lon="0.65377">
        <ele>1502.9</ele>
        <time>2017-06-04T13:11:06.000Z</time>
      </trkpt>
      <trkpt lat="42.72487" lon="0.65387">
        <ele>1500.9</ele>
        <time>2017-06-04T13:11:16.000Z</time>
      </trkpt>
      <trkpt lat="42.72484" lon="0.65389">
        <ele>1500.5</ele>
        <time>2017-06-04T13:11:20.000Z</time>
      </trkpt>
      <trkpt lat="42.7248" lon="0.65391">
        <ele>1500.1</ele>
        <time>2017-06-04T13:11:24.000Z</time>
      </trkpt>
      <trkpt lat="42.72477" lon="0.65394">
        <ele>1499.5</ele>
        <time>2017-06-04T13:11:28.000Z</time>
      </trkpt>
      <trkpt lat="42.72474" lon="0.65394">
        <ele>1498.9</ele>
        <time>2017-06-04T13:11:31.000Z</time>
      </trkpt>
      <trkpt lat="42.72471" lon="0.65397">
        <ele>1497.7</ele>
        <time>2017-06-04T13:11:37.000Z</time>
      </trkpt>
      <trkpt lat="42.7247" lon="0.65397">
        <ele>1497.5</ele>
        <time>2017-06-04T13:11:38.000Z</time>
      </trkpt>
      <trkpt lat="42.72463" lon="0.65405">
        <ele>1495.3</ele>
        <time>2017-06-04T13:11:48.000Z</time>
      </trkpt>
      <trkpt lat="42.72462" lon="0.65406">
        <ele>1494.7</ele>
        <time>2017-06-04T13:11:50.000Z</time>
      </trkpt>
      <trkpt lat="42.72457" lon="0.65411">
        <ele>1492.8</ele>
        <time>2017-06-04T13:11:56.000Z</time>
      </trkpt>
      <trkpt lat="42.72456" lon="0.65412">
        <ele>1492</ele>
        <time>2017-06-04T13:11:58.000Z</time>
      </trkpt>
      <trkpt lat="42.72449" lon="0.65417">
        <ele>1489.2</ele>
        <time>2017-06-04T13:12:05.000Z</time>
      </trkpt>
      <trkpt lat="42.72448" lon="0.65419">
        <ele>1488.8</ele>
        <time>2017-06-04T13:12:07.000Z</time>
      </trkpt>
      <trkpt lat="42.72445" lon="0.65421">
        <ele>1488.6</ele>
        <time>2017-06-04T13:12:09.000Z</time>
      </trkpt>
      <trkpt lat="42.72444" lon="0.65422">
        <ele>1488.4</ele>
        <time>2017-06-04T13:12:11.000Z</time>
      </trkpt>
      <trkpt lat="42.72442" lon="0.65423">
        <ele>1488.2</ele>
        <time>2017-06-04T13:12:13.000Z</time>
      </trkpt>
      <trkpt lat="42.7244" lon="0.65425">
        <ele>1487.9</ele>
        <time>2017-06-04T13:12:16.000Z</time>
      </trkpt>
      <trkpt lat="42.72438" lon="0.65425">
        <ele>1486.9</ele>
        <time>2017-06-04T13:12:31.000Z</time>
      </trkpt>
      <trkpt lat="42.72433" lon="0.65431">
        <ele>1483.9</ele>
        <time>2017-06-04T13:12:42.000Z</time>
      </trkpt>
      <trkpt lat="42.72433" lon="0.65431">
        <ele>1483.6</ele>
        <time>2017-06-04T13:12:43.000Z</time>
      </trkpt>
      <trkpt lat="42.72429" lon="0.65435">
        <ele>1481.7</ele>
        <time>2017-06-04T13:12:49.000Z</time>
      </trkpt>
      <trkpt lat="42.72427" lon="0.65435">
        <ele>1480.8</ele>
        <time>2017-06-04T13:12:52.000Z</time>
      </trkpt>
      <trkpt lat="42.72426" lon="0.65435">
        <ele>1480.4</ele>
        <time>2017-06-04T13:12:53.000Z</time>
      </trkpt>
      <trkpt lat="42.72424" lon="0.65435">
        <ele>1479.6</ele>
        <time>2017-06-04T13:12:55.000Z</time>
      </trkpt>
      <trkpt lat="42.72422" lon="0.65437">
        <ele>1478.8</ele>
        <time>2017-06-04T13:12:57.000Z</time>
      </trkpt>
      <trkpt lat="42.72415" lon="0.65445">
        <ele>1477.4</ele>
        <time>2017-06-04T13:13:06.000Z</time>
      </trkpt>
      <trkpt lat="42.72413" lon="0.65446">
        <ele>1477.7</ele>
        <time>2017-06-04T13:13:09.000Z</time>
      </trkpt>
      <trkpt lat="42.72412" lon="0.65448">
        <ele>1477.8</ele>
        <time>2017-06-04T13:13:12.000Z</time>
      </trkpt>
      <trkpt lat="42.72411" lon="0.6545">
        <ele>1476.6</ele>
        <time>2017-06-04T13:13:16.000Z</time>
      </trkpt>
      <trkpt lat="42.72411" lon="0.65453">
        <ele>1475.4</ele>
        <time>2017-06-04T13:13:20.000Z</time>
      </trkpt>
      <trkpt lat="42.72409" lon="0.65455">
        <ele>1474.8</ele>
        <time>2017-06-04T13:13:23.000Z</time>
      </trkpt>
      <trkpt lat="42.72408" lon="0.65458">
        <ele>1474.4</ele>
        <time>2017-06-04T13:13:27.000Z</time>
      </trkpt>
      <trkpt lat="42.72408" lon="0.65461">
        <ele>1474</ele>
        <time>2017-06-04T13:13:31.000Z</time>
      </trkpt>
      <trkpt lat="42.72408" lon="0.65464">
        <ele>1473.5</ele>
        <time>2017-06-04T13:13:34.000Z</time>
      </trkpt>
      <trkpt lat="42.72408" lon="0.65466">
        <ele>1472.5</ele>
        <time>2017-06-04T13:13:39.000Z</time>
      </trkpt>
      <trkpt lat="42.72407" lon="0.65469">
        <ele>1472</ele>
        <time>2017-06-04T13:13:42.000Z</time>
      </trkpt>
      <trkpt lat="42.72407" lon="0.65469">
        <ele>1471.9</ele>
        <time>2017-06-04T13:13:43.000Z</time>
      </trkpt>
      <trkpt lat="42.72404" lon="0.65469">
        <ele>1471.6</ele>
        <time>2017-06-04T13:13:46.000Z</time>
      </trkpt>
      <trkpt lat="42.72402" lon="0.6547">
        <ele>1470.7</ele>
        <time>2017-06-04T13:13:52.000Z</time>
      </trkpt>
      <trkpt lat="42.724" lon="0.6547">
        <ele>1469.2</ele>
        <time>2017-06-04T13:13:55.000Z</time>
      </trkpt>
      <trkpt lat="42.72398" lon="0.65469">
        <ele>1467.7</ele>
        <time>2017-06-04T13:13:58.000Z</time>
      </trkpt>
      <trkpt lat="42.72395" lon="0.65473">
        <ele>1466</ele>
        <time>2017-06-04T13:14:03.000Z</time>
      </trkpt>
      <trkpt lat="42.72395" lon="0.65475">
        <ele>1466</ele>
        <time>2017-06-04T13:14:07.000Z</time>
      </trkpt>
      <trkpt lat="42.72392" lon="0.65474">
        <ele>1466</ele>
        <time>2017-06-04T13:14:09.000Z</time>
      </trkpt>
      <trkpt lat="42.72392" lon="0.65472">
        <ele>1466</ele>
        <time>2017-06-04T13:14:11.000Z</time>
      </trkpt>
      <trkpt lat="42.72391" lon="0.65467">
        <ele>1465.2</ele>
        <time>2017-06-04T13:14:19.000Z</time>
      </trkpt>
      <trkpt lat="42.7239" lon="0.65467">
        <ele>1464.2</ele>
        <time>2017-06-04T13:14:24.000Z</time>
      </trkpt>
      <trkpt lat="42.7238" lon="0.65485">
        <ele>1460.1</ele>
        <time>2017-06-04T13:14:46.000Z</time>
      </trkpt>
      <trkpt lat="42.72379" lon="0.65488">
        <ele>1459.5</ele>
        <time>2017-06-04T13:14:49.000Z</time>
      </trkpt>
      <trkpt lat="42.72377" lon="0.65495">
        <ele>1457.9</ele>
        <time>2017-06-04T13:14:57.000Z</time>
      </trkpt>
      <trkpt lat="42.72375" lon="0.65496">
        <ele>1457.1</ele>
        <time>2017-06-04T13:15:01.000Z</time>
      </trkpt>
      <trkpt lat="42.72375" lon="0.65497">
        <ele>1456.8</ele>
        <time>2017-06-04T13:15:03.000Z</time>
      </trkpt>
      <trkpt lat="42.72376" lon="0.655">
        <ele>1456.4</ele>
        <time>2017-06-04T13:15:07.000Z</time>
      </trkpt>
      <trkpt lat="42.72378" lon="0.65502">
        <ele>1456.1</ele>
        <time>2017-06-04T13:15:10.000Z</time>
      </trkpt>
      <trkpt lat="42.7238" lon="0.65503">
        <ele>1456</ele>
        <time>2017-06-04T13:15:13.000Z</time>
      </trkpt>
      <trkpt lat="42.72378" lon="0.65505">
        <ele>1456</ele>
        <time>2017-06-04T13:15:20.000Z</time>
      </trkpt>
      <trkpt lat="42.72384" lon="0.65514">
        <ele>1452.7</ele>
        <time>2017-06-04T13:15:34.000Z</time>
      </trkpt>
      <trkpt lat="42.72373" lon="0.65516">
        <ele>1452.1</ele>
        <time>2017-06-04T13:15:40.000Z</time>
      </trkpt>
      <trkpt lat="42.7237" lon="0.65517">
        <ele>1452.2</ele>
        <time>2017-06-04T13:15:42.000Z</time>
      </trkpt>
      <trkpt lat="42.72367" lon="0.65519">
        <ele>1453.4</ele>
        <time>2017-06-04T13:15:45.000Z</time>
      </trkpt>
      <trkpt lat="42.72366" lon="0.6552">
        <ele>1454.6</ele>
        <time>2017-06-04T13:15:48.000Z</time>
      </trkpt>
      <trkpt lat="42.7235" lon="0.6551">
        <ele>1457.5</ele>
        <time>2017-06-04T13:16:17.000Z</time>
      </trkpt>
      <trkpt lat="42.72343" lon="0.6551">
        <ele>1456.8</ele>
        <time>2017-06-04T13:16:23.000Z</time>
      </trkpt>
      <trkpt lat="42.72341" lon="0.65507">
        <ele>1456.5</ele>
        <time>2017-06-04T13:16:26.000Z</time>
      </trkpt>
      <trkpt lat="42.7234" lon="0.65505">
        <ele>1456.3</ele>
        <time>2017-06-04T13:16:28.000Z</time>
      </trkpt>
      <trkpt lat="42.72324" lon="0.65495">
        <ele>1453.3</ele>
        <time>2017-06-04T13:16:45.000Z</time>
      </trkpt>
      <trkpt lat="42.72322" lon="0.65497">
        <ele>1452.7</ele>
        <time>2017-06-04T13:16:48.000Z</time>
      </trkpt>
      <trkpt lat="42.7232" lon="0.65497">
        <ele>1452.1</ele>
        <time>2017-06-04T13:16:51.000Z</time>
      </trkpt>
      <trkpt lat="42.7232" lon="0.65498">
        <ele>1451.9</ele>
        <time>2017-06-04T13:16:53.000Z</time>
      </trkpt>
      <trkpt lat="42.72318" lon="0.65498">
        <ele>1451.5</ele>
        <time>2017-06-04T13:16:56.000Z</time>
      </trkpt>
      <trkpt lat="42.72316" lon="0.65498">
        <ele>1451.3</ele>
        <time>2017-06-04T13:16:58.000Z</time>
      </trkpt>
      <trkpt lat="42.723" lon="0.6551">
        <ele>1448.1</ele>
        <time>2017-06-04T13:17:21.000Z</time>
      </trkpt>
      <trkpt lat="42.72284" lon="0.65516">
        <ele>1442.5</ele>
        <time>2017-06-04T13:17:39.000Z</time>
      </trkpt>
      <trkpt lat="42.7228" lon="0.65517">
        <ele>1441.8</ele>
        <time>2017-06-04T13:17:43.000Z</time>
      </trkpt>
      <trkpt lat="42.72277" lon="0.65522">
        <ele>1441.2</ele>
        <time>2017-06-04T13:17:49.000Z</time>
      </trkpt>
      <trkpt lat="42.72275" lon="0.65521">
        <ele>1440.4</ele>
        <time>2017-06-04T13:17:53.000Z</time>
      </trkpt>
      <trkpt lat="42.72274" lon="0.65523">
        <ele>1438.4</ele>
        <time>2017-06-04T13:17:58.000Z</time>
      </trkpt>
      <trkpt lat="42.72271" lon="0.65524">
        <ele>1437.2</ele>
        <time>2017-06-04T13:18:01.000Z</time>
      </trkpt>
      <trkpt lat="42.72269" lon="0.65523">
        <ele>1436.7</ele>
        <time>2017-06-04T13:18:03.000Z</time>
      </trkpt>
      <trkpt lat="42.72267" lon="0.65524">
        <ele>1436.1</ele>
        <time>2017-06-04T13:18:06.000Z</time>
      </trkpt>
      <trkpt lat="42.72265" lon="0.65525">
        <ele>1435.7</ele>
        <time>2017-06-04T13:18:08.000Z</time>
      </trkpt>
      <trkpt lat="42.72263" lon="0.65525">
        <ele>1435.1</ele>
        <time>2017-06-04T13:18:11.000Z</time>
      </trkpt>
      <trkpt lat="42.72261" lon="0.65525">
        <ele>1435</ele>
        <time>2017-06-04T13:18:14.000Z</time>
      </trkpt>
      <trkpt lat="42.72261" lon="0.65525">
        <ele>1435</ele>
        <time>2017-06-04T13:18:19.000Z</time>
      </trkpt>
      <trkpt lat="42.72259" lon="0.65527">
        <ele>1435</ele>
        <time>2017-06-04T13:18:25.000Z</time>
      </trkpt>
      <trkpt lat="42.72259" lon="0.65527">
        <ele>1435</ele>
        <time>2017-06-04T13:18:26.000Z</time>
      </trkpt>
      <trkpt lat="42.72259" lon="0.65527">
        <ele>1435</ele>
        <time>2017-06-04T13:18:30.000Z</time>
      </trkpt>
      <trkpt lat="42.72257" lon="0.65528">
        <ele>1434</ele>
        <time>2017-06-04T13:19:37.000Z</time>
      </trkpt>
      <trkpt lat="42.7225" lon="0.65531">
        <ele>1432.5</ele>
        <time>2017-06-04T13:19:44.000Z</time>
      </trkpt>
      <trkpt lat="42.72239" lon="0.6553">
        <ele>1429.5</ele>
        <time>2017-06-04T13:19:55.000Z</time>
      </trkpt>
      <trkpt lat="42.72232" lon="0.6553">
        <ele>1427.9</ele>
        <time>2017-06-04T13:20:02.000Z</time>
      </trkpt>
      <trkpt lat="42.7223" lon="0.65529">
        <ele>1427.3</ele>
        <time>2017-06-04T13:20:05.000Z</time>
      </trkpt>
      <trkpt lat="42.72228" lon="0.65525">
        <ele>1424</ele>
        <time>2017-06-04T13:20:15.000Z</time>
      </trkpt>
      <trkpt lat="42.72222" lon="0.65527">
        <ele>1424</ele>
        <time>2017-06-04T13:20:24.000Z</time>
      </trkpt>
      <trkpt lat="42.72221" lon="0.65527">
        <ele>1423.9</ele>
        <time>2017-06-04T13:20:25.000Z</time>
      </trkpt>
      <trkpt lat="42.72219" lon="0.65527">
        <ele>1423.4</ele>
        <time>2017-06-04T13:20:27.000Z</time>
      </trkpt>
      <trkpt lat="42.72216" lon="0.65528">
        <ele>1422.8</ele>
        <time>2017-06-04T13:20:30.000Z</time>
      </trkpt>
      <trkpt lat="42.72214" lon="0.65529">
        <ele>1422.3</ele>
        <time>2017-06-04T13:20:32.000Z</time>
      </trkpt>
      <trkpt lat="42.72212" lon="0.65525">
        <ele>1420.7</ele>
        <time>2017-06-04T13:20:36.000Z</time>
      </trkpt>
      <trkpt lat="42.7221" lon="0.65525">
        <ele>1419.1</ele>
        <time>2017-06-04T13:20:39.000Z</time>
      </trkpt>
      <trkpt lat="42.72206" lon="0.65513">
        <ele>1415.3</ele>
        <time>2017-06-04T13:20:57.000Z</time>
      </trkpt>
      <trkpt lat="42.72205" lon="0.65511">
        <ele>1414</ele>
        <time>2017-06-04T13:21:04.000Z</time>
      </trkpt>
      <trkpt lat="42.72207" lon="0.65501">
        <ele>1413.4</ele>
        <time>2017-06-04T13:21:10.000Z</time>
      </trkpt>
      <trkpt lat="42.72206" lon="0.655">
        <ele>1412.4</ele>
        <time>2017-06-04T13:21:20.000Z</time>
      </trkpt>
      <trkpt lat="42.72201" lon="0.65501">
        <ele>1411.9</ele>
        <time>2017-06-04T13:21:24.000Z</time>
      </trkpt>
      <trkpt lat="42.72196" lon="0.65499">
        <ele>1409.4</ele>
        <time>2017-06-04T13:21:30.000Z</time>
      </trkpt>
      <trkpt lat="42.72195" lon="0.65499">
        <ele>1409</ele>
        <time>2017-06-04T13:21:31.000Z</time>
      </trkpt>
      <trkpt lat="42.72189" lon="0.65501">
        <ele>1407.7</ele>
        <time>2017-06-04T13:21:35.000Z</time>
      </trkpt>
      <trkpt lat="42.72187" lon="0.65502">
        <ele>1407.3</ele>
        <time>2017-06-04T13:21:37.000Z</time>
      </trkpt>
      <trkpt lat="42.72184" lon="0.65502">
        <ele>1406.9</ele>
        <time>2017-06-04T13:21:39.000Z</time>
      </trkpt>
      <trkpt lat="42.72181" lon="0.65502">
        <ele>1406.3</ele>
        <time>2017-06-04T13:21:42.000Z</time>
      </trkpt>
      <trkpt lat="42.72178" lon="0.65502">
        <ele>1405.9</ele>
        <time>2017-06-04T13:21:44.000Z</time>
      </trkpt>
      <trkpt lat="42.72165" lon="0.6548">
        <ele>1401</ele>
        <time>2017-06-04T13:22:05.000Z</time>
      </trkpt>
      <trkpt lat="42.72162" lon="0.65476">
        <ele>1401</ele>
        <time>2017-06-04T13:22:10.000Z</time>
      </trkpt>
      <trkpt lat="42.72157" lon="0.65472">
        <ele>1400</ele>
        <time>2017-06-04T13:22:16.000Z</time>
      </trkpt>
      <trkpt lat="42.72155" lon="0.65471">
        <ele>1399.2</ele>
        <time>2017-06-04T13:22:18.000Z</time>
      </trkpt>
      <trkpt lat="42.72153" lon="0.6547">
        <ele>1398.4</ele>
        <time>2017-06-04T13:22:20.000Z</time>
      </trkpt>
      <trkpt lat="42.72151" lon="0.6547">
        <ele>1397.6</ele>
        <time>2017-06-04T13:22:22.000Z</time>
      </trkpt>
      <trkpt lat="42.72151" lon="0.65467">
        <ele>1396.7</ele>
        <time>2017-06-04T13:22:27.000Z</time>
      </trkpt>
      <trkpt lat="42.72148" lon="0.65467">
        <ele>1396.4</ele>
        <time>2017-06-04T13:22:30.000Z</time>
      </trkpt>
      <trkpt lat="42.72146" lon="0.65466">
        <ele>1396.2</ele>
        <time>2017-06-04T13:22:32.000Z</time>
      </trkpt>
      <trkpt lat="42.72142" lon="0.65462">
        <ele>1395.3</ele>
        <time>2017-06-04T13:22:36.000Z</time>
      </trkpt>
      <trkpt lat="42.72138" lon="0.65459">
        <ele>1394.1</ele>
        <time>2017-06-04T13:22:40.000Z</time>
      </trkpt>
      <trkpt lat="42.72138" lon="0.65455">
        <ele>1393</ele>
        <time>2017-06-04T13:22:49.000Z</time>
      </trkpt>
      <trkpt lat="42.72134" lon="0.6545">
        <ele>1392</ele>
        <time>2017-06-04T13:23:03.000Z</time>
      </trkpt>
      <trkpt lat="42.72129" lon="0.65448">
        <ele>1391.5</ele>
        <time>2017-06-04T13:23:07.000Z</time>
      </trkpt>
      <trkpt lat="42.72124" lon="0.65445">
        <ele>1391.1</ele>
        <time>2017-06-04T13:23:11.000Z</time>
      </trkpt>
      <trkpt lat="42.72122" lon="0.65444">
        <ele>1391</ele>
        <time>2017-06-04T13:23:13.000Z</time>
      </trkpt>
      <trkpt lat="42.7212" lon="0.65444">
        <ele>1391</ele>
        <time>2017-06-04T13:23:15.000Z</time>
      </trkpt>
      <trkpt lat="42.72118" lon="0.65446">
        <ele>1391</ele>
        <time>2017-06-04T13:23:17.000Z</time>
      </trkpt>
      <trkpt lat="42.72115" lon="0.65454">
        <ele>1391</ele>
        <time>2017-06-04T13:23:23.000Z</time>
      </trkpt>
      <trkpt lat="42.72113" lon="0.65456">
        <ele>1391</ele>
        <time>2017-06-04T13:23:25.000Z</time>
      </trkpt>
    </trkseg>
  </trk>
</gpx>